Wetterdaten: Freitag, 17.05.2019
Datum Zeit Temp. A. Pool Temp. Temp. 5cm Feuchte A. Luftdruck Regen Wind Richtung Richtung Sonnenschein ET UV Solar Taupunkt Windchill Windben Empfang
17.05.2019 00:00 9,3 C 13,3 C 8,9 C 88 % 1011,3 hPa 0,0 l/m 4,4 km/h (1 Bft) O-NO 62 0 min 0,000 mm 0,0 UV-I 0 W/m 7,4 C 9,3 C 6,4 km/h (2 Bft) 94,00 %
17.05.2019 00:02 9,3 C 13,3 C 8,9 C 89 % 1011,3 hPa 0,0 l/m 5,4 km/h (1 Bft) O-NO 72 0 min 0,000 mm 0,0 UV-I 0 W/m 7,6 C 9,3 C 8,0 km/h (2 Bft) 92,11 %
17.05.2019 00:04 9,3 C 13,3 C 8,9 C 89 % 1011,3 hPa 0,0 l/m 3,3 km/h (1 Bft) O 92 0 min 0,000 mm 0,0 UV-I 0 W/m 7,6 C 9,3 C 6,4 km/h (2 Bft) 95,83 %
17.05.2019 00:06 9,3 C 13,3 C 8,9 C 88 % 1011,3 hPa 0,0 l/m 4,7 km/h (1 Bft) O-NO 76 0 min 0,000 mm 0,0 UV-I 0 W/m 7,4 C 9,3 C 8,0 km/h (2 Bft) 95,74 %
17.05.2019 00:08 9,3 C 13,3 C 8,9 C 88 % 1011,3 hPa 0,0 l/m 6,5 km/h (2 Bft) O-NO 76 0 min 0,000 mm 0,0 UV-I 0 W/m 7,4 C 9,3 C 11,3 km/h (2 Bft) 93,62 %
17.05.2019 00:10 9,4 C 13,3 C 8,9 C 88 % 1011,3 hPa 0,0 l/m 6,6 km/h (2 Bft) O-NO 77 0 min 0,000 mm 0,0 UV-I 0 W/m 7,5 C 9,3 C 11,3 km/h (2 Bft) 95,74 %
17.05.2019 00:12 9,4 C 13,3 C 8,9 C 88 % 1011,3 hPa 0,0 l/m 6,6 km/h (2 Bft) O 79 0 min 0,000 mm 0,0 UV-I 0 W/m 7,5 C 9,3 C 11,3 km/h (2 Bft) 95,74 %
17.05.2019 00:14 9,4 C 13,3 C 8,9 C 88 % 1011,3 hPa 0,0 l/m 5,2 km/h (1 Bft) O 84 0 min 0,000 mm 0,0 UV-I 0 W/m 7,5 C 9,4 C 11,3 km/h (2 Bft) 98,11 %
17.05.2019 00:16 9,4 C 13,3 C 8,9 C 88 % 1011,3 hPa 0,0 l/m 6,4 km/h (2 Bft) O 92 0 min 0,000 mm 0,0 UV-I 0 W/m 7,5 C 9,4 C 9,7 km/h (2 Bft) 93,18 %
17.05.2019 00:18 9,4 C 13,3 C 8,9 C 88 % 1011,3 hPa 0,0 l/m 7,3 km/h (2 Bft) O 81 0 min 0,000 mm 0,0 UV-I 0 W/m 7,5 C 8,7 C 11,3 km/h (2 Bft) 95,74 %
17.05.2019 00:20 9,4 C 13,3 C 8,9 C 88 % 1011,2 hPa 0,0 l/m 6,1 km/h (2 Bft) O 83 0 min 0,000 mm 0,0 UV-I 0 W/m 7,5 C 9,4 C 8,0 km/h (2 Bft) 98,00 %
17.05.2019 00:22 9,4 C 13,3 C 8,9 C 88 % 1011,2 hPa 0,0 l/m 5,4 km/h (1 Bft) O-NO 69 0 min 0,000 mm 0,0 UV-I 0 W/m 7,5 C 9,4 C 8,0 km/h (2 Bft) 94,74 %
17.05.2019 00:24 9,4 C 13,3 C 8,9 C 88 % 1011,2 hPa 0,0 l/m 5,2 km/h (1 Bft) O-NO 76 0 min 0,000 mm 0,0 UV-I 0 W/m 7,5 C 9,4 C 6,4 km/h (2 Bft) 98,00 %
17.05.2019 00:26 9,4 C 13,3 C 8,9 C 88 % 1011,2 hPa 0,0 l/m 4,7 km/h (1 Bft) O 80 0 min 0,000 mm 0,0 UV-I 0 W/m 7,5 C 9,4 C 9,7 km/h (2 Bft) 97,73 %
17.05.2019 00:28 9,3 C 13,3 C 8,9 C 88 % 1011,1 hPa 0,0 l/m 5,5 km/h (1 Bft) O-NO 76 0 min 0,000 mm 0,0 UV-I 0 W/m 7,4 C 9,3 C 9,7 km/h (2 Bft) 96,23 %
17.05.2019 00:30 9,3 C 13,3 C 8,3 C 88 % 1011,1 hPa 0,0 l/m 7,8 km/h (2 Bft) O-NO 71 0 min 0,000 mm 0,0 UV-I 0 W/m 7,4 C 8,3 C 12,9 km/h (3 Bft) 97,37 %
17.05.2019 00:32 9,3 C 13,3 C 8,3 C 88 % 1011,0 hPa 0,0 l/m 8,2 km/h (2 Bft) O 82 0 min 0,000 mm 0,0 UV-I 0 W/m 7,4 C 8,0 C 12,9 km/h (3 Bft) 97,44 %
17.05.2019 00:34 9,3 C 13,3 C 8,3 C 88 % 1011,0 hPa 0,0 l/m 7,4 km/h (2 Bft) O-NO 77 0 min 0,000 mm 0,0 UV-I 0 W/m 7,4 C 8,6 C 11,3 km/h (2 Bft) 98,11 %
17.05.2019 00:36 9,2 C 12,8 C 8,3 C 88 % 1011,0 hPa 0,0 l/m 10,3 km/h (2 Bft) O-NO 67 0 min 0,000 mm 0,0 UV-I 0 W/m 7,3 C 6,5 C 16,1 km/h (3 Bft) 98,00 %
17.05.2019 00:38 9,2 C 12,8 C 8,3 C 88 % 1010,9 hPa 0,0 l/m 7,8 km/h (2 Bft) O-NO 71 0 min 0,000 mm 0,0 UV-I 0 W/m 7,3 C 8,2 C 11,3 km/h (2 Bft) 100,00 %
17.05.2019 00:40 9,2 C 12,8 C 7,8 C 88 % 1011,0 hPa 0,0 l/m 8,6 km/h (2 Bft) O-NO 75 0 min 0,000 mm 0,0 UV-I 0 W/m 7,3 C 7,6 C 12,9 km/h (3 Bft) 100,00 %
17.05.2019 00:42 9,2 C 12,8 C 7,8 C 88 % 1010,9 hPa 0,0 l/m 10,5 km/h (2 Bft) O-NO 64 0 min 0,000 mm 0,0 UV-I 0 W/m 7,3 C 6,4 C 12,9 km/h (3 Bft) 100,00 %
17.05.2019 00:44 9,2 C 12,8 C 7,8 C 88 % 1010,9 hPa 0,0 l/m 7,5 km/h (2 Bft) O-NO 67 0 min 0,000 mm 0,0 UV-I 0 W/m 7,3 C 8,4 C 11,3 km/h (2 Bft) 96,23 %
17.05.2019 00:46 9,1 C 12,8 C 7,8 C 88 % 1010,9 hPa 0,0 l/m 7,7 km/h (2 Bft) O 88 0 min 0,000 mm 0,0 UV-I 0 W/m 7,2 C 8,1 C 12,9 km/h (3 Bft) 100,00 %
17.05.2019 00:48 9,1 C 12,8 C 7,2 C 89 % 1010,9 hPa 0,0 l/m 6,2 km/h (2 Bft) O 95 0 min 0,000 mm 0,0 UV-I 0 W/m 7,4 C 9,1 C 11,3 km/h (2 Bft) 100,00 %
17.05.2019 00:50 8,9 C 12,8 C 7,2 C 89 % 1010,9 hPa 0,0 l/m 8,8 km/h (2 Bft) O 97 0 min 0,000 mm 0,0 UV-I 0 W/m 7,2 C 7,1 C 12,9 km/h (3 Bft) 100,00 %
17.05.2019 00:52 8,9 C 12,8 C 7,2 C 89 % 1010,8 hPa 0,0 l/m 6,0 km/h (2 Bft) O 94 0 min 0,000 mm 0,0 UV-I 0 W/m 7,2 C 8,9 C 9,7 km/h (2 Bft) 97,87 %
17.05.2019 00:54 8,9 C 12,8 C 7,2 C 89 % 1010,8 hPa 0,0 l/m 10,4 km/h (2 Bft) O-SO 105 0 min 0,000 mm 0,0 UV-I 0 W/m 7,2 C 6,1 C 16,1 km/h (3 Bft) 95,74 %
17.05.2019 00:56 8,9 C 12,8 C 6,7 C 89 % 1010,8 hPa 0,0 l/m 8,6 km/h (2 Bft) O-SO 103 0 min 0,000 mm 0,0 UV-I 0 W/m 7,2 C 7,3 C 12,9 km/h (3 Bft) 100,00 %
17.05.2019 00:58 8,8 C 12,8 C 6,7 C 89 % 1010,8 hPa 0,0 l/m 8,0 km/h (2 Bft) O 90 0 min 0,000 mm 0,0 UV-I 0 W/m 7,1 C 7,6 C 12,9 km/h (3 Bft) 100,00 %
17.05.2019 01:00 8,8 C 12,8 C 6,7 C 89 % 1010,8 hPa 0,0 l/m 7,7 km/h (2 Bft) O 83 0 min 0,000 mm 0,0 UV-I 0 W/m 7,1 C 7,8 C 14,5 km/h (3 Bft) 98,11 %
17.05.2019 01:02 8,8 C 12,8 C 6,7 C 89 % 1010,8 hPa 0,0 l/m 7,0 km/h (2 Bft) O-NO 69 0 min 0,000 mm 0,0 UV-I 0 W/m 7,1 C 8,3 C 11,3 km/h (2 Bft) 100,00 %
17.05.2019 01:04 8,7 C 12,8 C 6,7 C 89 % 1010,8 hPa 0,0 l/m 5,6 km/h (1 Bft) O-NO 61 0 min 0,000 mm 0,0 UV-I 0 W/m 7,0 C 8,7 C 12,9 km/h (3 Bft) 98,73 %
17.05.2019 01:06 8,7 C 12,8 C 6,1 C 89 % 1010,8 hPa 0,0 l/m 6,1 km/h (2 Bft) O 99 0 min 0,000 mm 0,0 UV-I 0 W/m 7,0 C 8,7 C 9,7 km/h (2 Bft) 100,00 %
17.05.2019 01:08 8,6 C 12,8 C 6,1 C 89 % 1010,8 hPa 0,0 l/m 6,8 km/h (2 Bft) O 88 0 min 0,000 mm 0,0 UV-I 0 W/m 6,9 C 8,3 C 9,7 km/h (2 Bft) 96,36 %
17.05.2019 01:10 8,6 C 12,8 C 6,1 C 90 % 1010,8 hPa 0,0 l/m 5,7 km/h (1 Bft) O-NO 65 0 min 0,000 mm 0,0 UV-I 0 W/m 7,1 C 8,6 C 11,3 km/h (2 Bft) 100,00 %
17.05.2019 01:12 8,6 C 12,8 C 6,1 C 90 % 1010,8 hPa 0,0 l/m 5,1 km/h (1 Bft) O-NO 69 0 min 0,000 mm 0,0 UV-I 0 W/m 7,1 C 8,6 C 9,7 km/h (2 Bft) 94,34 %
17.05.2019 01:14 8,5 C 12,8 C 6,1 C 89 % 1010,7 hPa 0,0 l/m 4,1 km/h (1 Bft) O 94 0 min 0,000 mm 0,0 UV-I 0 W/m 6,8 C 8,5 C 6,4 km/h (2 Bft) 95,74 %
17.05.2019 01:16 8,4 C 12,8 C 6,1 C 90 % 1010,8 hPa 0,0 l/m 5,0 km/h (1 Bft) O 97 0 min 0,000 mm 0,0 UV-I 0 W/m 6,9 C 8,4 C 6,4 km/h (2 Bft) 97,56 %
17.05.2019 01:18 8,4 C 12,8 C 5,6 C 90 % 1010,7 hPa 0,0 l/m 4,7 km/h (1 Bft) O-SO 105 0 min 0,000 mm 0,0 UV-I 0 W/m 6,9 C 8,4 C 9,7 km/h (2 Bft) 96,23 %
17.05.2019 01:20 8,3 C 12,8 C 5,6 C 90 % 1010,7 hPa 0,0 l/m 4,5 km/h (1 Bft) O 90 0 min 0,000 mm 0,0 UV-I 0 W/m 6,8 C 8,3 C 6,4 km/h (2 Bft) 92,11 %
17.05.2019 01:22 8,3 C 12,8 C 5,6 C 90 % 1010,7 hPa 0,0 l/m 3,6 km/h (1 Bft) O-NO 73 0 min 0,000 mm 0,0 UV-I 0 W/m 6,8 C 8,3 C 4,8 km/h (1 Bft) 96,00 %
17.05.2019 01:24 8,3 C 12,8 C 5,6 C 90 % 1010,7 hPa 0,0 l/m 4,3 km/h (1 Bft) O-NO 67 0 min 0,000 mm 0,0 UV-I 0 W/m 6,8 C 8,3 C 6,4 km/h (2 Bft) 94,64 %
17.05.2019 01:26 8,2 C 12,8 C 5,6 C 90 % 1010,7 hPa 0,0 l/m 4,2 km/h (1 Bft) O-NO 62 0 min 0,000 mm 0,0 UV-I 0 W/m 6,7 C 8,2 C 6,4 km/h (2 Bft) 95,74 %
17.05.2019 01:28 8,2 C 12,8 C 5,6 C 90 % 1010,6 hPa 0,0 l/m 4,7 km/h (1 Bft) O-NO 71 0 min 0,000 mm 0,0 UV-I 0 W/m 6,7 C 8,2 C 6,4 km/h (2 Bft) 93,62 %
17.05.2019 01:30 8,2 C 12,8 C 5,6 C 91 % 1010,6 hPa 0,0 l/m 5,5 km/h (1 Bft) O-NO 75 0 min 0,000 mm 0,0 UV-I 0 W/m 6,8 C 8,2 C 8,0 km/h (2 Bft) 94,74 %
17.05.2019 01:32 8,2 C 12,8 C 5,6 C 90 % 1010,6 hPa 0,0 l/m 5,5 km/h (1 Bft) O-SO 107 0 min 0,000 mm 0,0 UV-I 0 W/m 6,7 C 8,2 C 8,0 km/h (2 Bft) 93,62 %
17.05.2019 01:34 8,2 C 12,8 C 5,6 C 90 % 1010,6 hPa 0,0 l/m 3,8 km/h (1 Bft) O-NO 76 0 min 0,000 mm 0,0 UV-I 0 W/m 6,7 C 8,2 C 6,4 km/h (2 Bft) 95,74 %
17.05.2019 01:36 8,2 C 12,8 C 5,6 C 90 % 1010,6 hPa 0,0 l/m 5,5 km/h (1 Bft) O 82 0 min 0,000 mm 0,0 UV-I 0 W/m 6,7 C 8,2 C 9,7 km/h (2 Bft) 96,23 %
17.05.2019 01:38 8,2 C 12,8 C 6,1 C 90 % 1010,6 hPa 0,0 l/m 5,2 km/h (1 Bft) O-NO 62 0 min 0,000 mm 0,0 UV-I 0 W/m 6,7 C 8,2 C 8,0 km/h (2 Bft) 94,29 %
17.05.2019 01:40 8,2 C 12,8 C 6,1 C 90 % 1010,6 hPa 0,0 l/m 4,8 km/h (1 Bft) O-NO 72 0 min 0,000 mm 0,0 UV-I 0 W/m 6,7 C 8,2 C 6,4 km/h (2 Bft) 98,00 %
17.05.2019 01:42 8,2 C 12,8 C 6,1 C 90 % 1010,6 hPa 0,0 l/m 3,5 km/h (1 Bft) O 92 0 min 0,000 mm 0,0 UV-I 0 W/m 6,7 C 8,2 C 4,8 km/h (1 Bft) 98,15 %
17.05.2019 01:44 8,2 C 12,8 C 6,1 C 90 % 1010,6 hPa 0,0 l/m 4,2 km/h (1 Bft) O 93 0 min 0,000 mm 0,0 UV-I 0 W/m 6,7 C 8,2 C 6,4 km/h (2 Bft) 100,00 %
17.05.2019 01:46 8,2 C 12,8 C 6,1 C 90 % 1010,6 hPa 0,0 l/m 4,0 km/h (1 Bft) O-NO 67 0 min 0,000 mm 0,0 UV-I 0 W/m 6,7 C 8,2 C 8,0 km/h (2 Bft) 98,46 %
17.05.2019 01:48 8,1 C 12,8 C 5,6 C 90 % 1010,6 hPa 0,0 l/m 3,5 km/h (1 Bft) O 90 0 min 0,000 mm 0,0 UV-I 0 W/m 6,6 C 8,1 C 6,4 km/h (2 Bft) 98,11 %
17.05.2019 01:50 8,1 C 12,8 C 5,6 C 90 % 1010,5 hPa 0,0 l/m 5,5 km/h (1 Bft) O-NO 76 0 min 0,000 mm 0,0 UV-I 0 W/m 6,6 C 8,1 C 8,0 km/h (2 Bft) 100,00 %
17.05.2019 01:52 8,1 C 12,8 C 5,6 C 90 % 1010,6 hPa 0,0 l/m 5,4 km/h (1 Bft) O-NO 74 0 min 0,000 mm 0,0 UV-I 0 W/m 6,6 C 8,1 C 8,0 km/h (2 Bft) 95,74 %
17.05.2019 01:54 8,1 C 12,8 C 5,6 C 90 % 1010,5 hPa 0,0 l/m 6,2 km/h (2 Bft) O-NO 65 0 min 0,000 mm 0,0 UV-I 0 W/m 6,6 C 8,1 C 11,3 km/h (2 Bft) 100,00 %
17.05.2019 01:56 8,1 C 12,8 C 6,1 C 90 % 1010,5 hPa 0,0 l/m 7,1 km/h (2 Bft) O 84 0 min 0,000 mm 0,0 UV-I 0 W/m 6,6 C 7,6 C 11,3 km/h (2 Bft) 100,00 %
17.05.2019 01:58 8,1 C 12,8 C 6,1 C 90 % 1010,5 hPa 0,0 l/m 6,8 km/h (2 Bft) O-NO 61 0 min 0,000 mm 0,0 UV-I 0 W/m 6,6 C 7,8 C 11,3 km/h (2 Bft) 98,11 %
17.05.2019 02:00 8,1 C 12,8 C 6,1 C 90 % 1010,5 hPa 0,0 l/m 5,4 km/h (1 Bft) O-NO 67 0 min 0,000 mm 0,0 UV-I 0 W/m 6,6 C 8,1 C 8,0 km/h (2 Bft) 97,56 %
17.05.2019 02:02 8,2 C 12,8 C 6,1 C 90 % 1010,5 hPa 0,0 l/m 6,8 km/h (2 Bft) O 87 0 min 0,000 mm 0,0 UV-I 0 W/m 6,7 C 7,9 C 11,3 km/h (2 Bft) 100,00 %
17.05.2019 02:04 8,2 C 12,8 C 6,1 C 90 % 1010,5 hPa 0,0 l/m 6,6 km/h (2 Bft) O 80 0 min 0,000 mm 0,0 UV-I 0 W/m 6,7 C 8,1 C 11,3 km/h (2 Bft) 100,00 %
17.05.2019 02:06 8,2 C 12,8 C 6,1 C 90 % 1010,4 hPa 0,0 l/m 6,5 km/h (2 Bft) O-NO 67 0 min 0,000 mm 0,0 UV-I 0 W/m 6,7 C 8,1 C 11,3 km/h (2 Bft) 100,00 %
17.05.2019 02:08 8,2 C 12,8 C 6,1 C 90 % 1010,5 hPa 0,0 l/m 5,4 km/h (1 Bft) O-NO 78 0 min 0,000 mm 0,0 UV-I 0 W/m 6,7 C 8,2 C 9,7 km/h (2 Bft) 100,00 %
17.05.2019 02:10 8,2 C 12,8 C 6,7 C 90 % 1010,5 hPa 0,0 l/m 8,6 km/h (2 Bft) O 80 0 min 0,000 mm 0,0 UV-I 0 W/m 6,7 C 6,5 C 11,3 km/h (2 Bft) 100,00 %
17.05.2019 02:12 8,2 C 12,8 C 6,7 C 90 % 1010,4 hPa 0,0 l/m 8,9 km/h (2 Bft) O 93 0 min 0,000 mm 0,0 UV-I 0 W/m 6,7 C 6,3 C 14,5 km/h (3 Bft) 100,00 %
17.05.2019 02:14 8,2 C 12,8 C 6,7 C 90 % 1010,3 hPa 0,0 l/m 7,4 km/h (2 Bft) O-NO 57 0 min 0,000 mm 0,0 UV-I 0 W/m 6,7 C 7,4 C 11,3 km/h (2 Bft) 97,62 %
17.05.2019 02:16 8,2 C 12,8 C 6,7 C 90 % 1010,4 hPa 0,0 l/m 7,2 km/h (2 Bft) O-NO 66 0 min 0,000 mm 0,0 UV-I 0 W/m 6,7 C 7,6 C 14,5 km/h (3 Bft) 98,18 %
17.05.2019 02:18 8,2 C 12,8 C 6,7 C 90 % 1010,3 hPa 0,0 l/m 8,1 km/h (2 Bft) O 83 0 min 0,000 mm 0,0 UV-I 0 W/m 6,7 C 6,9 C 12,9 km/h (3 Bft) 98,00 %
17.05.2019 02:20 8,2 C 12,8 C 6,7 C 90 % 1010,3 hPa 0,0 l/m 7,4 km/h (2 Bft) O 96 0 min 0,000 mm 0,0 UV-I 0 W/m 6,7 C 7,4 C 12,9 km/h (3 Bft) 97,92 %
17.05.2019 02:22 8,2 C 12,8 C 6,7 C 90 % 1010,3 hPa 0,0 l/m 6,1 km/h (2 Bft) O-NO 78 0 min 0,000 mm 0,0 UV-I 0 W/m 6,7 C 8,2 C 11,3 km/h (2 Bft) 100,00 %
17.05.2019 02:24 8,2 C 12,8 C 6,7 C 90 % 1010,3 hPa 0,0 l/m 7,3 km/h (2 Bft) O 85 0 min 0,000 mm 0,0 UV-I 0 W/m 6,7 C 7,5 C 11,3 km/h (2 Bft) 100,00 %
17.05.2019 02:26 8,2 C 12,8 C 6,7 C 90 % 1010,2 hPa 0,0 l/m 7,0 km/h (2 Bft) O 90 0 min 0,000 mm 0,0 UV-I 0 W/m 6,7 C 7,7 C 11,3 km/h (2 Bft) 100,00 %
17.05.2019 02:28 8,2 C 12,8 C 6,7 C 90 % 1010,2 hPa 0,0 l/m 6,4 km/h (2 Bft) O-NO 69 0 min 0,000 mm 0,0 UV-I 0 W/m 6,7 C 8,2 C 11,3 km/h (2 Bft) 100,00 %
17.05.2019 02:30 8,1 C 12,8 C 6,7 C 90 % 1010,1 hPa 0,0 l/m 6,9 km/h (2 Bft) O-NO 67 0 min 0,000 mm 0,0 UV-I 0 W/m 6,6 C 7,7 C 11,3 km/h (2 Bft) 98,00 %
17.05.2019 02:32 8,1 C 12,8 C 6,7 C 90 % 1010,2 hPa 0,0 l/m 5,7 km/h (1 Bft) O-NO 71 0 min 0,000 mm 0,0 UV-I 0 W/m 6,6 C 8,1 C 8,0 km/h (2 Bft) 97,87 %
17.05.2019 02:34 8,1 C 12,8 C 6,7 C 90 % 1010,2 hPa 0,0 l/m 6,6 km/h (2 Bft) O 88 0 min 0,000 mm 0,0 UV-I 0 W/m 6,6 C 8,0 C 11,3 km/h (2 Bft) 100,00 %
17.05.2019 02:36 8,1 C 12,8 C 6,7 C 90 % 1010,2 hPa 0,0 l/m 7,9 km/h (2 Bft) O 81 0 min 0,000 mm 0,0 UV-I 0 W/m 6,6 C 6,9 C 14,5 km/h (3 Bft) 97,73 %
17.05.2019 02:38 8,1 C 12,8 C 6,7 C 90 % 1010,1 hPa 0,0 l/m 7,4 km/h (2 Bft) NO 54 0 min 0,000 mm 0,0 UV-I 0 W/m 6,6 C 7,3 C 12,9 km/h (3 Bft) 97,73 %
17.05.2019 02:40 8,0 C 12,8 C 6,7 C 90 % 1010,1 hPa 0,0 l/m 7,4 km/h (2 Bft) O-NO 62 0 min 0,000 mm 0,0 UV-I 0 W/m 6,5 C 7,2 C 11,3 km/h (2 Bft) 96,00 %
17.05.2019 02:42 7,9 C 12,8 C 6,7 C 90 % 1010,1 hPa 0,0 l/m 6,7 km/h (2 Bft) O-NO 74 0 min 0,000 mm 0,0 UV-I 0 W/m 6,4 C 7,7 C 11,3 km/h (2 Bft) 97,56 %
17.05.2019 02:44 7,9 C 12,8 C 6,7 C 90 % 1010,1 hPa 0,0 l/m 7,2 km/h (2 Bft) O-NO 74 0 min 0,000 mm 0,0 UV-I 0 W/m 6,4 C 7,3 C 11,3 km/h (2 Bft) 98,11 %
17.05.2019 02:46 7,9 C 12,8 C 6,7 C 90 % 1010,1 hPa 0,0 l/m 7,7 km/h (2 Bft) O-NO 76 0 min 0,000 mm 0,0 UV-I 0 W/m 6,4 C 6,9 C 12,9 km/h (3 Bft) 98,00 %
17.05.2019 02:48 7,9 C 12,8 C 6,7 C 91 % 1010,1 hPa 0,0 l/m 6,1 km/h (2 Bft) O-NO 76 0 min 0,000 mm 0,0 UV-I 0 W/m 6,5 C 7,9 C 9,7 km/h (2 Bft) 97,87 %
17.05.2019 02:50 7,9 C 12,8 C 6,7 C 91 % 1010,1 hPa 0,0 l/m 7,9 km/h (2 Bft) O-NO 65 0 min 0,000 mm 0,0 UV-I 0 W/m 6,5 C 6,7 C 12,9 km/h (3 Bft) 97,87 %
17.05.2019 02:52 7,9 C 12,8 C 6,7 C 91 % 1010,1 hPa 0,0 l/m 7,3 km/h (2 Bft) O 85 0 min 0,000 mm 0,0 UV-I 0 W/m 6,5 C 7,2 C 11,3 km/h (2 Bft) 97,44 %
17.05.2019 02:54 7,9 C 12,8 C 6,7 C 91 % 1010,1 hPa 0,0 l/m 6,6 km/h (2 Bft) O-NO 69 0 min 0,000 mm 0,0 UV-I 0 W/m 6,5 C 7,8 C 12,9 km/h (3 Bft) 98,11 %
17.05.2019 02:56 7,9 C 12,8 C 7,2 C 91 % 1010,1 hPa 0,0 l/m 7,8 km/h (2 Bft) O 81 0 min 0,000 mm 0,0 UV-I 0 W/m 6,5 C 6,8 C 11,3 km/h (2 Bft) 97,87 %
17.05.2019 02:58 7,9 C 12,8 C 7,2 C 91 % 1010,1 hPa 0,0 l/m 7,0 km/h (2 Bft) O-NO 76 0 min 0,000 mm 0,0 UV-I 0 W/m 6,5 C 7,4 C 11,3 km/h (2 Bft) 97,37 %
17.05.2019 03:00 7,9 C 12,8 C 7,2 C 91 % 1010,1 hPa 0,0 l/m 6,9 km/h (2 Bft) O 79 0 min 0,000 mm 0,0 UV-I 0 W/m 6,5 C 7,5 C 11,3 km/h (2 Bft) 100,00 %
17.05.2019 03:02 7,9 C 12,8 C 7,2 C 91 % 1010,1 hPa 0,0 l/m 8,5 km/h (2 Bft) O-NO 70 0 min 0,000 mm 0,0 UV-I 0 W/m 6,5 C 6,3 C 12,9 km/h (3 Bft) 98,11 %
17.05.2019 03:04 7,9 C 12,8 C 7,2 C 91 % 1010,0 hPa 0,0 l/m 8,5 km/h (2 Bft) O 82 0 min 0,000 mm 0,0 UV-I 0 W/m 6,5 C 6,3 C 12,9 km/h (3 Bft) 100,00 %
17.05.2019 03:06 7,9 C 12,8 C 7,2 C 91 % 1010,0 hPa 0,0 l/m 7,4 km/h (2 Bft) O 93 0 min 0,000 mm 0,0 UV-I 0 W/m 6,5 C 7,1 C 11,3 km/h (2 Bft) 100,00 %
17.05.2019 03:08 7,9 C 12,8 C 7,2 C 91 % 1010,0 hPa 0,0 l/m 7,4 km/h (2 Bft) O-NO 65 0 min 0,000 mm 0,0 UV-I 0 W/m 6,5 C 7,1 C 11,3 km/h (2 Bft) 100,00 %
17.05.2019 03:10 7,8 C 12,8 C 6,7 C 91 % 1010,0 hPa 0,0 l/m 7,2 km/h (2 Bft) O-NO 71 0 min 0,000 mm 0,0 UV-I 0 W/m 6,4 C 7,2 C 11,3 km/h (2 Bft) 100,00 %
17.05.2019 03:12 7,8 C 12,8 C 6,7 C 91 % 1009,9 hPa 0,0 l/m 7,1 km/h (2 Bft) O-NO 69 0 min 0,000 mm 0,0 UV-I 0 W/m 6,4 C 7,2 C 11,3 km/h (2 Bft) 97,73 %
17.05.2019 03:14 7,8 C 12,8 C 6,7 C 91 % 1009,9 hPa 0,0 l/m 5,6 km/h (1 Bft) O 91 0 min 0,000 mm 0,0 UV-I 0 W/m 6,4 C 7,8 C 11,3 km/h (2 Bft) 95,83 %
17.05.2019 03:16 7,8 C 12,8 C 6,7 C 91 % 1009,9 hPa 0,0 l/m 5,5 km/h (1 Bft) O-NO 67 0 min 0,000 mm 0,0 UV-I 0 W/m 6,4 C 7,8 C 8,0 km/h (2 Bft) 95,38 %
17.05.2019 03:18 7,7 C 12,8 C 6,7 C 91 % 1009,9 hPa 0,0 l/m 4,8 km/h (1 Bft) O-NO 59 0 min 0,000 mm 0,0 UV-I 0 W/m 6,3 C 7,7 C 8,0 km/h (2 Bft) 95,92 %
17.05.2019 03:20 7,7 C 12,8 C 6,1 C 91 % 1009,9 hPa 0,0 l/m 5,4 km/h (1 Bft) O-NO 78 0 min 0,000 mm 0,0 UV-I 0 W/m 6,3 C 7,7 C 6,4 km/h (2 Bft) 95,24 %
17.05.2019 03:22 7,6 C 12,8 C 6,1 C 91 % 1009,9 hPa 0,0 l/m 5,8 km/h (2 Bft) O-NO 77 0 min 0,000 mm 0,0 UV-I 0 W/m 6,2 C 7,6 C 8,0 km/h (2 Bft) 91,49 %
17.05.2019 03:24 7,6 C 12,8 C 6,1 C 92 % 1009,9 hPa 0,0 l/m 6,0 km/h (2 Bft) O 79 0 min 0,000 mm 0,0 UV-I 0 W/m 6,4 C 7,6 C 8,0 km/h (2 Bft) 95,74 %
17.05.2019 03:27 7,4 C 12,8 C 6,1 C 92 % 1009,9 hPa 0,0 l/m 6,4 km/h (2 Bft) O-NO 71 0 min 0,000 mm 0,0 UV-I 0 W/m 6,2 C 7,4 C 9,7 km/h (2 Bft) 96,20 %
17.05.2019 03:28 7,4 C 12,8 C 6,1 C 92 % 1009,9 hPa 0,0 l/m 4,7 km/h (1 Bft) O-NO 76 0 min 0,000 mm 0,0 UV-I 0 W/m 6,2 C 7,4 C 4,8 km/h (1 Bft) 100,00 %
17.05.2019 03:30 7,4 C 12,8 C 5,6 C 92 % 1009,9 hPa 0,0 l/m 3,2 km/h (1 Bft) O-NO 75 0 min 0,000 mm 0,0 UV-I 0 W/m 6,2 C 7,4 C 4,8 km/h (1 Bft) 90,00 %
17.05.2019 03:32 7,3 C 12,8 C 5,6 C 92 % 1009,9 hPa 0,0 l/m 4,3 km/h (1 Bft) O 83 0 min 0,000 mm 0,0 UV-I 0 W/m 6,1 C 7,3 C 6,4 km/h (2 Bft) 95,74 %
17.05.2019 03:34 7,3 C 12,8 C 5,6 C 92 % 1009,8 hPa 0,0 l/m 4,6 km/h (1 Bft) O 80 0 min 0,000 mm 0,0 UV-I 0 W/m 6,1 C 7,3 C 6,4 km/h (2 Bft) 94,34 %
17.05.2019 03:36 7,2 C 12,8 C 5,0 C 92 % 1009,8 hPa 0,0 l/m 4,8 km/h (1 Bft) O-NO 75 0 min 0,000 mm 0,0 UV-I 0 W/m 6,0 C 7,2 C 6,4 km/h (2 Bft) 95,74 %
17.05.2019 03:38 7,2 C 12,8 C 5,0 C 92 % 1009,8 hPa 0,0 l/m 3,7 km/h (1 Bft) O-NO 76 0 min 0,000 mm 0,0 UV-I 0 W/m 6,0 C 7,2 C 6,4 km/h (2 Bft) 95,74 %
17.05.2019 03:41 7,1 C 12,8 C 5,0 C 92 % 1009,8 hPa 0,0 l/m 5,5 km/h (1 Bft) O 84 0 min 0,000 mm 0,0 UV-I 0 W/m 5,9 C 7,1 C 8,0 km/h (2 Bft) 93,55 %
17.05.2019 03:42 7,1 C 12,8 C 5,0 C 92 % 1009,8 hPa 0,0 l/m 5,0 km/h (1 Bft) O-NO 67 0 min 0,000 mm 0,0 UV-I 0 W/m 5,9 C 7,1 C 6,4 km/h (2 Bft) 100,00 %
17.05.2019 03:46 7,1 C 12,8 C 5,0 C 92 % 1009,7 hPa 0,0 l/m 5,9 km/h (2 Bft) O-NO 67 0 min 0,000 mm 0,0 UV-I 0 W/m 5,9 C 7,1 C 11,3 km/h (2 Bft) 93,94 %
17.05.2019 03:48 7,1 C 12,8 C 5,0 C 93 % 1009,7 hPa 0,0 l/m 7,2 km/h (2 Bft) O 88 0 min 0,000 mm 0,0 UV-I 0 W/m 6,0 C 6,4 C 11,3 km/h (2 Bft) 97,92 %
17.05.2019 03:50 7,0 C 12,8 C 5,0 C 93 % 1009,7 hPa 0,0 l/m 6,6 km/h (2 Bft) O 84 0 min 0,000 mm 0,0 UV-I 0 W/m 5,9 C 6,9 C 11,3 km/h (2 Bft) 95,74 %
17.05.2019 03:52 6,9 C 12,8 C 5,0 C 92 % 1009,7 hPa 0,0 l/m 5,6 km/h (1 Bft) O 89 0 min 0,000 mm 0,0 UV-I 0 W/m 5,7 C 6,9 C 9,7 km/h (2 Bft) 100,00 %
17.05.2019 03:55 6,8 C 12,8 C 4,4 C 93 % 1009,7 hPa 0,0 l/m 5,1 km/h (1 Bft) O 96 0 min 0,000 mm 0,0 UV-I 0 W/m 5,7 C 6,8 C 9,7 km/h (2 Bft) 96,05 %
17.05.2019 03:56 6,8 C 12,8 C 4,4 C 93 % 1009,7 hPa 0,0 l/m 6,1 km/h (2 Bft) O 80 0 min 0,000 mm 0,0 UV-I 0 W/m 5,7 C 6,8 C 9,7 km/h (2 Bft) 91,67 %
17.05.2019 03:58 6,7 C 12,8 C 4,4 C 93 % 1009,7 hPa 0,0 l/m 4,3 km/h (1 Bft) O 86 0 min 0,000 mm 0,0 UV-I 0 W/m 5,6 C 6,7 C 6,4 km/h (2 Bft) 95,74 %
17.05.2019 04:00 6,7 C 12,8 C 4,4 C 93 % 1009,7 hPa 0,0 l/m 3,7 km/h (1 Bft) O 88 0 min 0,000 mm 0,0 UV-I 0 W/m 5,6 C 6,7 C 4,8 km/h (1 Bft) 96,00 %
17.05.2019 04:02 6,7 C 12,8 C 4,4 C 93 % 1009,6 hPa 0,0 l/m 3,2 km/h (1 Bft) O 84 0 min 0,000 mm 0,0 UV-I 0 W/m 5,6 C 6,7 C 4,8 km/h (1 Bft) 92,59 %
17.05.2019 04:05 6,7 C 12,8 C 3,9 C 93 % 1009,6 hPa 0,0 l/m 4,5 km/h (1 Bft) O 90 0 min 0,000 mm 0,0 UV-I 0 W/m 5,6 C 6,7 C 6,4 km/h (2 Bft) 94,67 %
17.05.2019 04:06 6,7 C 12,8 C 3,9 C 93 % 1009,6 hPa 0,0 l/m 4,7 km/h (1 Bft) O-NO 76 0 min 0,000 mm 0,0 UV-I 0 W/m 5,6 C 6,7 C 6,4 km/h (2 Bft) 95,83 %
17.05.2019 04:08 6,7 C 12,8 C 3,9 C 93 % 1009,6 hPa 0,0 l/m 4,1 km/h (1 Bft) O-NO 74 0 min 0,000 mm 0,0 UV-I 0 W/m 5,6 C 6,7 C 6,4 km/h (2 Bft) 95,45 %
17.05.2019 04:10 6,6 C 12,8 C 3,9 C 93 % 1009,6 hPa 0,0 l/m 3,7 km/h (1 Bft) O 84 0 min 0,000 mm 0,0 UV-I 0 W/m 5,6 C 6,6 C 6,4 km/h (2 Bft) 96,23 %
17.05.2019 04:11 6,6 C 12,8 C 3,9 C 93 % 1009,6 hPa 0,0 l/m 4,1 km/h (1 Bft) O 80 0 min 0,000 mm 0,0 UV-I 0 W/m 5,6 C 6,6 C 6,4 km/h (2 Bft) 93,10 %
17.05.2019 04:12 6,6 C 12,8 C 3,9 C 93 % 1009,5 hPa 0,0 l/m 4,5 km/h (1 Bft) O 80 0 min 0,000 mm 0,0 UV-I 0 W/m 5,6 C 6,6 C 6,4 km/h (2 Bft) 100,00 %
17.05.2019 04:14 6,5 C 12,8 C 3,9 C 93 % 1009,6 hPa 0,0 l/m 3,4 km/h (1 Bft) O 80 0 min 0,000 mm 0,0 UV-I 0 W/m 5,5 C 6,5 C 6,4 km/h (2 Bft) 95,12 %
17.05.2019 04:16 6,5 C 12,8 C 3,3 C 93 % 1009,5 hPa 0,0 l/m 3,0 km/h (1 Bft) O 79 0 min 0,000 mm 0,0 UV-I 0 W/m 5,5 C 6,5 C 4,8 km/h (1 Bft) 96,23 %
17.05.2019 04:18 6,5 C 12,8 C 3,3 C 94 % 1009,5 hPa 0,0 l/m 3,0 km/h (1 Bft) O 80 0 min 0,000 mm 0,0 UV-I 0 W/m 5,6 C 6,5 C 4,8 km/h (1 Bft) 100,00 %
17.05.2019 04:21 6,5 C 12,8 C 3,3 C 94 % 1009,5 hPa 0,0 l/m 3,1 km/h (1 Bft) O 87 0 min 0,000 mm 0,0 UV-I 0 W/m 5,6 C 6,5 C 4,8 km/h (1 Bft) 98,46 %
17.05.2019 04:22 6,6 C 12,8 C 3,3 C 94 % 1009,5 hPa 0,0 l/m 3,1 km/h (1 Bft) O 87 0 min 0,000 mm 0,0 UV-I 0 W/m 5,7 C 6,6 C 4,8 km/h (1 Bft) 100,00 %
17.05.2019 04:24 6,6 C 12,8 C 3,3 C 94 % 1009,5 hPa 0,0 l/m 3,2 km/h (1 Bft) O 87 0 min 0,000 mm 0,0 UV-I 0 W/m 5,7 C 6,6 C 4,8 km/h (1 Bft) 100,00 %
17.05.2019 04:26 6,6 C 12,8 C 3,3 C 94 % 1009,5 hPa 0,0 l/m 3,6 km/h (1 Bft) O 91 0 min 0,000 mm 0,0 UV-I 0 W/m 5,7 C 6,6 C 4,8 km/h (1 Bft) 100,00 %
17.05.2019 04:28 6,6 C 12,8 C 3,3 C 94 % 1009,5 hPa 0,0 l/m 2,7 km/h (1 Bft) O 91 0 min 0,000 mm 0,0 UV-I 0 W/m 5,7 C 6,6 C 4,8 km/h (1 Bft) 95,74 %
17.05.2019 04:31 6,7 C 12,8 C 2,8 C 94 % 1009,5 hPa 0,0 l/m 2,6 km/h (1 Bft) O 91 0 min 0,000 mm 0,0 UV-I 0 W/m 5,8 C 6,7 C 4,8 km/h (1 Bft) 97,40 %
17.05.2019 04:32 6,6 C 12,8 C 2,8 C 94 % 1009,5 hPa 0,0 l/m 2,2 km/h (1 Bft) O 91 0 min 0,000 mm 0,0 UV-I 0 W/m 5,7 C 6,6 C 3,2 km/h (1 Bft) 100,00 %
17.05.2019 04:36 6,5 C 12,8 C 2,8 C 94 % 1009,5 hPa 0,0 l/m 4,1 km/h (1 Bft) O 95 0 min 0,000 mm 0,0 UV-I 0 W/m 5,6 C 6,5 C 6,4 km/h (2 Bft) 98,97 %
17.05.2019 04:37 6,5 C 12,8 C 2,8 C 94 % 1009,5 hPa 0,0 l/m 5,1 km/h (1 Bft) O-SO 105 0 min 0,000 mm 0,0 UV-I 0 W/m 5,6 C 6,5 C 6,4 km/h (2 Bft) 100,00 %
17.05.2019 04:38 6,4 C 12,8 C 2,8 C 94 % 1009,5 hPa 0,0 l/m 5,6 km/h (1 Bft) O 98 0 min 0,000 mm 0,0 UV-I 0 W/m 5,5 C 6,4 C 9,7 km/h (2 Bft) 100,00 %
17.05.2019 04:40 6,4 C 12,8 C 2,8 C 94 % 1009,5 hPa 0,0 l/m 4,0 km/h (1 Bft) O 87 0 min 0,000 mm 0,0 UV-I 0 W/m 5,5 C 6,4 C 6,4 km/h (2 Bft) 100,00 %
17.05.2019 04:42 6,5 C 12,8 C 2,8 C 94 % 1009,5 hPa 0,0 l/m 5,3 km/h (1 Bft) O-NO 76 0 min 0,000 mm 0,0 UV-I 0 W/m 5,6 C 6,5 C 9,7 km/h (2 Bft) 100,00 %
17.05.2019 04:44 6,6 C 12,8 C 2,8 C 94 % 1009,5 hPa 0,0 l/m 3,8 km/h (1 Bft) O 88 0 min 0,000 mm 0,0 UV-I 0 W/m 5,7 C 6,6 C 6,4 km/h (2 Bft) 100,00 %
17.05.2019 04:46 6,6 C 12,8 C 3,3 C 94 % 1009,4 hPa 0,0 l/m 3,6 km/h (1 Bft) O-NO 66 0 min 0,000 mm 0,0 UV-I 0 W/m 5,7 C 6,6 C 4,8 km/h (1 Bft) 100,00 %
17.05.2019 04:48 6,3 C 12,8 C 3,3 C 93 % 1009,4 hPa 0,0 l/m 3,5 km/h (1 Bft) O 87 0 min 0,000 mm 0,0 UV-I 0 W/m 5,3 C 6,3 C 6,4 km/h (2 Bft) 96,00 %
17.05.2019 04:50 6,3 C 12,8 C 3,3 C 94 % 1009,4 hPa 0,0 l/m 3,0 km/h (1 Bft) O-SO 103 0 min 0,000 mm 0,0 UV-I 0 W/m 5,4 C 6,3 C 6,4 km/h (2 Bft) 100,00 %
17.05.2019 04:52 6,3 C 12,8 C 3,3 C 94 % 1009,4 hPa 0,0 l/m 4,0 km/h (1 Bft) O-NO 74 0 min 0,000 mm 0,0 UV-I 0 W/m 5,4 C 6,3 C 4,8 km/h (1 Bft) 100,00 %
17.05.2019 04:54 6,2 C 12,8 C 3,3 C 94 % 1009,4 hPa 0,0 l/m 4,3 km/h (1 Bft) O 81 0 min 0,000 mm 0,0 UV-I 0 W/m 5,3 C 6,2 C 6,4 km/h (2 Bft) 100,00 %
17.05.2019 04:56 6,2 C 12,8 C 3,3 C 94 % 1009,4 hPa 0,0 l/m 3,3 km/h (1 Bft) O 80 0 min 0,000 mm 0,0 UV-I 0 W/m 5,3 C 6,2 C 4,8 km/h (1 Bft) 100,00 %
17.05.2019 04:58 6,2 C 12,8 C 3,3 C 94 % 1009,3 hPa 0,0 l/m 3,6 km/h (1 Bft) O-NO 76 0 min 0,000 mm 0,0 UV-I 0 W/m 5,3 C 6,2 C 6,4 km/h (2 Bft) 100,00 %
17.05.2019 05:00 6,2 C 12,8 C 3,3 C 94 % 1009,3 hPa 0,0 l/m 5,0 km/h (1 Bft) O-NO 66 0 min 0,000 mm 0,0 UV-I 0 W/m 5,3 C 6,2 C 6,4 km/h (2 Bft) 97,87 %
17.05.2019 05:02 6,2 C 12,8 C 3,3 C 94 % 1009,3 hPa 0,0 l/m 4,6 km/h (1 Bft) O-NO 73 0 min 0,000 mm 0,0 UV-I 0 W/m 5,3 C 6,2 C 8,0 km/h (2 Bft) 100,00 %
17.05.2019 05:04 6,2 C 12,8 C 3,3 C 94 % 1009,3 hPa 0,0 l/m 4,3 km/h (1 Bft) O 90 0 min 0,000 mm 0,0 UV-I 0 W/m 5,3 C 6,2 C 6,4 km/h (2 Bft) 100,00 %
17.05.2019 05:06 6,2 C 12,8 C 3,3 C 94 % 1009,2 hPa 0,0 l/m 5,1 km/h (1 Bft) O 90 0 min 0,000 mm 0,0 UV-I 0 W/m 5,3 C 6,2 C 9,7 km/h (2 Bft) 100,00 %
17.05.2019 05:08 6,2 C 12,8 C 3,9 C 94 % 1009,3 hPa 0,0 l/m 4,7 km/h (1 Bft) O 87 0 min 0,000 mm 0,0 UV-I 0 W/m 5,3 C 6,2 C 6,4 km/h (2 Bft) 100,00 %
17.05.2019 05:10 6,2 C 12,8 C 3,9 C 94 % 1009,2 hPa 0,0 l/m 6,4 km/h (2 Bft) O 100 0 min 0,000 mm 0,0 UV-I 3 W/m 5,3 C 6,2 C 11,3 km/h (2 Bft) 100,00 %
17.05.2019 05:12 6,2 C 12,8 C 3,9 C 94 % 1009,2 hPa 0,0 l/m 6,1 km/h (2 Bft) O-NO 74 0 min 0,000 mm 0,0 UV-I 5 W/m 5,3 C 6,2 C 11,3 km/h (2 Bft) 98,00 %
17.05.2019 05:14 6,2 C 12,8 C 3,9 C 94 % 1009,3 hPa 0,0 l/m 6,4 km/h (2 Bft) O 86 0 min 0,000 mm 0,0 UV-I 5 W/m 5,3 C 6,2 C 12,9 km/h (3 Bft) 97,56 %
17.05.2019 05:16 6,2 C 12,8 C 3,9 C 94 % 1009,3 hPa 0,0 l/m 6,0 km/h (2 Bft) O 97 0 min 0,000 mm 0,0 UV-I 5 W/m 5,3 C 6,2 C 9,7 km/h (2 Bft) 94,92 %
17.05.2019 05:18 6,2 C 12,8 C 3,9 C 94 % 1009,2 hPa 0,0 l/m 5,5 km/h (1 Bft) O-NO 74 0 min 0,000 mm 0,0 UV-I 5 W/m 5,3 C 6,2 C 8,0 km/h (2 Bft) 97,37 %
17.05.2019 05:20 6,2 C 12,8 C 3,9 C 94 % 1009,3 hPa 0,0 l/m 5,5 km/h (1 Bft) O 94 0 min 0,000 mm 0,0 UV-I 5 W/m 5,3 C 6,2 C 9,7 km/h (2 Bft) 94,64 %
17.05.2019 05:22 6,2 C 12,8 C 3,9 C 94 % 1009,3 hPa 0,0 l/m 5,1 km/h (1 Bft) O-NO 69 0 min 0,000 mm 0,0 UV-I 7 W/m 5,3 C 6,2 C 6,4 km/h (2 Bft) 89,47 %
17.05.2019 05:24 6,2 C 12,8 C 3,9 C 95 % 1009,3 hPa 0,0 l/m 5,6 km/h (1 Bft) O-NO 78 0 min 0,000 mm 0,0 UV-I 7 W/m 5,5 C 6,2 C 8,0 km/h (2 Bft) 95,74 %
17.05.2019 05:26 6,2 C 12,8 C 3,9 C 94 % 1009,3 hPa 0,0 l/m 5,6 km/h (1 Bft) O 80 0 min 0,000 mm 0,0 UV-I 7 W/m 5,3 C 6,2 C 8,0 km/h (2 Bft) 96,00 %
17.05.2019 05:28 6,2 C 12,8 C 3,9 C 94 % 1009,3 hPa 0,0 l/m 4,9 km/h (1 Bft) O 80 0 min 0,000 mm 0,0 UV-I 8 W/m 5,3 C 6,2 C 8,0 km/h (2 Bft) 94,00 %
17.05.2019 05:30 6,2 C 12,8 C 3,9 C 95 % 1009,4 hPa 0,0 l/m 5,2 km/h (1 Bft) O 88 0 min 0,000 mm 0,0 UV-I 9 W/m 5,5 C 6,2 C 9,7 km/h (2 Bft) 94,00 %
17.05.2019 05:32 6,2 C 12,8 C 4,4 C 95 % 1009,4 hPa 0,0 l/m 5,2 km/h (1 Bft) O-NO 71 0 min 0,000 mm 0,0 UV-I 9 W/m 5,5 C 6,2 C 8,0 km/h (2 Bft) 94,74 %
17.05.2019 05:34 6,2 C 12,8 C 4,4 C 95 % 1009,4 hPa 0,0 l/m 5,9 km/h (2 Bft) O-NO 76 0 min 0,000 mm 0,0 UV-I 10 W/m 5,5 C 6,2 C 9,7 km/h (2 Bft) 97,87 %
17.05.2019 05:36 6,2 C 12,8 C 4,4 C 95 % 1009,4 hPa 0,0 l/m 5,3 km/h (1 Bft) O-NO 78 2 min 0,000 mm 0,0 UV-I 11 W/m 5,5 C 6,2 C 9,7 km/h (2 Bft) 97,78 %
17.05.2019 05:38 6,2 C 12,8 C 4,4 C 94 % 1009,4 hPa 0,0 l/m 4,9 km/h (1 Bft) O 80 0 min 0,000 mm 0,0 UV-I 12 W/m 5,3 C 6,2 C 8,0 km/h (2 Bft) 98,18 %
17.05.2019 05:40 6,2 C 12,8 C 4,4 C 95 % 1009,3 hPa 0,0 l/m 4,4 km/h (1 Bft) O-NO 65 0 min 0,000 mm 0,0 UV-I 14 W/m 5,5 C 6,2 C 6,4 km/h (2 Bft) 97,44 %
17.05.2019 05:42 6,1 C 12,8 C 3,9 C 95 % 1009,3 hPa 0,0 l/m 5,9 km/h (2 Bft) O 83 0 min 0,000 mm 0,0 UV-I 16 W/m 5,4 C 6,1 C 8,0 km/h (2 Bft) 97,87 %
17.05.2019 05:44 6,2 C 12,8 C 4,4 C 95 % 1009,3 hPa 0,0 l/m 5,1 km/h (1 Bft) O-NO 77 0 min 0,000 mm 0,0 UV-I 16 W/m 5,5 C 6,2 C 8,0 km/h (2 Bft) 98,11 %
17.05.2019 05:46 6,1 C 12,8 C 4,4 C 95 % 1009,3 hPa 0,0 l/m 5,8 km/h (2 Bft) O-NO 71 0 min 0,000 mm 0,0 UV-I 17 W/m 5,4 C 6,1 C 8,0 km/h (2 Bft) 97,37 %
17.05.2019 05:48 6,1 C 12,8 C 4,4 C 95 % 1009,3 hPa 0,0 l/m 5,9 km/h (2 Bft) O 80 0 min 0,000 mm 0,0 UV-I 18 W/m 5,4 C 6,1 C 8,0 km/h (2 Bft) 96,00 %
17.05.2019 05:50 6,1 C 12,8 C 4,4 C 95 % 1009,3 hPa 0,0 l/m 5,5 km/h (1 Bft) O-NO 62 0 min 0,000 mm 0,0 UV-I 20 W/m 5,4 C 6,1 C 8,0 km/h (2 Bft) 95,74 %
17.05.2019 05:52 6,1 C 12,8 C 4,4 C 95 % 1009,3 hPa 0,0 l/m 6,1 km/h (2 Bft) O-NO 71 0 min 0,000 mm 0,0 UV-I 19 W/m 5,4 C 6,1 C 11,3 km/h (2 Bft) 100,00 %
17.05.2019 05:54 6,1 C 12,8 C 4,4 C 95 % 1009,3 hPa 0,0 l/m 5,2 km/h (1 Bft) O-NO 71 0 min 0,000 mm 0,0 UV-I 22 W/m 5,4 C 6,1 C 8,0 km/h (2 Bft) 100,00 %
17.05.2019 05:56 6,1 C 12,8 C 5,0 C 95 % 1009,3 hPa 0,0 l/m 5,8 km/h (2 Bft) O 88 0 min 0,000 mm 0,0 UV-I 24 W/m 5,4 C 6,1 C 8,0 km/h (2 Bft) 98,00 %
17.05.2019 05:58 6,2 C 12,8 C 5,6 C 95 % 1009,2 hPa 0,0 l/m 5,9 km/h (2 Bft) O 85 0 min 0,000 mm 0,0 UV-I 25 W/m 5,5 C 6,2 C 8,0 km/h (2 Bft) 100,00 %
17.05.2019 06:00 6,3 C 12,8 C 5,6 C 95 % 1009,2 hPa 0,0 l/m 5,8 km/h (2 Bft) O-NO 74 0 min 0,000 mm 0,0 UV-I 24 W/m 5,6 C 6,3 C 11,3 km/h (2 Bft) 100,00 %
17.05.2019 06:02 6,3 C 12,8 C 6,1 C 95 % 1009,2 hPa 0,0 l/m 6,9 km/h (2 Bft) O-NO 78 0 min 0,000 mm 0,0 UV-I 26 W/m 5,6 C 5,9 C 11,3 km/h (2 Bft) 100,00 %
17.05.2019 06:04 6,4 C 12,8 C 6,1 C 95 % 1009,2 hPa 0,0 l/m 6,4 km/h (2 Bft) O 82 0 min 0,000 mm 0,0 UV-I 27 W/m 5,7 C 6,4 C 11,3 km/h (2 Bft) 100,00 %
17.05.2019 06:06 6,5 C 12,8 C 6,7 C 95 % 1009,2 hPa 0,0 l/m 5,9 km/h (2 Bft) NO 55 0 min 0,000 mm 0,0 UV-I 30 W/m 5,8 C 6,5 C 11,3 km/h (2 Bft) 100,00 %
17.05.2019 06:08 6,6 C 12,8 C 6,7 C 95 % 1009,2 hPa 0,0 l/m 4,2 km/h (1 Bft) NO 51 0 min 0,000 mm 0,0 UV-I 32 W/m 5,9 C 6,6 C 6,4 km/h (2 Bft) 100,00 %
17.05.2019 06:10 6,6 C 12,8 C 6,7 C 95 % 1009,2 hPa 0,0 l/m 4,5 km/h (1 Bft) O 90 0 min 0,000 mm 0,0 UV-I 33 W/m 5,9 C 6,6 C 8,0 km/h (2 Bft) 97,92 %
17.05.2019 06:12 6,6 C 12,8 C 7,2 C 95 % 1009,2 hPa 0,0 l/m 4,0 km/h (1 Bft) O 80 0 min 0,000 mm 0,0 UV-I 36 W/m 5,9 C 6,6 C 6,4 km/h (2 Bft) 100,00 %
17.05.2019 06:14 6,7 C 12,8 C 7,2 C 95 % 1009,1 hPa 0,0 l/m 5,1 km/h (1 Bft) O-NO 70 0 min 0,000 mm 0,0 UV-I 36 W/m 6,0 C 6,7 C 6,4 km/h (2 Bft) 97,44 %
17.05.2019 06:16 6,7 C 12,8 C 7,2 C 95 % 1009,1 hPa 0,0 l/m 5,4 km/h (1 Bft) NO 38 0 min 0,000 mm 0,0 UV-I 37 W/m 6,0 C 6,7 C 9,7 km/h (2 Bft) 100,00 %
17.05.2019 06:18 6,8 C 12,8 C 7,2 C 95 % 1009,2 hPa 0,0 l/m 6,2 km/h (2 Bft) O-NO 78 0 min 0,000 mm 0,0 UV-I 36 W/m 6,1 C 6,8 C 12,9 km/h (3 Bft) 100,00 %
17.05.2019 06:20 6,8 C 12,8 C 7,2 C 95 % 1009,1 hPa 0,0 l/m 8,9 km/h (2 Bft) O-NO 67 0 min 0,000 mm 0,0 UV-I 39 W/m 6,1 C 4,8 C 16,1 km/h (3 Bft) 100,00 %
17.05.2019 06:22 6,9 C 12,8 C 7,2 C 96 % 1009,1 hPa 0,0 l/m 9,2 km/h (2 Bft) NO 54 0 min 0,000 mm 0,0 UV-I 40 W/m 6,3 C 4,7 C 12,9 km/h (3 Bft) 100,00 %
17.05.2019 06:24 6,9 C 12,8 C 7,8 C 95 % 1009,2 hPa 0,0 l/m 10,0 km/h (2 Bft) O-NO 76 0 min 0,000 mm 0,0 UV-I 44 W/m 6,2 C 4,2 C 16,1 km/h (3 Bft) 98,00 %
17.05.2019 06:26 6,9 C 12,8 C 7,8 C 95 % 1009,2 hPa 0,0 l/m 9,3 km/h (2 Bft) O 90 0 min 0,000 mm 0,0 UV-I 46 W/m 6,2 C 4,6 C 12,9 km/h (3 Bft) 98,00 %
17.05.2019 06:28 7,0 C 12,8 C 7,8 C 95 % 1009,2 hPa 0,0 l/m 9,3 km/h (2 Bft) O-SO 105 0 min 0,000 mm 0,0 UV-I 52 W/m 6,3 C 4,8 C 14,5 km/h (3 Bft) 100,00 %
17.05.2019 06:30 7,1 C 12,8 C 7,8 C 95 % 1009,2 hPa 0,0 l/m 11,4 km/h (2 Bft) O-NO 65 0 min 0,000 mm 0,0 UV-I 55 W/m 6,4 C 3,5 C 17,7 km/h (3 Bft) 98,00 %
17.05.2019 06:32 7,1 C 12,8 C 7,8 C 95 % 1009,3 hPa 0,0 l/m 14,2 km/h (3 Bft) O 94 0 min 0,000 mm 0,0 UV-I 55 W/m 6,4 C 2,0 C 19,3 km/h (3 Bft) 100,00 %
17.05.2019 06:34 7,1 C 12,8 C 7,2 C 95 % 1009,3 hPa 0,0 l/m 13,3 km/h (3 Bft) O 90 0 min 0,000 mm 0,0 UV-I 52 W/m 6,4 C 2,5 C 17,7 km/h (3 Bft) 97,73 %
17.05.2019 06:36 7,1 C 12,8 C 7,8 C 95 % 1009,3 hPa 0,0 l/m 12,5 km/h (3 Bft) O-SO 107 0 min 0,000 mm 0,0 UV-I 51 W/m 6,4 C 2,9 C 17,7 km/h (3 Bft) 97,87 %
17.05.2019 06:38 7,1 C 12,8 C 7,8 C 95 % 1009,3 hPa 0,0 l/m 16,8 km/h (3 Bft) O-NO 70 0 min 0,000 mm 0,0 UV-I 50 W/m 6,4 C 0,8 C 22,5 km/h (4 Bft) 97,56 %
17.05.2019 06:40 7,1 C 12,8 C 7,8 C 95 % 1009,3 hPa 0,0 l/m 12,4 km/h (3 Bft) O 97 0 min 0,000 mm 0,0 UV-I 54 W/m 6,4 C 3,0 C 17,7 km/h (3 Bft) 97,87 %
17.05.2019 06:42 7,2 C 12,8 C 7,8 C 95 % 1009,3 hPa 0,0 l/m 13,6 km/h (3 Bft) O-SO 110 0 min 0,000 mm 0,0 UV-I 53 W/m 6,5 C 2,4 C 25,7 km/h (4 Bft) 95,74 %
17.05.2019 06:44 7,2 C 12,8 C 7,8 C 95 % 1009,3 hPa 0,0 l/m 17,6 km/h (3 Bft) O 86 0 min 0,000 mm 0,0 UV-I 53 W/m 6,5 C 0,6 C 24,1 km/h (4 Bft) 97,87 %
17.05.2019 06:46 7,2 C 12,8 C 7,8 C 95 % 1009,3 hPa 0,0 l/m 13,0 km/h (3 Bft) O 90 0 min 0,000 mm 0,0 UV-I 51 W/m 6,5 C 2,7 C 17,7 km/h (3 Bft) 97,78 %
17.05.2019 06:48 7,2 C 12,8 C 8,3 C 95 % 1009,3 hPa 0,0 l/m 10,5 km/h (2 Bft) O-NO 71 0 min 0,000 mm 0,0 UV-I 62 W/m 6,5 C 4,2 C 14,5 km/h (3 Bft) 98,08 %
17.05.2019 06:50 7,3 C 12,8 C 8,3 C 95 % 1009,3 hPa 0,0 l/m 13,1 km/h (3 Bft) O 86 0 min 0,000 mm 0,0 UV-I 72 W/m 6,6 C 2,8 C 20,9 km/h (4 Bft) 97,44 %
17.05.2019 06:52 7,3 C 12,8 C 8,3 C 95 % 1009,3 hPa 0,0 l/m 9,6 km/h (2 Bft) O 96 0 min 0,000 mm 0,0 UV-I 71 W/m 6,6 C 4,9 C 16,1 km/h (3 Bft) 100,00 %
17.05.2019 06:54 7,3 C 12,8 C 8,3 C 95 % 1009,4 hPa 0,0 l/m 10,7 km/h (2 Bft) O 101 0 min 0,000 mm 0,0 UV-I 67 W/m 6,6 C 4,2 C 17,7 km/h (3 Bft) 100,00 %
17.05.2019 06:56 7,3 C 12,8 C 8,3 C 95 % 1009,4 hPa 0,0 l/m 10,6 km/h (2 Bft) O-NO 65 0 min 0,000 mm 0,0 UV-I 68 W/m 6,6 C 4,2 C 16,1 km/h (3 Bft) 96,00 %
17.05.2019 06:58 7,4 C 12,8 C 8,9 C 95 % 1009,4 hPa 0,0 l/m 14,3 km/h (3 Bft) O 96 0 min 0,000 mm 0,0 UV-I 68 W/m 6,7 C 2,3 C 19,3 km/h (3 Bft) 94,74 %
17.05.2019 07:00 7,4 C 12,8 C 8,9 C 95 % 1009,4 hPa 0,0 l/m 12,8 km/h (3 Bft) O 98 0 min 0,025 mm 0,0 UV-I 63 W/m 6,7 C 3,1 C 17,7 km/h (3 Bft) 96,23 %
17.05.2019 07:02 7,4 C 12,8 C 8,9 C 95 % 1009,4 hPa 0,0 l/m 15,3 km/h (3 Bft) O-SO 103 0 min 0,000 mm 0,0 UV-I 75 W/m 6,7 C 1,8 C 19,3 km/h (3 Bft) 96,23 %
17.05.2019 07:04 7,4 C 12,8 C 8,9 C 95 % 1009,4 hPa 0,0 l/m 14,1 km/h (3 Bft) O 93 0 min 0,000 mm 0,0 UV-I 70 W/m 6,7 C 2,4 C 25,7 km/h (4 Bft) 92,68 %
17.05.2019 07:06 7,4 C 12,8 C 8,9 C 95 % 1009,4 hPa 0,0 l/m 18,8 km/h (3 Bft) O 83 0 min 0,000 mm 0,0 UV-I 62 W/m 6,7 C 0,4 C 24,1 km/h (4 Bft) 97,73 %
17.05.2019 07:08 7,4 C 12,8 C 8,9 C 95 % 1009,4 hPa 0,0 l/m 16,2 km/h (3 Bft) O-SO 116 0 min 0,000 mm 0,0 UV-I 65 W/m 6,7 C 1,4 C 24,1 km/h (4 Bft) 92,68 %
17.05.2019 07:10 7,4 C 12,8 C 8,9 C 95 % 1009,4 hPa 0,0 l/m 12,4 km/h (3 Bft) O 86 0 min 0,000 mm 0,0 UV-I 73 W/m 6,7 C 3,3 C 17,7 km/h (3 Bft) 98,31 %
17.05.2019 07:12 7,4 C 12,8 C 8,9 C 95 % 1009,5 hPa 0,0 l/m 16,9 km/h (3 Bft) O 84 0 min 0,000 mm 0,0 UV-I 70 W/m 6,7 C 1,1 C 22,5 km/h (4 Bft) 97,87 %
17.05.2019 07:14 7,4 C 12,8 C 8,9 C 95 % 1009,4 hPa 0,0 l/m 18,0 km/h (3 Bft) O 82 0 min 0,000 mm 0,0 UV-I 73 W/m 6,7 C 0,7 C 27,4 km/h (4 Bft) 97,44 %
17.05.2019 07:16 7,4 C 12,8 C 8,9 C 95 % 1009,5 hPa 0,0 l/m 20,8 km/h (4 Bft) O-NO 71 0 min 0,000 mm 0,0 UV-I 80 W/m 6,7 C -0,4 C 29,0 km/h (5 Bft) 97,14 %
17.05.2019 07:18 7,3 C 12,8 C 8,9 C 95 % 1009,4 hPa 0,0 l/m 23,1 km/h (4 Bft) O 88 0 min 0,000 mm 0,0 UV-I 82 W/m 6,6 C -1,3 C 32,2 km/h (5 Bft) 95,38 %
17.05.2019 07:20 7,3 C 12,8 C 8,9 C 95 % 1009,4 hPa 0,0 l/m 20,3 km/h (4 Bft) O-NO 78 0 min 0,000 mm 0,0 UV-I 87 W/m 6,6 C -0,3 C 32,2 km/h (5 Bft) 95,74 %
17.05.2019 07:22 7,3 C 12,8 C 8,9 C 95 % 1009,4 hPa 0,0 l/m 21,8 km/h (4 Bft) O-SO 109 0 min 0,000 mm 0,0 UV-I 86 W/m 6,6 C -0,8 C 32,2 km/h (5 Bft) 92,31 %
17.05.2019 07:24 7,3 C 12,8 C 8,9 C 95 % 1009,4 hPa 0,0 l/m 18,5 km/h (3 Bft) O 96 0 min 0,000 mm 0,0 UV-I 97 W/m 6,6 C 0,4 C 27,4 km/h (4 Bft) 96,92 %
17.05.2019 07:26 7,4 C 12,8 C 8,9 C 95 % 1009,5 hPa 0,0 l/m 20,7 km/h (4 Bft) O 101 0 min 0,000 mm 0,0 UV-I 91 W/m 6,7 C -0,3 C 24,1 km/h (4 Bft) 93,62 %
17.05.2019 07:28 7,4 C 12,8 C 9,4 C 95 % 1009,5 hPa 0,0 l/m 18,4 km/h (3 Bft) O 86 0 min 0,000 mm 0,0 UV-I 85 W/m 6,7 C 0,5 C 20,9 km/h (4 Bft) 95,12 %
17.05.2019 07:30 7,4 C 12,8 C 9,4 C 95 % 1009,4 hPa 0,0 l/m 16,4 km/h (3 Bft) O 95 0 min 0,000 mm 0,0 UV-I 101 W/m 6,7 C 1,4 C 24,1 km/h (4 Bft) 95,74 %
17.05.2019 07:32 7,4 C 12,8 C 9,4 C 95 % 1009,5 hPa 0,0 l/m 15,3 km/h (3 Bft) O-SO 105 0 min 0,000 mm 0,0 UV-I 112 W/m 6,7 C 1,8 C 22,5 km/h (4 Bft) 94,64 %
17.05.2019 07:34 7,4 C 12,8 C 9,4 C 95 % 1009,5 hPa 0,0 l/m 15,3 km/h (3 Bft) O 84 0 min 0,000 mm 0,0 UV-I 107 W/m 6,7 C 1,8 C 22,5 km/h (4 Bft) 92,11 %
17.05.2019 07:36 7,5 C 12,8 C 9,4 C 95 % 1009,4 hPa 0,0 l/m 13,7 km/h (3 Bft) O-SO 105 0 min 0,000 mm 0,0 UV-I 103 W/m 6,8 C 2,7 C 24,1 km/h (4 Bft) 96,00 %
17.05.2019 07:38 7,5 C 12,8 C 9,4 C 95 % 1009,4 hPa 0,0 l/m 17,4 km/h (3 Bft) O-SO 110 0 min 0,000 mm 0,0 UV-I 103 W/m 6,8 C 1,1 C 22,5 km/h (4 Bft) 95,12 %
17.05.2019 07:40 7,6 C 12,8 C 10,0 C 95 % 1009,4 hPa 0,0 l/m 17,7 km/h (3 Bft) O 97 0 min 0,000 mm 0,0 UV-I 115 W/m 6,9 C 1,1 C 24,1 km/h (4 Bft) 96,30 %
17.05.2019 07:42 7,6 C 12,8 C 10,0 C 95 % 1009,5 hPa 0,0 l/m 19,0 km/h (3 Bft) O 95 0 min 0,000 mm 0,0 UV-I 119 W/m 6,9 C 0,6 C 24,1 km/h (4 Bft) 95,74 %
17.05.2019 07:44 7,6 C 12,8 C 10,0 C 95 % 1009,4 hPa 0,0 l/m 17,6 km/h (3 Bft) O 85 0 min 0,000 mm 0,0 UV-I 130 W/m 6,9 C 1,1 C 25,7 km/h (4 Bft) 94,00 %
17.05.2019 07:46 7,6 C 12,8 C 10,0 C 95 % 1009,4 hPa 0,0 l/m 16,5 km/h (3 Bft) SO 128 0 min 0,000 mm 0,0 UV-I 126 W/m 6,9 C 1,6 C 24,1 km/h (4 Bft) 93,62 %
17.05.2019 07:48 7,6 C 12,8 C 10,0 C 95 % 1009,4 hPa 0,0 l/m 15,9 km/h (3 Bft) O 86 0 min 0,000 mm 0,0 UV-I 128 W/m 6,9 C 1,8 C 20,9 km/h (4 Bft) 97,44 %
17.05.2019 07:50 7,6 C 12,8 C 10,6 C 94 % 1009,3 hPa 0,0 l/m 13,9 km/h (3 Bft) O-SO 103 0 min 0,000 mm 0,0 UV-I 136 W/m 6,7 C 2,8 C 20,9 km/h (4 Bft) 92,11 %
17.05.2019 07:52 7,7 C 12,8 C 10,6 C 95 % 1009,4 hPa 0,0 l/m 15,8 km/h (3 Bft) O 94 0 min 0,000 mm 0,0 UV-I 154 W/m 7,0 C 2,0 C 22,5 km/h (4 Bft) 94,64 %
17.05.2019 07:54 7,8 C 12,8 C 10,6 C 94 % 1009,4 hPa 0,0 l/m 15,7 km/h (3 Bft) O 98 0 min 0,000 mm 0,0 UV-I 148 W/m 6,9 C 2,2 C 20,9 km/h (4 Bft) 94,64 %
17.05.2019 07:56 7,8 C 12,8 C 10,6 C 94 % 1009,4 hPa 0,0 l/m 15,7 km/h (3 Bft) O-NO 72 0 min 0,000 mm 0,1 UV-I 156 W/m 6,9 C 2,2 C 22,5 km/h (4 Bft) 93,62 %
17.05.2019 07:58 7,9 C 12,8 C 11,1 C 94 % 1009,4 hPa 0,0 l/m 15,0 km/h (3 Bft) O-NO 72 0 min 0,000 mm 0,1 UV-I 151 W/m 7,0 C 2,6 C 20,9 km/h (4 Bft) 95,12 %
17.05.2019 08:00 7,9 C 12,8 C 11,1 C 94 % 1009,4 hPa 0,0 l/m 16,8 km/h (3 Bft) O-SO 111 0 min 0,051 mm 0,4 UV-I 153 W/m 7,0 C 1,8 C 24,1 km/h (4 Bft) 96,00 %
17.05.2019 08:02 7,9 C 12,8 C 11,1 C 94 % 1009,4 hPa 0,0 l/m 16,7 km/h (3 Bft) O 101 0 min 0,000 mm 0,5 UV-I 154 W/m 7,0 C 1,8 C 22,5 km/h (4 Bft) 95,45 %
17.05.2019 08:04 7,9 C 12,8 C 11,1 C 94 % 1009,4 hPa 0,0 l/m 17,3 km/h (3 Bft) O 82 0 min 0,000 mm 0,5 UV-I 141 W/m 7,0 C 1,6 C 24,1 km/h (4 Bft) 94,29 %
17.05.2019 08:06 8,0 C 12,8 C 11,7 C 94 % 1009,4 hPa 0,0 l/m 19,3 km/h (3 Bft) O 84 0 min 0,000 mm 0,5 UV-I 183 W/m 7,1 C 1,0 C 25,7 km/h (4 Bft) 93,55 %
17.05.2019 08:08 8,0 C 12,8 C 11,7 C 93 % 1009,4 hPa 0,0 l/m 14,9 km/h (3 Bft) O 90 0 min 0,000 mm 0,6 UV-I 203 W/m 6,9 C 2,8 C 19,3 km/h (3 Bft) 97,87 %
17.05.2019 08:10 8,1 C 12,8 C 11,1 C 93 % 1009,4 hPa 0,0 l/m 18,4 km/h (3 Bft) O 94 0 min 0,000 mm 0,5 UV-I 151 W/m 7,0 C 1,4 C 24,1 km/h (4 Bft) 97,87 %
17.05.2019 08:12 8,1 C 12,8 C 11,1 C 93 % 1009,4 hPa 0,0 l/m 16,3 km/h (3 Bft) O 98 0 min 0,000 mm 0,5 UV-I 147 W/m 7,0 C 2,3 C 22,5 km/h (4 Bft) 100,00 %
17.05.2019 08:14 8,1 C 12,8 C 11,7 C 93 % 1009,3 hPa 0,0 l/m 16,5 km/h (3 Bft) O 92 0 min 0,000 mm 0,5 UV-I 160 W/m 7,0 C 2,2 C 22,5 km/h (4 Bft) 100,00 %
17.05.2019 08:16 8,2 C 12,8 C 11,7 C 93 % 1009,3 hPa 0,0 l/m 18,4 km/h (3 Bft) O 98 2 min 0,000 mm 0,7 UV-I 248 W/m 7,1 C 1,5 C 24,1 km/h (4 Bft) 96,00 %
17.05.2019 08:18 8,2 C 12,8 C 12,2 C 93 % 1009,3 hPa 0,0 l/m 18,0 km/h (3 Bft) O 84 2 min 0,000 mm 0,7 UV-I 298 W/m 7,1 C 1,7 C 22,5 km/h (4 Bft) 100,00 %
17.05.2019 08:20 8,3 C 12,8 C 12,2 C 92 % 1009,3 hPa 0,0 l/m 17,3 km/h (3 Bft) O-NO 71 2 min 0,000 mm 0,8 UV-I 253 W/m 7,1 C 2,1 C 24,1 km/h (4 Bft) 100,00 %
17.05.2019 08:22 8,3 C 12,8 C 11,7 C 92 % 1009,4 hPa 0,0 l/m 17,4 km/h (3 Bft) O-SO 106 0 min 0,000 mm 0,7 UV-I 198 W/m 7,1 C 2,1 C 27,4 km/h (4 Bft) 100,00 %
17.05.2019 08:24 8,4 C 12,8 C 12,2 C 92 % 1009,4 hPa 0,0 l/m 19,7 km/h (3 Bft) O-NO 74 0 min 0,000 mm 0,7 UV-I 228 W/m 7,2 C 1,3 C 29,0 km/h (5 Bft) 100,00 %
17.05.2019 08:26 8,4 C 12,8 C 12,2 C 92 % 1009,3 hPa 0,0 l/m 19,2 km/h (3 Bft) NO 51 0 min 0,000 mm 0,8 UV-I 238 W/m 7,2 C 1,5 C 24,1 km/h (4 Bft) 100,00 %
17.05.2019 08:28 8,4 C 12,8 C 12,2 C 92 % 1009,3 hPa 0,0 l/m 18,4 km/h (3 Bft) O 95 0 min 0,000 mm 0,9 UV-I 205 W/m 7,2 C 1,8 C 24,1 km/h (4 Bft) 100,00 %
17.05.2019 08:30 8,6 C 12,8 C 12,2 C 92 % 1009,3 hPa 0,0 l/m 16,3 km/h (3 Bft) O-NO 67 0 min 0,000 mm 0,8 UV-I 217 W/m 7,4 C 2,9 C 22,5 km/h (4 Bft) 100,00 %
17.05.2019 08:32 8,7 C 12,8 C 12,2 C 92 % 1009,2 hPa 0,0 l/m 16,8 km/h (3 Bft) O-SO 104 2 min 0,000 mm 0,9 UV-I 289 W/m 7,5 C 2,8 C 22,5 km/h (4 Bft) 100,00 %
17.05.2019 08:34 8,7 C 12,8 C 12,8 C 92 % 1009,2 hPa 0,0 l/m 18,3 km/h (3 Bft) O-NO 57 2 min 0,000 mm 0,9 UV-I 282 W/m 7,5 C 2,2 C 25,7 km/h (4 Bft) 100,00 %
17.05.2019 08:36 8,8 C 12,8 C 13,3 C 91 % 1009,2 hPa 0,0 l/m 16,9 km/h (3 Bft) O-SO 107 2 min 0,000 mm 1,1 UV-I 340 W/m 7,4 C 2,9 C 24,1 km/h (4 Bft) 100,00 %
17.05.2019 08:38 8,9 C 12,8 C 13,9 C 91 % 1009,2 hPa 0,0 l/m 15,8 km/h (3 Bft) O-SO 107 2 min 0,000 mm 1,1 UV-I 302 W/m 7,5 C 3,5 C 22,5 km/h (4 Bft) 100,00 %
17.05.2019 08:40 9,1 C 12,8 C 13,9 C 91 % 1009,2 hPa 0,0 l/m 14,6 km/h (3 Bft) O 87 2 min 0,000 mm 1,1 UV-I 336 W/m 7,7 C 4,2 C 20,9 km/h (4 Bft) 98,51 %
17.05.2019 08:42 9,2 C 12,8 C 14,4 C 90 % 1009,2 hPa 0,0 l/m 14,4 km/h (3 Bft) O-NO 65 2 min 0,000 mm 1,2 UV-I 353 W/m 7,6 C 4,4 C 20,9 km/h (4 Bft) 100,00 %
17.05.2019 08:44 9,4 C 12,8 C 15,0 C 90 % 1009,2 hPa 0,0 l/m 16,6 km/h (3 Bft) O-SO 111 2 min 0,000 mm 1,1 UV-I 377 W/m 7,8 C 3,7 C 24,1 km/h (4 Bft) 100,00 %
17.05.2019 08:46 9,4 C 12,8 C 15,6 C 89 % 1009,2 hPa 0,0 l/m 18,1 km/h (3 Bft) O 90 2 min 0,000 mm 1,2 UV-I 408 W/m 7,7 C 3,2 C 24,1 km/h (4 Bft) 100,00 %
17.05.2019 08:48 9,4 C 12,8 C 16,1 C 89 % 1009,2 hPa 0,0 l/m 16,3 km/h (3 Bft) O 83 2 min 0,000 mm 1,3 UV-I 436 W/m 7,7 C 3,9 C 20,9 km/h (4 Bft) 100,00 %
17.05.2019 08:50 9,4 C 12,8 C 16,1 C 89 % 1009,2 hPa 0,0 l/m 17,6 km/h (3 Bft) O-NO 59 2 min 0,000 mm 1,2 UV-I 504 W/m 7,7 C 3,4 C 27,4 km/h (4 Bft) 98,00 %
17.05.2019 08:52 9,5 C 12,8 C 16,7 C 88 % 1009,1 hPa 0,0 l/m 24,8 km/h (4 Bft) O 94 2 min 0,000 mm 1,4 UV-I 496 W/m 7,6 C 1,2 C 29,0 km/h (5 Bft) 100,00 %
17.05.2019 08:54 9,6 C 12,8 C 17,2 C 87 % 1009,2 hPa 0,0 l/m 20,4 km/h (4 Bft) O 84 2 min 0,000 mm 1,4 UV-I 475 W/m 7,5 C 2,6 C 30,6 km/h (5 Bft) 98,11 %
17.05.2019 08:56 9,7 C 12,8 C 17,2 C 87 % 1009,2 hPa 0,0 l/m 20,4 km/h (4 Bft) O-NO 76 2 min 0,000 mm 1,4 UV-I 512 W/m 7,6 C 2,8 C 29,0 km/h (5 Bft) 100,00 %
17.05.2019 08:58 9,7 C 12,8 C 17,8 C 87 % 1009,2 hPa 0,0 l/m 18,1 km/h (3 Bft) O-SO 107 2 min 0,000 mm 1,5 UV-I 507 W/m 7,6 C 3,6 C 22,5 km/h (4 Bft) 98,00 %
17.05.2019 09:00 9,8 C 12,8 C 17,2 C 86 % 1009,2 hPa 0,0 l/m 17,3 km/h (3 Bft) O-NO 73 2 min 0,153 mm 1,3 UV-I 517 W/m 7,6 C 4,0 C 25,7 km/h (4 Bft) 100,00 %
17.05.2019 09:02 9,8 C 12,8 C 17,8 C 87 % 1009,2 hPa 0,0 l/m 16,3 km/h (3 Bft) O-NO 57 2 min 0,000 mm 1,5 UV-I 517 W/m 7,7 C 4,4 C 20,9 km/h (4 Bft) 100,00 %
17.05.2019 09:04 9,9 C 12,8 C 17,2 C 86 % 1009,2 hPa 0,0 l/m 20,9 km/h (4 Bft) O-NO 63 2 min 0,000 mm 1,5 UV-I 517 W/m 7,7 C 2,9 C 27,4 km/h (4 Bft) 100,00 %
17.05.2019 09:06 9,9 C 12,8 C 17,2 C 86 % 1009,1 hPa 0,0 l/m 21,8 km/h (4 Bft) O-SO 102 2 min 0,000 mm 1,5 UV-I 515 W/m 7,7 C 2,6 C 29,0 km/h (5 Bft) 100,00 %
17.05.2019 09:08 10,0 C 12,8 C 18,9 C 86 % 1009,1 hPa 0,0 l/m 15,3 km/h (3 Bft) O-NO 69 2 min 0,000 mm 1,6 UV-I 524 W/m 7,8 C 5,0 C 22,5 km/h (4 Bft) 100,00 %
17.05.2019 09:10 10,1 C 12,8 C 17,8 C 85 % 1009,1 hPa 0,0 l/m 23,5 km/h (4 Bft) O-NO 63 2 min 0,000 mm 1,5 UV-I 469 W/m 7,7 C 2,4 C 32,2 km/h (5 Bft) 97,87 %
17.05.2019 09:12 10,2 C 12,8 C 18,3 C 85 % 1009,1 hPa 0,0 l/m 23,0 km/h (4 Bft) O 83 2 min 0,000 mm 1,6 UV-I 494 W/m 7,8 C 2,6 C 29,0 km/h (5 Bft) 91,49 %
17.05.2019 09:14 10,2 C 12,8 C 18,3 C 84 % 1009,1 hPa 0,0 l/m 24,5 km/h (4 Bft) NO 56 2 min 0,000 mm 1,6 UV-I 519 W/m 7,6 C 2,2 C 33,8 km/h (5 Bft) 94,87 %
17.05.2019 09:16 10,3 C 12,8 C 18,9 C 84 % 1009,0 hPa 0,0 l/m 22,7 km/h (4 Bft) O-SO 104 2 min 0,000 mm 1,7 UV-I 525 W/m 7,7 C 2,9 C 30,6 km/h (5 Bft) 94,83 %
17.05.2019 09:18 10,3 C 12,8 C 19,4 C 83 % 1009,0 hPa 0,0 l/m 23,2 km/h (4 Bft) O 86 2 min 0,000 mm 1,8 UV-I 536 W/m 7,5 C 2,7 C 32,2 km/h (5 Bft) 93,33 %
17.05.2019 09:20 10,3 C 12,8 C 20,0 C 83 % 1009,0 hPa 0,0 l/m 22,5 km/h (4 Bft) O 88 2 min 0,000 mm 1,8 UV-I 541 W/m 7,5 C 2,9 C 33,8 km/h (5 Bft) 96,15 %
17.05.2019 09:22 10,4 C 12,8 C 20,0 C 84 % 1009,0 hPa 0,0 l/m 20,0 km/h (4 Bft) O-NO 61 2 min 0,000 mm 1,8 UV-I 521 W/m 7,8 C 3,8 C 30,6 km/h (5 Bft) 95,95 %
17.05.2019 09:24 10,5 C 12,8 C 20,0 C 83 % 1008,9 hPa 0,0 l/m 23,8 km/h (4 Bft) O-NO 74 2 min 0,000 mm 1,8 UV-I 538 W/m 7,7 C 2,8 C 30,6 km/h (5 Bft) 95,12 %
17.05.2019 09:26 10,6 C 12,8 C 20,6 C 83 % 1008,8 hPa 0,0 l/m 24,4 km/h (4 Bft) O-NO 69 2 min 0,000 mm 1,8 UV-I 543 W/m 7,8 C 2,8 C 33,8 km/h (5 Bft) 94,00 %
17.05.2019 09:28 10,6 C 12,8 C 20,6 C 82 % 1008,9 hPa 0,0 l/m 23,1 km/h (4 Bft) O 95 2 min 0,000 mm 1,9 UV-I 559 W/m 7,7 C 3,1 C 33,8 km/h (5 Bft) 95,74 %
17.05.2019 09:30 10,7 C 12,8 C 20,0 C 82 % 1008,9 hPa 0,0 l/m 22,1 km/h (4 Bft) O-SO 110 2 min 0,000 mm 1,9 UV-I 550 W/m 7,8 C 3,6 C 29,0 km/h (5 Bft) 97,37 %
17.05.2019 09:32 10,8 C 12,8 C 20,6 C 82 % 1008,8 hPa 0,0 l/m 24,9 km/h (4 Bft) O-NO 62 2 min 0,000 mm 2,0 UV-I 552 W/m 7,9 C 2,9 C 30,6 km/h (5 Bft) 94,34 %
17.05.2019 09:34 10,8 C 12,8 C 20,6 C 82 % 1008,8 hPa 0,0 l/m 21,5 km/h (4 Bft) O 100 2 min 0,000 mm 2,0 UV-I 554 W/m 7,9 C 3,9 C 30,6 km/h (5 Bft) 97,87 %
17.05.2019 09:36 10,8 C 12,8 C 21,1 C 81 % 1008,8 hPa 0,0 l/m 21,0 km/h (4 Bft) O-SO 115 2 min 0,000 mm 2,0 UV-I 555 W/m 7,7 C 4,0 C 29,0 km/h (5 Bft) 97,87 %
17.05.2019 09:38 11,1 C 12,8 C 22,2 C 82 % 1008,8 hPa 0,0 l/m 19,3 km/h (3 Bft) O 82 2 min 0,000 mm 2,1 UV-I 564 W/m 8,1 C 4,9 C 25,7 km/h (4 Bft) 97,56 %
17.05.2019 09:40 11,2 C 12,8 C 22,8 C 82 % 1008,8 hPa 0,0 l/m 19,0 km/h (3 Bft) O-SO 111 2 min 0,000 mm 2,1 UV-I 573 W/m 8,2 C 5,2 C 29,0 km/h (5 Bft) 96,23 %
17.05.2019 09:42 11,3 C 12,8 C 22,8 C 81 % 1008,8 hPa 0,0 l/m 18,2 km/h (3 Bft) O 82 2 min 0,000 mm 2,0 UV-I 576 W/m 8,2 C 5,5 C 24,1 km/h (4 Bft) 100,00 %
17.05.2019 09:44 11,5 C 12,8 C 23,3 C 81 % 1008,8 hPa 0,0 l/m 19,9 km/h (4 Bft) O 90 2 min 0,000 mm 2,1 UV-I 581 W/m 8,4 C 5,3 C 27,4 km/h (4 Bft) 96,36 %
17.05.2019 09:46 11,7 C 12,8 C 23,3 C 81 % 1008,7 hPa 0,0 l/m 20,5 km/h (4 Bft) O 84 2 min 0,000 mm 2,2 UV-I 590 W/m 8,5 C 5,3 C 27,4 km/h (4 Bft) 100,00 %
17.05.2019 09:48 11,7 C 12,8 C 23,3 C 80 % 1008,7 hPa 0,0 l/m 19,7 km/h (3 Bft) O-NO 63 2 min 0,000 mm 2,2 UV-I 589 W/m 8,4 C 5,6 C 27,4 km/h (4 Bft) 100,00 %
17.05.2019 09:50 11,8 C 12,8 C 23,9 C 80 % 1008,6 hPa 0,0 l/m 16,1 km/h (3 Bft) O-NO 58 2 min 0,000 mm 2,2 UV-I 598 W/m 8,5 C 6,9 C 22,5 km/h (4 Bft) 100,00 %
17.05.2019 09:52 11,9 C 12,8 C 24,4 C 79 % 1008,5 hPa 0,0 l/m 15,6 km/h (3 Bft) O 100 2 min 0,000 mm 2,2 UV-I 600 W/m 8,4 C 7,2 C 22,5 km/h (4 Bft) 100,00 %
17.05.2019 09:54 11,9 C 13,3 C 24,4 C 79 % 1008,6 hPa 0,0 l/m 21,8 km/h (4 Bft) O 84 2 min 0,000 mm 2,3 UV-I 598 W/m 8,4 C 5,2 C 27,4 km/h (4 Bft) 100,00 %
17.05.2019 09:56 12,0 C 12,8 C 25,0 C 79 % 1008,5 hPa 0,0 l/m 19,6 km/h (3 Bft) O-SO 111 2 min 0,000 mm 2,3 UV-I 601 W/m 8,5 C 6,0 C 29,0 km/h (5 Bft) 100,00 %
17.05.2019 09:58 12,1 C 12,8 C 24,4 C 79 % 1008,5 hPa 0,0 l/m 20,6 km/h (4 Bft) O-NO 71 2 min 0,000 mm 2,3 UV-I 603 W/m 8,6 C 5,8 C 25,7 km/h (4 Bft) 100,00 %
17.05.2019 10:00 12,1 C 12,8 C 24,4 C 78 % 1008,5 hPa 0,0 l/m 21,1 km/h (4 Bft) O-NO 73 2 min 0,279 mm 2,4 UV-I 618 W/m 8,4 C 5,7 C 29,0 km/h (5 Bft) 100,00 %
17.05.2019 10:02 12,2 C 12,8 C 24,4 C 79 % 1008,4 hPa 0,0 l/m 18,3 km/h (3 Bft) O-NO 62 2 min 0,000 mm 2,4 UV-I 631 W/m 8,7 C 6,7 C 25,7 km/h (4 Bft) 100,00 %
17.05.2019 10:04 12,3 C 13,3 C 25,0 C 79 % 1008,4 hPa 0,0 l/m 15,6 km/h (3 Bft) NO 45 2 min 0,000 mm 2,5 UV-I 650 W/m 8,8 C 7,7 C 24,1 km/h (4 Bft) 98,44 %
17.05.2019 10:06 12,4 C 12,8 C 24,4 C 78 % 1008,4 hPa 0,0 l/m 17,1 km/h (3 Bft) O-NO 67 2 min 0,000 mm 2,5 UV-I 630 W/m 8,7 C 7,3 C 25,7 km/h (4 Bft) 97,62 %
17.05.2019 10:08 12,6 C 13,3 C 25,0 C 78 % 1008,3 hPa 0,0 l/m 17,9 km/h (3 Bft) O 93 2 min 0,000 mm 2,3 UV-I 630 W/m 8,9 C 7,3 C 27,4 km/h (4 Bft) 100,00 %
17.05.2019 10:10 12,6 C 12,8 C 25,0 C 76 % 1008,3 hPa 0,0 l/m 16,1 km/h (3 Bft) O 95 2 min 0,000 mm 2,5 UV-I 627 W/m 8,5 C 7,9 C 24,1 km/h (4 Bft) 100,00 %
17.05.2019 10:12 12,7 C 13,3 C 24,4 C 77 % 1008,3 hPa 0,0 l/m 17,7 km/h (3 Bft) O 95 2 min 0,000 mm 2,5 UV-I 649 W/m 8,8 C 7,5 C 27,4 km/h (4 Bft) 98,00 %
17.05.2019 10:14 12,6 C 13,3 C 24,4 C 76 % 1008,3 hPa 0,0 l/m 18,2 km/h (3 Bft) O-NO 64 2 min 0,000 mm 2,6 UV-I 642 W/m 8,5 C 7,2 C 24,1 km/h (4 Bft) 100,00 %
17.05.2019 10:16 12,7 C 13,3 C 25,0 C 78 % 1008,2 hPa 0,0 l/m 17,8 km/h (3 Bft) O-NO 67 2 min 0,000 mm 2,6 UV-I 633 W/m 9,0 C 7,4 C 24,1 km/h (4 Bft) 100,00 %
17.05.2019 10:18 12,8 C 13,3 C 25,0 C 75 % 1008,2 hPa 0,0 l/m 21,6 km/h (4 Bft) O-SO 104 2 min 0,000 mm 2,6 UV-I 638 W/m 8,5 C 6,5 C 30,6 km/h (5 Bft) 96,43 %
17.05.2019 10:20 12,8 C 13,3 C 25,0 C 75 % 1008,2 hPa 0,0 l/m 19,6 km/h (3 Bft) O-NO 71 2 min 0,000 mm 2,7 UV-I 641 W/m 8,5 C 7,0 C 27,4 km/h (4 Bft) 100,00 %
17.05.2019 10:22 12,7 C 13,3 C 25,0 C 75 % 1008,2 hPa 0,0 l/m 19,8 km/h (3 Bft) O-NO 65 2 min 0,000 mm 2,7 UV-I 644 W/m 8,4 C 6,8 C 24,1 km/h (4 Bft) 100,00 %
17.05.2019 10:24 12,8 C 13,3 C 25,6 C 75 % 1008,1 hPa 0,0 l/m 19,2 km/h (3 Bft) NO 53 2 min 0,000 mm 2,8 UV-I 646 W/m 8,5 C 7,1 C 29,0 km/h (5 Bft) 100,00 %
17.05.2019 10:26 12,9 C 13,3 C 26,7 C 77 % 1008,1 hPa 0,0 l/m 20,0 km/h (4 Bft) O-NO 63 2 min 0,000 mm 2,8 UV-I 656 W/m 9,0 C 7,0 C 27,4 km/h (4 Bft) 100,00 %
17.05.2019 10:28 13,2 C 13,3 C 26,7 C 77 % 1008,2 hPa 0,0 l/m 16,4 km/h (3 Bft) O 98 2 min 0,000 mm 2,9 UV-I 663 W/m 9,3 C 8,5 C 24,1 km/h (4 Bft) 94,74 %
17.05.2019 10:30 13,3 C 13,3 C 27,2 C 75 % 1008,1 hPa 0,0 l/m 18,3 km/h (3 Bft) O-SO 111 2 min 0,000 mm 2,9 UV-I 663 W/m 9,0 C 8,0 C 35,4 km/h (5 Bft) 100,00 %
17.05.2019 10:32 13,4 C 13,3 C 27,8 C 73 % 1008,1 hPa 0,0 l/m 20,7 km/h (4 Bft) O 96 2 min 0,000 mm 2,9 UV-I 666 W/m 8,7 C 7,5 C 32,2 km/h (5 Bft) 98,00 %
17.05.2019 10:34 13,4 C 13,3 C 27,8 C 73 % 1008,2 hPa 0,0 l/m 22,2 km/h (4 Bft) O-SO 111 2 min 0,000 mm 3,0 UV-I 668 W/m 8,7 C 7,1 C 29,0 km/h (5 Bft) 97,62 %
17.05.2019 10:36 13,4 C 13,3 C 27,8 C 73 % 1008,2 hPa 0,0 l/m 19,2 km/h (3 Bft) O-NO 74 2 min 0,000 mm 3,0 UV-I 674 W/m 8,7 C 7,9 C 29,0 km/h (5 Bft) 97,56 %
17.05.2019 10:38 13,5 C 13,3 C 28,3 C 74 % 1008,2 hPa 0,0 l/m 15,3 km/h (3 Bft) O 96 2 min 0,000 mm 3,0 UV-I 679 W/m 9,0 C 9,3 C 24,1 km/h (4 Bft) 96,00 %
17.05.2019 10:40 13,7 C 13,3 C 27,8 C 74 % 1008,2 hPa 0,0 l/m 18,9 km/h (3 Bft) O-SO 110 2 min 0,000 mm 3,1 UV-I 686 W/m 9,2 C 8,4 C 27,4 km/h (4 Bft) 94,00 %
17.05.2019 10:42 13,7 C 13,3 C 27,8 C 72 % 1008,1 hPa 0,0 l/m 17,2 km/h (3 Bft) O 90 2 min 0,000 mm 3,1 UV-I 687 W/m 8,7 C 8,9 C 25,7 km/h (4 Bft) 95,74 %
17.05.2019 10:44 13,7 C 13,3 C 28,3 C 73 % 1008,1 hPa 0,0 l/m 18,2 km/h (3 Bft) O 80 2 min 0,000 mm 3,1 UV-I 700 W/m 8,9 C 8,6 C 27,4 km/h (4 Bft) 95,74 %
17.05.2019 10:46 13,7 C 13,3 C 28,3 C 72 % 1008,1 hPa 0,0 l/m 18,8 km/h (3 Bft) O 82 2 min 0,000 mm 3,1 UV-I 695 W/m 8,7 C 8,4 C 25,7 km/h (4 Bft) 95,12 %
17.05.2019 10:48 13,8 C 13,3 C 28,3 C 73 % 1008,0 hPa 0,0 l/m 15,5 km/h (3 Bft) O-NO 78 2 min 0,000 mm 3,1 UV-I 686 W/m 9,0 C 9,6 C 24,1 km/h (4 Bft) 94,00 %
17.05.2019 10:50 13,8 C 13,3 C 28,9 C 72 % 1008,1 hPa 0,0 l/m 16,0 km/h (3 Bft) O-SO 115 2 min 0,000 mm 3,2 UV-I 693 W/m 8,8 C 9,4 C 24,1 km/h (4 Bft) 96,00 %
17.05.2019 10:52 13,9 C 13,3 C 29,4 C 72 % 1008,0 hPa 0,0 l/m 13,2 km/h (3 Bft) O 96 2 min 0,000 mm 3,2 UV-I 696 W/m 8,9 C 10,5 C 19,3 km/h (3 Bft) 98,11 %
17.05.2019 10:54 14,1 C 13,3 C 30,0 C 73 % 1008,0 hPa 0,0 l/m 14,5 km/h (3 Bft) O-NO 76 2 min 0,000 mm 3,3 UV-I 722 W/m 9,3 C 10,3 C 19,3 km/h (3 Bft) 95,12 %
17.05.2019 10:56 14,2 C 13,3 C 30,0 C 71 % 1008,0 hPa 0,0 l/m 13,0 km/h (3 Bft) O-NO 57 2 min 0,000 mm 3,3 UV-I 734 W/m 9,0 C 11,0 C 20,9 km/h (4 Bft) 93,62 %
17.05.2019 10:58 14,3 C 13,3 C 30,0 C 73 % 1007,9 hPa 0,0 l/m 18,5 km/h (3 Bft) O 80 2 min 0,000 mm 3,3 UV-I 722 W/m 9,5 C 9,3 C 29,0 km/h (5 Bft) 93,62 %
17.05.2019 11:00 14,3 C 13,3 C 29,4 C 71 % 1007,9 hPa 0,0 l/m 17,9 km/h (3 Bft) O-NO 63 2 min 0,381 mm 3,3 UV-I 711 W/m 9,1 C 9,4 C 29,0 km/h (5 Bft) 95,74 %
17.05.2019 11:02 14,3 C 13,3 C 28,9 C 70 % 1008,0 hPa 0,0 l/m 17,6 km/h (3 Bft) O-NO 69 2 min 0,000 mm 3,3 UV-I 711 W/m 8,9 C 9,5 C 25,7 km/h (4 Bft) 96,00 %
17.05.2019 11:04 14,3 C 13,3 C 29,4 C 72 % 1007,9 hPa 0,0 l/m 17,1 km/h (3 Bft) O-NO 57 2 min 0,000 mm 3,4 UV-I 744 W/m 9,3 C 9,7 C 22,5 km/h (4 Bft) 94,44 %
17.05.2019 11:06 14,3 C 13,3 C 29,4 C 70 % 1008,0 hPa 0,0 l/m 16,2 km/h (3 Bft) O-NO 61 2 min 0,000 mm 3,4 UV-I 721 W/m 8,9 C 9,9 C 22,5 km/h (4 Bft) 96,00 %
17.05.2019 11:08 14,3 C 13,3 C 28,9 C 70 % 1008,0 hPa 0,0 l/m 19,8 km/h (3 Bft) O-NO 71 2 min 0,000 mm 3,4 UV-I 714 W/m 8,9 C 8,9 C 25,7 km/h (4 Bft) 95,74 %
17.05.2019 11:10 14,4 C 13,3 C 30,0 C 74 % 1007,8 hPa 0,0 l/m 16,9 km/h (3 Bft) NO 44 2 min 0,000 mm 3,5 UV-I 730 W/m 9,8 C 9,9 C 27,4 km/h (4 Bft) 96,43 %
17.05.2019 11:12 14,6 C 13,3 C 30,0 C 70 % 1008,0 hPa 0,0 l/m 16,8 km/h (3 Bft) O-NO 59 2 min 0,000 mm 3,5 UV-I 720 W/m 9,2 C 10,1 C 24,1 km/h (4 Bft) 94,74 %
17.05.2019 11:14 14,6 C 13,3 C 30,6 C 70 % 1007,9 hPa 0,0 l/m 14,4 km/h (3 Bft) NO 55 2 min 0,000 mm 3,6 UV-I 728 W/m 9,2 C 10,9 C 20,9 km/h (4 Bft) 96,00 %
17.05.2019 11:16 14,7 C 13,3 C 30,6 C 69 % 1007,9 hPa 0,0 l/m 18,3 km/h (3 Bft) O 89 2 min 0,000 mm 3,6 UV-I 729 W/m 9,1 C 9,8 C 27,4 km/h (4 Bft) 92,45 %
17.05.2019 11:18 14,8 C 13,3 C 30,6 C 69 % 1007,9 hPa 0,0 l/m 16,6 km/h (3 Bft) O-NO 74 2 min 0,000 mm 3,6 UV-I 733 W/m 9,2 C 10,4 C 22,5 km/h (4 Bft) 94,74 %
17.05.2019 11:20 14,7 C 13,3 C 30,0 C 68 % 1007,9 hPa 0,0 l/m 17,6 km/h (3 Bft) O 80 2 min 0,000 mm 3,6 UV-I 735 W/m 8,9 C 10,0 C 22,5 km/h (4 Bft) 92,45 %
17.05.2019 11:22 14,7 C 13,3 C 30,6 C 70 % 1007,9 hPa 0,0 l/m 12,8 km/h (3 Bft) O 88 2 min 0,000 mm 3,7 UV-I 741 W/m 9,3 C 11,6 C 25,7 km/h (4 Bft) 93,62 %
17.05.2019 11:24 14,7 C 13,3 C 30,0 C 67 % 1007,9 hPa 0,0 l/m 19,0 km/h (3 Bft) O-NO 69 2 min 0,000 mm 3,7 UV-I 739 W/m 8,6 C 9,6 C 25,7 km/h (4 Bft) 97,56 %
17.05.2019 11:26 14,7 C 13,3 C 30,6 C 68 % 1007,8 hPa 0,0 l/m 17,3 km/h (3 Bft) O 89 2 min 0,000 mm 3,7 UV-I 739 W/m 8,9 C 10,1 C 20,9 km/h (4 Bft) 97,73 %
17.05.2019 11:28 14,9 C 13,3 C 30,6 C 68 % 1007,8 hPa 0,0 l/m 16,3 km/h (3 Bft) O 92 2 min 0,000 mm 3,7 UV-I 746 W/m 9,0 C 10,7 C 24,1 km/h (4 Bft) 98,21 %
17.05.2019 11:30 15,0 C 13,3 C 31,1 C 69 % 1007,8 hPa 0,0 l/m 14,0 km/h (3 Bft) O 85 2 min 0,000 mm 3,7 UV-I 745 W/m 9,4 C 11,5 C 20,9 km/h (4 Bft) 94,74 %
17.05.2019 11:32 15,1 C 13,3 C 31,1 C 67 % 1007,8 hPa 0,0 l/m 15,8 km/h (3 Bft) O-SO 109 2 min 0,000 mm 3,8 UV-I 752 W/m 9,0 C 11,1 C 24,1 km/h (4 Bft) 95,74 %
17.05.2019 11:34 15,0 C 13,3 C 31,7 C 66 % 1007,8 hPa 0,0 l/m 14,9 km/h (3 Bft) O 82 2 min 0,000 mm 3,8 UV-I 756 W/m 8,7 C 11,2 C 22,5 km/h (4 Bft) 98,11 %
17.05.2019 11:36 15,1 C 13,3 C 32,2 C 67 % 1007,8 hPa 0,0 l/m 18,4 km/h (3 Bft) O-SO 105 2 min 0,000 mm 3,8 UV-I 757 W/m 9,0 C 10,3 C 27,4 km/h (4 Bft) 98,00 %
17.05.2019 11:38 15,2 C 13,3 C 32,2 C 69 % 1007,7 hPa 0,0 l/m 15,6 km/h (3 Bft) O 101 2 min 0,000 mm 3,9 UV-I 755 W/m 9,6 C 11,2 C 24,1 km/h (4 Bft) 95,83 %
17.05.2019 11:40 15,3 C 13,3 C 32,2 C 68 % 1007,7 hPa 0,0 l/m 16,5 km/h (3 Bft) O-NO 65 2 min 0,000 mm 3,8 UV-I 753 W/m 9,4 C 11,1 C 25,7 km/h (4 Bft) 98,39 %
17.05.2019 11:42 15,3 C 13,3 C 31,7 C 67 % 1007,7 hPa 0,0 l/m 17,1 km/h (3 Bft) O-SO 108 2 min 0,000 mm 3,9 UV-I 756 W/m 9,2 C 10,9 C 22,5 km/h (4 Bft) 96,23 %
17.05.2019 11:44 15,3 C 13,3 C 32,2 C 67 % 1007,6 hPa 0,0 l/m 16,2 km/h (3 Bft) O 98 2 min 0,000 mm 4,0 UV-I 765 W/m 9,2 C 11,2 C 24,1 km/h (4 Bft) 100,00 %
17.05.2019 11:46 15,5 C 13,3 C 32,8 C 70 % 1007,6 hPa 0,0 l/m 13,7 km/h (3 Bft) O 79 2 min 0,000 mm 4,0 UV-I 768 W/m 10,1 C 12,2 C 20,9 km/h (4 Bft) 95,74 %
17.05.2019 11:48 15,6 C 13,3 C 33,9 C 68 % 1007,7 hPa 0,0 l/m 10,9 km/h (2 Bft) O-NO 73 2 min 0,000 mm 4,0 UV-I 770 W/m 9,7 C 13,4 C 16,1 km/h (3 Bft) 97,56 %
17.05.2019 11:50 15,6 C 13,3 C 33,9 C 68 % 1007,6 hPa 0,0 l/m 13,5 km/h (3 Bft) O 84 2 min 0,000 mm 4,0 UV-I 772 W/m 9,7 C 12,4 C 20,9 km/h (4 Bft) 96,00 %
17.05.2019 11:52 15,6 C 13,3 C 33,3 C 66 % 1007,6 hPa 0,0 l/m 17,4 km/h (3 Bft) O-SO 116 2 min 0,000 mm 4,0 UV-I 774 W/m 9,3 C 11,2 C 24,1 km/h (4 Bft) 96,23 %
17.05.2019 11:54 15,6 C 13,3 C 33,3 C 68 % 1007,6 hPa 0,0 l/m 16,5 km/h (3 Bft) O-NO 70 2 min 0,000 mm 4,0 UV-I 775 W/m 9,7 C 11,5 C 20,9 km/h (4 Bft) 95,12 %
17.05.2019 11:56 15,6 C 13,3 C 32,8 C 66 % 1007,6 hPa 0,0 l/m 17,1 km/h (3 Bft) O-NO 62 2 min 0,000 mm 4,0 UV-I 774 W/m 9,3 C 11,3 C 25,7 km/h (4 Bft) 96,43 %
17.05.2019 11:58 15,6 C 13,3 C 32,8 C 69 % 1007,5 hPa 0,0 l/m 16,4 km/h (3 Bft) O-NO 65 2 min 0,000 mm 4,1 UV-I 786 W/m 9,9 C 11,5 C 27,4 km/h (4 Bft) 95,74 %
17.05.2019 12:00 15,6 C 13,9 C 32,8 C 69 % 1007,4 hPa 0,0 l/m 13,2 km/h (3 Bft) O-NO 76 2 min 0,457 mm 4,1 UV-I 777 W/m 9,9 C 12,5 C 17,7 km/h (3 Bft) 95,74 %
17.05.2019 12:02 15,8 C 13,9 C 33,9 C 70 % 1007,3 hPa 0,0 l/m 15,8 km/h (3 Bft) NO 49 2 min 0,000 mm 4,1 UV-I 780 W/m 10,3 C 11,9 C 20,9 km/h (4 Bft) 97,87 %
17.05.2019 12:04 15,8 C 13,9 C 33,3 C 69 % 1007,3 hPa 0,0 l/m 18,1 km/h (3 Bft) O-SO 104 2 min 0,000 mm 4,1 UV-I 786 W/m 10,1 C 11,3 C 25,7 km/h (4 Bft) 94,74 %
17.05.2019 12:06 15,8 C 13,3 C 32,2 C 66 % 1007,3 hPa 0,0 l/m 19,5 km/h (3 Bft) O-SO 115 2 min 0,000 mm 4,1 UV-I 773 W/m 9,5 C 10,9 C 25,7 km/h (4 Bft) 100,00 %
17.05.2019 12:08 15,8 C 13,3 C 32,2 C 68 % 1007,2 hPa 0,0 l/m 16,2 km/h (3 Bft) O-NO 78 2 min 0,000 mm 4,1 UV-I 777 W/m 9,9 C 11,8 C 20,9 km/h (4 Bft) 97,37 %
17.05.2019 12:10 15,8 C 13,3 C 32,2 C 66 % 1007,2 hPa 0,0 l/m 14,2 km/h (3 Bft) O-NO 69 2 min 0,000 mm 4,1 UV-I 785 W/m 9,5 C 12,4 C 19,3 km/h (3 Bft) 96,61 %
17.05.2019 12:12 15,8 C 13,3 C 32,8 C 68 % 1007,2 hPa 0,0 l/m 11,2 km/h (2 Bft) O-NO 71 2 min 0,000 mm 4,0 UV-I 758 W/m 9,9 C 13,5 C 17,7 km/h (3 Bft) 100,00 %
17.05.2019 12:14 15,9 C 13,3 C 32,2 C 68 % 1007,3 hPa 0,0 l/m 18,8 km/h (3 Bft) O-NO 66 2 min 0,000 mm 4,2 UV-I 810 W/m 10,0 C 11,2 C 25,7 km/h (4 Bft) 100,00 %
17.05.2019 12:16 15,9 C 13,9 C 32,2 C 65 % 1007,3 hPa 0,0 l/m 19,7 km/h (3 Bft) O 88 2 min 0,000 mm 4,2 UV-I 785 W/m 9,3 C 11,0 C 27,4 km/h (4 Bft) 100,00 %
17.05.2019 12:18 16,0 C 13,9 C 32,2 C 68 % 1007,2 hPa 0,0 l/m 17,4 km/h (3 Bft) O 100 2 min 0,000 mm 4,2 UV-I 785 W/m 10,1 C 11,7 C 29,0 km/h (5 Bft) 100,00 %
17.05.2019 12:20 16,1 C 13,9 C 32,2 C 69 % 1007,1 hPa 0,0 l/m 20,0 km/h (4 Bft) O-NO 65 2 min 0,000 mm 4,2 UV-I 789 W/m 10,4 C 11,2 C 25,7 km/h (4 Bft) 100,00 %
17.05.2019 12:22 16,1 C 13,9 C 31,7 C 66 % 1007,1 hPa 0,0 l/m 15,9 km/h (3 Bft) O-NO 57 2 min 0,000 mm 4,2 UV-I 784 W/m 9,7 C 12,3 C 22,5 km/h (4 Bft) 100,00 %
17.05.2019 12:24 16,1 C 13,9 C 32,8 C 68 % 1007,1 hPa 0,0 l/m 14,0 km/h (3 Bft) NO 46 2 min 0,000 mm 4,3 UV-I 785 W/m 10,2 C 12,8 C 22,5 km/h (4 Bft) 100,00 %
17.05.2019 12:26 16,2 C 13,9 C 33,3 C 70 % 1007,0 hPa 0,0 l/m 13,1 km/h (3 Bft) O-NO 72 2 min 0,000 mm 4,3 UV-I 781 W/m 10,7 C 13,3 C 19,3 km/h (3 Bft) 100,00 %
17.05.2019 12:28 16,3 C 13,9 C 33,3 C 72 % 1007,0 hPa 0,0 l/m 17,3 km/h (3 Bft) N-NO 31 2 min 0,000 mm 4,3 UV-I 785 W/m 11,2 C 12,1 C 24,1 km/h (4 Bft) 100,00 %
17.05.2019 12:30 16,4 C 13,9 C 33,3 C 69 % 1006,9 hPa 0,0 l/m 14,3 km/h (3 Bft) O-NO 59 2 min 0,000 mm 4,3 UV-I 787 W/m 10,7 C 13,1 C 22,5 km/h (4 Bft) 96,23 %
17.05.2019 12:32 16,6 C 13,9 C 32,8 C 67 % 1007,0 hPa 0,0 l/m 19,2 km/h (3 Bft) O-NO 58 2 min 0,000 mm 4,3 UV-I 788 W/m 10,4 C 12,0 C 25,7 km/h (4 Bft) 100,00 %
17.05.2019 12:34 16,7 C 13,9 C 32,8 C 68 % 1006,9 hPa 0,0 l/m 15,8 km/h (3 Bft) O 86 2 min 0,000 mm 4,3 UV-I 789 W/m 10,8 C 13,0 C 24,1 km/h (4 Bft) 97,56 %
17.05.2019 12:36 16,7 C 13,9 C 33,3 C 67 % 1007,0 hPa 0,0 l/m 17,7 km/h (3 Bft) O 92 2 min 0,000 mm 4,4 UV-I 792 W/m 10,5 C 12,5 C 25,7 km/h (4 Bft) 98,33 %
17.05.2019 12:38 16,7 C 13,9 C 33,3 C 65 % 1006,9 hPa 0,0 l/m 18,6 km/h (3 Bft) O-NO 78 2 min 0,000 mm 4,4 UV-I 792 W/m 10,1 C 12,3 C 29,0 km/h (5 Bft) 91,67 %
17.05.2019 12:40 16,7 C 13,9 C 33,3 C 68 % 1006,9 hPa 0,0 l/m 15,6 km/h (3 Bft) O-NO 62 2 min 0,000 mm 4,4 UV-I 789 W/m 10,8 C 13,1 C 24,1 km/h (4 Bft) 96,77 %
17.05.2019 12:42 16,7 C 13,9 C 32,8 C 68 % 1006,9 hPa 0,0 l/m 16,6 km/h (3 Bft) NO 34 2 min 0,000 mm 4,4 UV-I 792 W/m 10,8 C 12,8 C 24,1 km/h (4 Bft) 96,36 %
17.05.2019 12:44 16,6 C 13,9 C 32,8 C 67 % 1006,9 hPa 0,0 l/m 14,7 km/h (3 Bft) N-NO 16 2 min 0,000 mm 4,4 UV-I 791 W/m 10,4 C 13,2 C 22,5 km/h (4 Bft) 97,87 %
17.05.2019 12:46 16,7 C 13,9 C 32,8 C 67 % 1006,9 hPa 0,0 l/m 19,2 km/h (3 Bft) O-NO 57 2 min 0,000 mm 4,4 UV-I 789 W/m 10,5 C 12,1 C 27,4 km/h (4 Bft) 100,00 %
17.05.2019 12:48 16,7 C 13,9 C 32,8 C 67 % 1006,9 hPa 0,0 l/m 14,2 km/h (3 Bft) O-NO 71 2 min 0,000 mm 4,4 UV-I 789 W/m 10,5 C 13,5 C 22,5 km/h (4 Bft) 96,43 %
17.05.2019 12:50 16,8 C 13,9 C 32,8 C 68 % 1006,9 hPa 0,0 l/m 16,2 km/h (3 Bft) NO 52 2 min 0,000 mm 4,3 UV-I 788 W/m 10,9 C 13,0 C 24,1 km/h (4 Bft) 96,23 %
17.05.2019 12:52 16,9 C 13,9 C 33,3 C 66 % 1006,9 hPa 0,0 l/m 18,1 km/h (3 Bft) O 88 2 min 0,000 mm 4,3 UV-I 792 W/m 10,5 C 12,7 C 24,1 km/h (4 Bft) 97,87 %
17.05.2019 12:54 16,9 C 13,9 C 32,8 C 66 % 1006,8 hPa 0,0 l/m 14,3 km/h (3 Bft) O-NO 74 2 min 0,000 mm 4,4 UV-I 790 W/m 10,5 C 13,7 C 22,5 km/h (4 Bft) 98,00 %
17.05.2019 12:56 16,9 C 13,9 C 32,8 C 63 % 1006,8 hPa 0,0 l/m 19,2 km/h (3 Bft) O-NO 60 2 min 0,000 mm 4,4 UV-I 788 W/m 9,8 C 12,4 C 25,7 km/h (4 Bft) 95,74 %
17.05.2019 12:58 16,8 C 13,9 C 32,8 C 64 % 1006,8 hPa 0,0 l/m 16,1 km/h (3 Bft) O 89 2 min 0,000 mm 4,4 UV-I 793 W/m 10,0 C 13,1 C 20,9 km/h (4 Bft) 95,74 %
17.05.2019 13:00 16,8 C 13,9 C 33,3 C 65 % 1006,8 hPa 0,0 l/m 15,0 km/h (3 Bft) O-NO 63 2 min 0,483 mm 4,4 UV-I 792 W/m 10,2 C 13,4 C 20,9 km/h (4 Bft) 97,87 %
17.05.2019 13:02 16,8 C 13,9 C 33,3 C 65 % 1006,7 hPa 0,0 l/m 13,0 km/h (3 Bft) O-NO 66 2 min 0,000 mm 4,4 UV-I 792 W/m 10,2 C 14,0 C 19,3 km/h (3 Bft) 100,00 %
17.05.2019 13:04 16,9 C 13,9 C 33,9 C 69 % 1006,6 hPa 0,0 l/m 14,9 km/h (3 Bft) NO 49 2 min 0,000 mm 4,4 UV-I 789 W/m 11,2 C 13,5 C 17,7 km/h (3 Bft) 100,00 %
17.05.2019 13:06 17,1 C 13,9 C 34,4 C 67 % 1006,7 hPa 0,0 l/m 15,2 km/h (3 Bft) O 82 2 min 0,000 mm 4,4 UV-I 788 W/m 10,9 C 13,7 C 22,5 km/h (4 Bft) 97,87 %
17.05.2019 13:08 17,1 C 13,9 C 35,0 C 65 % 1006,7 hPa 0,0 l/m 13,1 km/h (3 Bft) O 95 2 min 0,000 mm 4,4 UV-I 789 W/m 10,5 C 14,3 C 22,5 km/h (4 Bft) 100,00 %
17.05.2019 13:10 17,2 C 13,9 C 35,6 C 64 % 1006,6 hPa 0,0 l/m 15,6 km/h (3 Bft) O 82 2 min 0,000 mm 4,4 UV-I 789 W/m 10,3 C 13,7 C 22,5 km/h (4 Bft) 95,74 %
17.05.2019 13:12 17,2 C 13,9 C 33,9 C 63 % 1006,6 hPa 0,0 l/m 18,7 km/h (3 Bft) O-NO 65 2 min 0,000 mm 4,4 UV-I 790 W/m 10,1 C 12,9 C 24,1 km/h (4 Bft) 97,62 %
17.05.2019 13:14 17,3 C 13,9 C 33,9 C 68 % 1006,6 hPa 0,0 l/m 19,5 km/h (3 Bft) O-NO 59 2 min 0,000 mm 4,4 UV-I 786 W/m 11,3 C 12,8 C 25,7 km/h (4 Bft) 98,00 %
17.05.2019 13:16 17,2 C 13,9 C 33,9 C 65 % 1006,6 hPa 0,0 l/m 16,4 km/h (3 Bft) O-NO 73 2 min 0,000 mm 4,4 UV-I 783 W/m 10,6 C 13,5 C 25,7 km/h (4 Bft) 94,00 %
17.05.2019 13:18 17,2 C 13,9 C 33,9 C 65 % 1006,6 hPa 0,0 l/m 17,4 km/h (3 Bft) O 96 2 min 0,000 mm 4,4 UV-I 789 W/m 10,6 C 13,2 C 22,5 km/h (4 Bft) 97,56 %
17.05.2019 13:20 17,2 C 13,9 C 33,9 C 64 % 1006,6 hPa 0,0 l/m 13,5 km/h (3 Bft) O-NO 68 2 min 0,000 mm 4,4 UV-I 787 W/m 10,3 C 14,3 C 19,3 km/h (3 Bft) 98,00 %
17.05.2019 13:22 17,3 C 13,9 C 34,4 C 68 % 1006,6 hPa 0,0 l/m 12,8 km/h (3 Bft) O-SO 115 2 min 0,000 mm 4,4 UV-I 786 W/m 11,3 C 14,7 C 17,7 km/h (3 Bft) 97,87 %
17.05.2019 13:24 17,4 C 13,9 C 33,9 C 65 % 1006,5 hPa 0,0 l/m 16,5 km/h (3 Bft) NO 42 2 min 0,000 mm 4,4 UV-I 786 W/m 10,8 C 13,7 C 25,7 km/h (4 Bft) 97,37 %
17.05.2019 13:26 17,4 C 13,9 C 33,3 C 65 % 1006,6 hPa 0,0 l/m 14,7 km/h (3 Bft) O 88 2 min 0,000 mm 4,4 UV-I 783 W/m 10,8 C 14,2 C 22,5 km/h (4 Bft) 98,00 %
17.05.2019 13:28 17,4 C 13,9 C 33,3 C 65 % 1006,6 hPa 0,0 l/m 16,4 km/h (3 Bft) O-SO 111 2 min 0,000 mm 4,4 UV-I 784 W/m 10,8 C 13,7 C 22,5 km/h (4 Bft) 96,23 %
17.05.2019 13:30 17,5 C 13,9 C 33,9 C 64 % 1006,6 hPa 0,0 l/m 14,3 km/h (3 Bft) O-NO 65 2 min 0,000 mm 4,4 UV-I 784 W/m 10,6 C 14,4 C 24,1 km/h (4 Bft) 97,37 %
17.05.2019 13:32 17,5 C 13,9 C 33,3 C 62 % 1006,5 hPa 0,0 l/m 18,5 km/h (3 Bft) O-NO 61 2 min 0,000 mm 4,4 UV-I 781 W/m 10,1 C 13,3 C 24,1 km/h (4 Bft) 94,00 %
17.05.2019 13:34 17,4 C 13,9 C 33,3 C 64 % 1006,5 hPa 0,0 l/m 19,1 km/h (3 Bft) O-NO 65 2 min 0,000 mm 4,3 UV-I 775 W/m 10,5 C 13,0 C 29,0 km/h (5 Bft) 98,00 %
17.05.2019 13:36 17,4 C 13,9 C 33,3 C 65 % 1006,5 hPa 0,0 l/m 15,7 km/h (3 Bft) NO 56 2 min 0,000 mm 4,3 UV-I 777 W/m 10,8 C 13,9 C 24,1 km/h (4 Bft) 100,00 %
17.05.2019 13:38 17,5 C 14,4 C 33,3 C 65 % 1006,5 hPa 0,0 l/m 14,0 km/h (3 Bft) O-NO 58 2 min 0,000 mm 4,2 UV-I 769 W/m 10,8 C 14,5 C 20,9 km/h (4 Bft) 100,00 %
17.05.2019 13:40 17,7 C 14,4 C 33,9 C 68 % 1006,4 hPa 0,0 l/m 18,1 km/h (3 Bft) O 88 2 min 0,000 mm 4,3 UV-I 774 W/m 11,7 C 13,7 C 27,4 km/h (4 Bft) 100,00 %
17.05.2019 13:42 17,8 C 14,4 C 33,9 C 63 % 1006,5 hPa 0,0 l/m 15,5 km/h (3 Bft) O 80 2 min 0,000 mm 4,3 UV-I 774 W/m 10,7 C 14,4 C 20,9 km/h (4 Bft) 100,00 %
17.05.2019 13:44 17,8 C 14,4 C 32,8 C 63 % 1006,4 hPa 0,0 l/m 20,4 km/h (4 Bft) O 91 2 min 0,000 mm 4,3 UV-I 773 W/m 10,7 C 13,3 C 27,4 km/h (4 Bft) 98,00 %
17.05.2019 13:46 17,8 C 14,4 C 32,8 C 64 % 1006,4 hPa 0,0 l/m 17,7 km/h (3 Bft) NO 46 2 min 0,000 mm 4,3 UV-I 767 W/m 10,9 C 13,9 C 24,1 km/h (4 Bft) 100,00 %
17.05.2019 13:48 17,9 C 14,4 C 33,3 C 65 % 1006,3 hPa 0,0 l/m 14,2 km/h (3 Bft) O 86 2 min 0,000 mm 4,3 UV-I 773 W/m 11,2 C 14,9 C 22,5 km/h (4 Bft) 100,00 %
17.05.2019 13:50 18,1 C 14,4 C 34,4 C 67 % 1006,3 hPa 0,0 l/m 14,6 km/h (3 Bft) NO 49 2 min 0,000 mm 4,3 UV-I 773 W/m 11,9 C 15,1 C 25,7 km/h (4 Bft) 100,00 %
17.05.2019 13:52 18,1 C 14,4 C 33,9 C 62 % 1006,3 hPa 0,0 l/m 20,3 km/h (4 Bft) O 90 2 min 0,000 mm 4,3 UV-I 770 W/m 10,7 C 13,7 C 27,4 km/h (4 Bft) 100,00 %
17.05.2019 13:54 18,0 C 14,4 C 33,9 C 63 % 1006,3 hPa 0,0 l/m 12,4 km/h (3 Bft) O-NO 65 2 min 0,000 mm 4,3 UV-I 767 W/m 10,8 C 15,6 C 20,9 km/h (4 Bft) 100,00 %
17.05.2019 13:56 18,0 C 14,4 C 33,9 C 66 % 1006,3 hPa 0,0 l/m 12,9 km/h (3 Bft) NO 49 2 min 0,000 mm 4,3 UV-I 765 W/m 11,6 C 15,4 C 19,3 km/h (3 Bft) 100,00 %
17.05.2019 13:58 17,9 C 14,4 C 33,3 C 65 % 1006,3 hPa 0,0 l/m 17,8 km/h (3 Bft) O-NO 71 2 min 0,000 mm 4,2 UV-I 760 W/m 11,2 C 14,0 C 27,4 km/h (4 Bft) 100,00 %
17.05.2019 14:00 17,9 C 14,4 C 33,3 C 65 % 1006,3 hPa 0,0 l/m 18,7 km/h (3 Bft) O-NO 69 2 min 0,000 mm 4,2 UV-I 756 W/m 11,2 C 13,8 C 27,4 km/h (4 Bft) 98,36 %
17.05.2019 14:02 17,9 C 14,4 C 32,8 C 66 % 1006,3 hPa 0,0 l/m 19,9 km/h (4 Bft) O-NO 60 2 min 0,508 mm 4,2 UV-I 758 W/m 11,5 C 13,5 C 32,2 km/h (5 Bft) 96,23 %
17.05.2019 14:04 17,9 C 14,4 C 32,8 C 65 % 1006,3 hPa 0,0 l/m 18,4 km/h (3 Bft) O-NO 77 2 min 0,000 mm 4,2 UV-I 757 W/m 11,2 C 13,8 C 24,1 km/h (4 Bft) 100,00 %
17.05.2019 14:06 17,9 C 14,4 C 33,3 C 64 % 1006,3 hPa 0,0 l/m 12,7 km/h (3 Bft) NO 53 2 min 0,000 mm 4,2 UV-I 755 W/m 11,0 C 15,4 C 20,9 km/h (4 Bft) 100,00 %
17.05.2019 14:08 18,1 C 14,4 C 33,9 C 66 % 1006,3 hPa 0,0 l/m 14,0 km/h (3 Bft) NO 43 2 min 0,000 mm 4,2 UV-I 752 W/m 11,6 C 15,2 C 20,9 km/h (4 Bft) 100,00 %
17.05.2019 14:10 18,3 C 14,4 C 33,9 C 64 % 1006,3 hPa 0,0 l/m 14,9 km/h (3 Bft) O-NO 60 2 min 0,000 mm 4,2 UV-I 756 W/m 11,4 C 15,2 C 20,9 km/h (4 Bft) 100,00 %
17.05.2019 14:12 18,4 C 14,4 C 33,9 C 65 % 1006,2 hPa 0,0 l/m 18,0 km/h (3 Bft) O 80 2 min 0,000 mm 4,2 UV-I 753 W/m 11,7 C 14,6 C 24,1 km/h (4 Bft) 97,37 %
17.05.2019 14:14 18,4 C 14,4 C 33,9 C 64 % 1006,2 hPa 0,0 l/m 22,2 km/h (4 Bft) O 84 2 min 0,000 mm 4,2 UV-I 749 W/m 11,5 C 13,7 C 30,6 km/h (5 Bft) 100,00 %
17.05.2019 14:16 18,3 C 14,4 C 32,8 C 62 % 1006,1 hPa 0,0 l/m 18,2 km/h (3 Bft) O-NO 67 2 min 0,000 mm 4,1 UV-I 743 W/m 10,9 C 14,4 C 24,1 km/h (4 Bft) 96,23 %
17.05.2019 14:18 18,2 C 14,4 C 31,7 C 62 % 1006,2 hPa 0,0 l/m 17,7 km/h (3 Bft) O-SO 102 2 min 0,000 mm 4,1 UV-I 736 W/m 10,8 C 14,4 C 25,7 km/h (4 Bft) 97,56 %
17.05.2019 14:21 18,2 C 14,4 C 32,2 C 62 % 1006,1 hPa 0,0 l/m 20,0 km/h (4 Bft) O 93 3 min 0,000 mm 4,1 UV-I 741 W/m 10,8 C 13,9 C 27,4 km/h (4 Bft) 95,71 %
17.05.2019 14:22 18,2 C 14,4 C 32,2 C 62 % 1006,1 hPa 0,0 l/m 20,8 km/h (4 Bft) O 93 1 min 0,000 mm 4,1 UV-I 742 W/m 10,8 C 13,7 C 27,4 km/h (4 Bft) 100,00 %
17.05.2019 14:24 18,2 C 14,4 C 32,8 C 61 % 1006,1 hPa 0,0 l/m 14,1 km/h (3 Bft) O-NO 72 2 min 0,000 mm 4,1 UV-I 740 W/m 10,6 C 15,3 C 29,0 km/h (5 Bft) 95,12 %
17.05.2019 14:26 18,3 C 14,4 C 32,8 C 62 % 1006,1 hPa 0,0 l/m 20,9 km/h (4 Bft) O-SO 112 2 min 0,000 mm 4,1 UV-I 738 W/m 10,9 C 13,8 C 29,0 km/h (5 Bft) 93,62 %
17.05.2019 14:28 18,4 C 14,4 C 33,3 C 64 % 1006,1 hPa 0,0 l/m 16,3 km/h (3 Bft) NO 44 2 min 0,000 mm 4,0 UV-I 735 W/m 11,5 C 15,0 C 22,5 km/h (4 Bft) 95,74 %
17.05.2019 14:30 18,5 C 14,4 C 32,8 C 62 % 1006,0 hPa 0,0 l/m 18,6 km/h (3 Bft) O-NO 64 2 min 0,000 mm 4,0 UV-I 730 W/m 11,1 C 14,6 C 24,1 km/h (4 Bft) 97,87 %
17.05.2019 14:32 18,4 C 14,4 C 32,8 C 62 % 1006,0 hPa 0,0 l/m 17,4 km/h (3 Bft) O-NO 70 2 min 0,000 mm 4,0 UV-I 728 W/m 11,0 C 14,7 C 27,4 km/h (4 Bft) 98,11 %
17.05.2019 14:34 18,4 C 14,4 C 31,7 C 60 % 1006,0 hPa 0,0 l/m 22,8 km/h (4 Bft) O-NO 71 2 min 0,000 mm 3,9 UV-I 724 W/m 10,5 C 13,6 C 32,2 km/h (5 Bft) 95,45 %
17.05.2019 14:36 18,4 C 14,4 C 32,2 C 61 % 1006,0 hPa 0,0 l/m 21,6 km/h (4 Bft) O-NO 62 2 min 0,000 mm 3,9 UV-I 722 W/m 10,7 C 13,8 C 27,4 km/h (4 Bft) 94,87 %
17.05.2019 14:38 18,4 C 14,4 C 32,2 C 62 % 1006,0 hPa 0,0 l/m 20,2 km/h (4 Bft) O-NO 59 2 min 0,000 mm 3,9 UV-I 721 W/m 11,0 C 14,1 C 29,0 km/h (5 Bft) 96,00 %
17.05.2019 14:40 18,4 C 14,4 C 32,8 C 64 % 1006,0 hPa 0,0 l/m 13,8 km/h (3 Bft) O 101 2 min 0,000 mm 3,9 UV-I 718 W/m 11,5 C 15,6 C 19,3 km/h (3 Bft) 92,31 %
17.05.2019 14:42 18,5 C 14,4 C 32,8 C 61 % 1005,9 hPa 0,0 l/m 20,8 km/h (4 Bft) O-NO 61 2 min 0,000 mm 3,9 UV-I 718 W/m 10,8 C 14,1 C 25,7 km/h (4 Bft) 95,24 %
17.05.2019 14:44 18,6 C 14,4 C 32,8 C 61 % 1006,0 hPa 0,0 l/m 19,6 km/h (3 Bft) O 82 2 min 0,000 mm 3,9 UV-I 716 W/m 10,9 C 14,5 C 24,1 km/h (4 Bft) 95,45 %
17.05.2019 14:46 18,6 C 14,4 C 32,2 C 59 % 1006,0 hPa 0,0 l/m 17,0 km/h (3 Bft) NO 47 2 min 0,000 mm 3,8 UV-I 714 W/m 10,4 C 15,1 C 24,1 km/h (4 Bft) 94,83 %
17.05.2019 14:48 18,6 C 14,4 C 33,3 C 63 % 1005,9 hPa 0,0 l/m 17,0 km/h (3 Bft) O-NO 60 2 min 0,000 mm 3,8 UV-I 710 W/m 11,4 C 15,1 C 24,1 km/h (4 Bft) 96,15 %
17.05.2019 14:50 18,6 C 14,4 C 32,8 C 64 % 1005,8 hPa 0,0 l/m 18,8 km/h (3 Bft) NO 38 2 min 0,000 mm 3,8 UV-I 707 W/m 11,7 C 14,6 C 22,5 km/h (4 Bft) 97,06 %
17.05.2019 14:52 18,8 C 14,4 C 33,3 C 65 % 1005,9 hPa 0,0 l/m 17,4 km/h (3 Bft) O-NO 65 2 min 0,000 mm 3,7 UV-I 704 W/m 12,1 C 15,2 C 27,4 km/h (4 Bft) 97,87 %
17.05.2019 14:54 18,8 C 14,4 C 32,8 C 60 % 1005,8 hPa 0,0 l/m 18,3 km/h (3 Bft) O-NO 61 2 min 0,000 mm 3,7 UV-I 698 W/m 10,9 C 15,0 C 25,7 km/h (4 Bft) 97,14 %
17.05.2019 14:56 18,7 C 14,4 C 32,8 C 59 % 1005,8 hPa 0,0 l/m 17,6 km/h (3 Bft) O-NO 57 2 min 0,000 mm 3,7 UV-I 697 W/m 10,5 C 15,0 C 25,7 km/h (4 Bft) 96,61 %
17.05.2019 14:58 18,8 C 14,4 C 33,3 C 63 % 1005,7 hPa 0,0 l/m 16,7 km/h (3 Bft) NO 55 2 min 0,000 mm 3,6 UV-I 692 W/m 11,6 C 15,4 C 27,4 km/h (4 Bft) 97,56 %
17.05.2019 15:00 18,9 C 14,4 C 33,9 C 63 % 1005,7 hPa 0,0 l/m 12,1 km/h (2 Bft) N-NO 24 2 min 0,000 mm 3,6 UV-I 688 W/m 11,7 C 16,7 C 17,7 km/h (3 Bft) 98,11 %
17.05.2019 15:02 18,9 C 14,4 C 33,3 C 63 % 1005,7 hPa 0,0 l/m 20,2 km/h (4 Bft) O 81 2 min 0,482 mm 3,6 UV-I 681 W/m 11,7 C 14,7 C 29,0 km/h (5 Bft) 100,00 %
17.05.2019 15:04 18,9 C 14,4 C 32,2 C 58 % 1005,7 hPa 0,0 l/m 17,1 km/h (3 Bft) O 91 2 min 0,000 mm 3,5 UV-I 680 W/m 10,5 C 15,4 C 24,1 km/h (4 Bft) 100,00 %
17.05.2019 15:06 18,8 C 14,4 C 32,2 C 60 % 1005,8 hPa 0,0 l/m 16,6 km/h (3 Bft) O-NO 74 2 min 0,000 mm 3,5 UV-I 677 W/m 10,9 C 15,4 C 24,1 km/h (4 Bft) 100,00 %
17.05.2019 15:08 18,8 C 15,0 C 32,8 C 62 % 1005,7 hPa 0,0 l/m 20,6 km/h (4 Bft) NO 51 2 min 0,000 mm 3,5 UV-I 672 W/m 11,4 C 14,5 C 25,7 km/h (4 Bft) 97,87 %
17.05.2019 15:10 18,8 C 15,0 C 32,8 C 63 % 1005,7 hPa 0,0 l/m 19,7 km/h (3 Bft) O-NO 64 2 min 0,000 mm 3,4 UV-I 672 W/m 11,6 C 14,7 C 29,0 km/h (5 Bft) 100,00 %
17.05.2019 15:12 18,8 C 15,0 C 32,8 C 63 % 1005,7 hPa 0,0 l/m 19,7 km/h (3 Bft) O-NO 78 2 min 0,000 mm 3,4 UV-I 669 W/m 11,6 C 14,7 C 25,7 km/h (4 Bft) 100,00 %
17.05.2019 15:14 18,8 C 15,0 C 32,8 C 62 % 1005,7 hPa 0,0 l/m 20,2 km/h (4 Bft) O 92 2 min 0,000 mm 3,4 UV-I 668 W/m 11,4 C 14,6 C 27,4 km/h (4 Bft) 100,00 %
17.05.2019 15:16 18,9 C 15,0 C 32,8 C 60 % 1005,7 hPa 0,0 l/m 21,8 km/h (4 Bft) O-NO 63 2 min 0,000 mm 3,4 UV-I 664 W/m 11,0 C 14,4 C 30,6 km/h (5 Bft) 100,00 %
17.05.2019 15:18 18,9 C 15,0 C 31,7 C 57 % 1005,7 hPa 0,0 l/m 21,8 km/h (4 Bft) O-NO 72 2 min 0,000 mm 3,3 UV-I 660 W/m 10,2 C 14,4 C 27,4 km/h (4 Bft) 100,00 %
17.05.2019 15:20 18,8 C 15,0 C 32,2 C 58 % 1005,7 hPa 0,0 l/m 17,8 km/h (3 Bft) NO 45 2 min 0,000 mm 3,3 UV-I 656 W/m 10,4 C 15,1 C 22,5 km/h (4 Bft) 100,00 %
17.05.2019 15:22 18,9 C 15,0 C 31,7 C 62 % 1005,7 hPa 0,0 l/m 16,5 km/h (3 Bft) O 83 2 min 0,000 mm 3,3 UV-I 651 W/m 11,5 C 15,5 C 24,1 km/h (4 Bft) 100,00 %
17.05.2019 15:24 18,9 C 15,0 C 31,7 C 60 % 1005,6 hPa 0,0 l/m 18,3 km/h (3 Bft) O-NO 67 2 min 0,000 mm 3,2 UV-I 647 W/m 11,0 C 15,1 C 29,0 km/h (5 Bft) 97,37 %
17.05.2019 15:26 19,0 C 15,0 C 31,7 C 61 % 1005,6 hPa 0,0 l/m 16,1 km/h (3 Bft) O-NO 63 2 min 0,000 mm 3,2 UV-I 641 W/m 11,3 C 15,8 C 27,4 km/h (4 Bft) 100,00 %
17.05.2019 15:28 19,0 C 15,0 C 32,2 C 62 % 1005,6 hPa 0,0 l/m 15,8 km/h (3 Bft) NO 53 2 min 0,000 mm 3,2 UV-I 642 W/m 11,6 C 15,8 C 24,1 km/h (4 Bft) 100,00 %
17.05.2019 15:30 19,0 C 15,0 C 32,2 C 60 % 1005,6 hPa 0,0 l/m 17,9 km/h (3 Bft) NO 55 2 min 0,000 mm 3,2 UV-I 639 W/m 11,1 C 15,4 C 29,0 km/h (5 Bft) 100,00 %
17.05.2019 15:32 19,1 C 15,0 C 32,2 C 61 % 1005,6 hPa 0,0 l/m 23,7 km/h (4 Bft) NO 44 2 min 0,000 mm 3,1 UV-I 637 W/m 11,4 C 14,4 C 32,2 km/h (5 Bft) 100,00 %
17.05.2019 15:34 19,1 C 15,0 C 31,7 C 60 % 1005,5 hPa 0,0 l/m 23,7 km/h (4 Bft) NO 49 2 min 0,000 mm 3,1 UV-I 631 W/m 11,1 C 14,4 C 30,6 km/h (5 Bft) 98,11 %
17.05.2019 15:36 19,0 C 15,0 C 31,7 C 59 % 1005,6 hPa 0,0 l/m 17,7 km/h (3 Bft) O-NO 69 2 min 0,000 mm 3,1 UV-I 628 W/m 10,8 C 15,4 C 24,1 km/h (4 Bft) 100,00 %
17.05.2019 15:38 18,9 C 15,0 C 31,7 C 58 % 1005,6 hPa 0,0 l/m 13,2 km/h (3 Bft) NO 48 2 min 0,000 mm 3,0 UV-I 625 W/m 10,5 C 16,4 C 19,3 km/h (3 Bft) 100,00 %
17.05.2019 15:40 19,1 C 15,0 C 32,2 C 59 % 1005,6 hPa 0,0 l/m 14,9 km/h (3 Bft) O-NO 57 2 min 0,000 mm 3,0 UV-I 621 W/m 10,9 C 16,2 C 22,5 km/h (4 Bft) 100,00 %
17.05.2019 15:42 19,2 C 15,0 C 32,2 C 61 % 1005,5 hPa 0,0 l/m 20,6 km/h (4 Bft) NO 52 2 min 0,000 mm 3,0 UV-I 618 W/m 11,5 C 15,1 C 29,0 km/h (5 Bft) 100,00 %
17.05.2019 15:44 19,2 C 15,0 C 31,7 C 61 % 1005,5 hPa 0,0 l/m 19,3 km/h (3 Bft) O 82 2 min 0,000 mm 2,9 UV-I 612 W/m 11,5 C 15,3 C 25,7 km/h (4 Bft) 98,11 %
17.05.2019 15:46 19,2 C 15,0 C 31,7 C 58 % 1005,5 hPa 0,0 l/m 17,1 km/h (3 Bft) O-SO 110 2 min 0,000 mm 2,9 UV-I 607 W/m 10,7 C 15,8 C 22,5 km/h (4 Bft) 100,00 %
17.05.2019 15:48 19,2 C 15,0 C 31,7 C 59 % 1005,5 hPa 0,0 l/m 20,5 km/h (4 Bft) O-NO 70 2 min 0,000 mm 2,9 UV-I 603 W/m 11,0 C 15,1 C 27,4 km/h (4 Bft) 100,00 %
17.05.2019 15:50 19,2 C 15,0 C 31,1 C 57 % 1005,5 hPa 0,0 l/m 21,5 km/h (4 Bft) O 86 2 min 0,000 mm 2,8 UV-I 599 W/m 10,5 C 14,9 C 27,4 km/h (4 Bft) 100,00 %
17.05.2019 15:52 19,2 C 15,0 C 30,6 C 57 % 1005,4 hPa 0,0 l/m 20,9 km/h (4 Bft) O-NO 74 2 min 0,000 mm 2,8 UV-I 596 W/m 10,5 C 15,0 C 29,0 km/h (5 Bft) 100,00 %
17.05.2019 15:54 19,1 C 15,0 C 30,6 C 56 % 1005,4 hPa 0,0 l/m 18,6 km/h (3 Bft) O-NO 64 2 min 0,000 mm 2,8 UV-I 594 W/m 10,1 C 15,3 C 25,7 km/h (4 Bft) 100,00 %
17.05.2019 15:56 19,1 C 15,0 C 30,6 C 59 % 1005,3 hPa 0,0 l/m 23,2 km/h (4 Bft) NO 51 2 min 0,000 mm 2,7 UV-I 589 W/m 10,9 C 14,5 C 30,6 km/h (5 Bft) 100,00 %
17.05.2019 15:58 19,2 C 15,0 C 30,6 C 59 % 1005,4 hPa 0,0 l/m 20,3 km/h (4 Bft) O 101 2 min 0,000 mm 2,7 UV-I 584 W/m 11,0 C 15,1 C 29,0 km/h (5 Bft) 100,00 %
17.05.2019 16:00 19,1 C 15,0 C 30,6 C 56 % 1005,4 hPa 0,0 l/m 18,5 km/h (3 Bft) O-NO 57 2 min 0,458 mm 2,6 UV-I 579 W/m 10,1 C 15,3 C 25,7 km/h (4 Bft) 97,73 %
17.05.2019 16:02 19,1 C 15,0 C 30,6 C 57 % 1005,4 hPa 0,0 l/m 16,8 km/h (3 Bft) NO 55 2 min 0,000 mm 2,6 UV-I 576 W/m 10,4 C 15,7 C 22,5 km/h (4 Bft) 98,00 %
17.05.2019 16:04 19,2 C 15,0 C 31,1 C 60 % 1005,3 hPa 0,0 l/m 20,6 km/h (4 Bft) O-NO 74 2 min 0,000 mm 2,6 UV-I 571 W/m 11,2 C 15,1 C 29,0 km/h (5 Bft) 97,56 %
17.05.2019 16:06 19,2 C 15,0 C 30,6 C 58 % 1005,4 hPa 0,0 l/m 18,7 km/h (3 Bft) O-NO 71 2 min 0,000 mm 2,5 UV-I 567 W/m 10,7 C 15,4 C 29,0 km/h (5 Bft) 95,74 %
17.05.2019 16:08 19,2 C 15,0 C 30,6 C 57 % 1005,4 hPa 0,0 l/m 18,9 km/h (3 Bft) O-NO 69 2 min 0,000 mm 2,5 UV-I 561 W/m 10,5 C 15,4 C 25,7 km/h (4 Bft) 93,75 %
17.05.2019 16:10 19,2 C 15,0 C 30,0 C 57 % 1005,2 hPa 0,0 l/m 20,5 km/h (4 Bft) NO 46 2 min 0,000 mm 2,5 UV-I 557 W/m 10,5 C 15,1 C 30,6 km/h (5 Bft) 94,23 %
17.05.2019 16:12 19,2 C 15,0 C 29,4 C 58 % 1005,2 hPa 0,0 l/m 23,2 km/h (4 Bft) O 85 2 min 0,000 mm 2,4 UV-I 553 W/m 10,7 C 14,6 C 32,2 km/h (5 Bft) 97,44 %
17.05.2019 16:14 19,2 C 15,0 C 30,0 C 57 % 1005,3 hPa 0,0 l/m 23,1 km/h (4 Bft) O 85 2 min 0,000 mm 2,4 UV-I 549 W/m 10,5 C 14,6 C 37,0 km/h (5 Bft) 94,64 %
17.05.2019 16:16 19,3 C 15,0 C 30,6 C 56 % 1005,2 hPa 0,0 l/m 20,6 km/h (4 Bft) O 80 2 min 0,000 mm 2,4 UV-I 547 W/m 10,3 C 15,2 C 30,6 km/h (5 Bft) 94,74 %
17.05.2019 16:18 19,3 C 15,0 C 30,6 C 56 % 1005,3 hPa 0,0 l/m 14,4 km/h (3 Bft) O 80 2 min 0,000 mm 2,3 UV-I 544 W/m 10,3 C 16,6 C 19,3 km/h (3 Bft) 96,43 %
17.05.2019 16:20 19,3 C 15,0 C 30,6 C 57 % 1005,2 hPa 0,0 l/m 21,1 km/h (4 Bft) O 86 2 min 0,000 mm 2,3 UV-I 538 W/m 10,6 C 15,1 C 32,2 km/h (5 Bft) 93,62 %
17.05.2019 16:22 19,4 C 15,0 C 30,0 C 59 % 1005,2 hPa 0,0 l/m 15,1 km/h (3 Bft) O-NO 73 2 min 0,000 mm 2,3 UV-I 535 W/m 11,2 C 16,5 C 22,5 km/h (4 Bft) 94,00 %
17.05.2019 16:24 19,4 C 15,0 C 30,6 C 59 % 1005,2 hPa 0,0 l/m 19,1 km/h (3 Bft) O-NO 67 2 min 0,000 mm 2,2 UV-I 530 W/m 11,2 C 15,6 C 32,2 km/h (5 Bft) 95,74 %
17.05.2019 16:26 19,5 C 15,0 C 30,0 C 55 % 1005,3 hPa 0,0 l/m 23,1 km/h (4 Bft) O-NO 74 2 min 0,000 mm 2,2 UV-I 525 W/m 10,2 C 15,0 C 29,0 km/h (5 Bft) 97,14 %
17.05.2019 16:28 19,4 C 15,0 C 30,0 C 56 % 1005,2 hPa 0,0 l/m 22,4 km/h (4 Bft) O 80 2 min 0,000 mm 2,2 UV-I 521 W/m 10,4 C 15,0 C 30,6 km/h (5 Bft) 96,43 %
17.05.2019 16:30 19,3 C 15,0 C 29,4 C 54 % 1005,2 hPa 0,0 l/m 22,9 km/h (4 Bft) O-NO 69 2 min 0,000 mm 2,1 UV-I 516 W/m 9,8 C 14,8 C 30,6 km/h (5 Bft) 97,87 %
17.05.2019 16:32 19,2 C 15,0 C 29,4 C 56 % 1005,2 hPa 0,0 l/m 17,3 km/h (3 Bft) NO 47 2 min 0,000 mm 2,1 UV-I 512 W/m 10,2 C 15,7 C 24,1 km/h (4 Bft) 97,87 %
17.05.2019 16:34 19,2 C 15,0 C 30,0 C 57 % 1005,2 hPa 0,0 l/m 16,9 km/h (3 Bft) O-NO 72 2 min 0,000 mm 2,1 UV-I 508 W/m 10,5 C 15,8 C 24,1 km/h (4 Bft) 97,73 %
17.05.2019 16:36 19,2 C 15,0 C 30,0 C 57 % 1005,2 hPa 0,0 l/m 18,9 km/h (3 Bft) NO 50 2 min 0,000 mm 2,0 UV-I 504 W/m 10,5 C 15,4 C 27,4 km/h (4 Bft) 97,44 %
17.05.2019 16:38 19,3 C 15,0 C 30,0 C 55 % 1005,2 hPa 0,0 l/m 19,5 km/h (3 Bft) O 85 2 min 0,000 mm 2,0 UV-I 499 W/m 10,0 C 15,4 C 27,4 km/h (4 Bft) 100,00 %
17.05.2019 16:40 19,3 C 15,0 C 30,0 C 58 % 1005,2 hPa 0,0 l/m 19,5 km/h (3 Bft) O 81 2 min 0,000 mm 2,0 UV-I 493 W/m 10,8 C 15,4 C 29,0 km/h (5 Bft) 100,00 %
17.05.2019 16:42 19,3 C 15,0 C 29,4 C 55 % 1005,2 hPa 0,0 l/m 20,4 km/h (4 Bft) O 94 2 min 0,000 mm 1,9 UV-I 488 W/m 10,0 C 15,2 C 29,0 km/h (5 Bft) 97,87 %
17.05.2019 16:44 19,3 C 15,0 C 29,4 C 55 % 1005,2 hPa 0,0 l/m 23,9 km/h (4 Bft) O-NO 67 2 min 0,000 mm 1,9 UV-I 482 W/m 10,0 C 14,6 C 30,6 km/h (5 Bft) 100,00 %
17.05.2019 16:46 19,3 C 15,0 C 29,4 C 57 % 1005,2 hPa 0,0 l/m 18,2 km/h (3 Bft) O 79 2 min 0,000 mm 1,9 UV-I 478 W/m 10,6 C 15,7 C 25,7 km/h (4 Bft) 98,00 %
17.05.2019 16:48 19,3 C 15,0 C 28,9 C 56 % 1005,2 hPa 0,0 l/m 19,0 km/h (3 Bft) O-NO 70 2 min 0,000 mm 1,8 UV-I 475 W/m 10,3 C 15,5 C 24,1 km/h (4 Bft) 100,00 %
17.05.2019 16:50 19,2 C 15,0 C 28,3 C 54 % 1005,2 hPa 0,0 l/m 18,8 km/h (3 Bft) O-NO 58 2 min 0,000 mm 1,8 UV-I 469 W/m 9,7 C 15,4 C 25,7 km/h (4 Bft) 100,00 %
17.05.2019 16:52 19,3 C 15,0 C 28,9 C 56 % 1005,2 hPa 0,0 l/m 18,9 km/h (3 Bft) O-NO 72 2 min 0,000 mm 1,8 UV-I 464 W/m 10,3 C 15,5 C 25,7 km/h (4 Bft) 100,00 %
17.05.2019 16:54 19,2 C 15,0 C 28,9 C 54 % 1005,2 hPa 0,0 l/m 17,6 km/h (3 Bft) O 92 2 min 0,000 mm 1,7 UV-I 459 W/m 9,7 C 15,7 C 27,4 km/h (4 Bft) 100,00 %
17.05.2019 16:56 19,2 C 15,6 C 28,9 C 58 % 1005,2 hPa 0,0 l/m 15,9 km/h (3 Bft) NO 44 2 min 0,000 mm 1,7 UV-I 455 W/m 10,7 C 16,1 C 24,1 km/h (4 Bft) 100,00 %
17.05.2019 16:58 19,3 C 15,6 C 29,4 C 58 % 1005,1 hPa 0,0 l/m 17,8 km/h (3 Bft) O 96 2 min 0,000 mm 1,7 UV-I 451 W/m 10,8 C 15,8 C 24,1 km/h (4 Bft) 97,87 %
17.05.2019 17:00 19,3 C 15,6 C 28,9 C 56 % 1005,2 hPa 0,0 l/m 19,1 km/h (3 Bft) O-NO 59 2 min 0,406 mm 1,6 UV-I 447 W/m 10,3 C 15,5 C 27,4 km/h (4 Bft) 100,00 %
17.05.2019 17:02 19,3 C 15,6 C 28,3 C 54 % 1005,1 hPa 0,0 l/m 22,5 km/h (4 Bft) O-NO 72 2 min 0,000 mm 1,6 UV-I 441 W/m 9,8 C 14,8 C 29,0 km/h (5 Bft) 96,23 %
17.05.2019 17:04 19,3 C 15,6 C 28,3 C 54 % 1005,1 hPa 0,0 l/m 20,8 km/h (4 Bft) O-NO 75 2 min 0,000 mm 1,6 UV-I 436 W/m 9,8 C 15,1 C 27,4 km/h (4 Bft) 97,44 %
17.05.2019 17:06 19,2 C 15,6 C 28,9 C 56 % 1005,1 hPa 0,0 l/m 15,3 km/h (3 Bft) O-NO 62 2 min 0,000 mm 1,5 UV-I 432 W/m 10,2 C 16,2 C 25,7 km/h (4 Bft) 98,18 %
17.05.2019 17:08 19,3 C 15,6 C 28,9 C 58 % 1005,1 hPa 0,0 l/m 18,2 km/h (3 Bft) O-NO 73 2 min 0,000 mm 1,5 UV-I 427 W/m 10,8 C 15,7 C 30,6 km/h (5 Bft) 97,44 %
17.05.2019 17:10 19,3 C 15,6 C 28,9 C 57 % 1005,1 hPa 0,0 l/m 18,5 km/h (3 Bft) NO 37 2 min 0,000 mm 1,5 UV-I 421 W/m 10,6 C 15,6 C 24,1 km/h (4 Bft) 95,74 %
17.05.2019 17:12 19,3 C 15,6 C 28,9 C 58 % 1005,1 hPa 0,0 l/m 20,7 km/h (4 Bft) O-NO 67 2 min 0,000 mm 1,4 UV-I 417 W/m 10,8 C 15,2 C 32,2 km/h (5 Bft) 96,00 %
17.05.2019 17:14 19,3 C 15,6 C 28,3 C 55 % 1005,1 hPa 0,0 l/m 18,8 km/h (3 Bft) O-NO 68 2 min 0,000 mm 1,4 UV-I 412 W/m 10,0 C 15,5 C 29,0 km/h (5 Bft) 98,11 %
17.05.2019 17:16 19,2 C 15,6 C 27,8 C 55 % 1005,1 hPa 0,0 l/m 21,5 km/h (4 Bft) O-NO 57 2 min 0,000 mm 1,4 UV-I 409 W/m 9,9 C 14,9 C 27,4 km/h (4 Bft) 94,29 %
17.05.2019 17:18 19,2 C 15,6 C 27,2 C 54 % 1005,1 hPa 0,0 l/m 21,1 km/h (4 Bft) O-NO 65 2 min 0,000 mm 1,3 UV-I 404 W/m 9,7 C 15,0 C 29,0 km/h (5 Bft) 96,23 %
17.05.2019 17:20 19,2 C 15,6 C 27,2 C 55 % 1005,0 hPa 0,0 l/m 23,3 km/h (4 Bft) O-NO 69 2 min 0,000 mm 1,3 UV-I 400 W/m 9,9 C 14,6 C 32,2 km/h (5 Bft) 95,45 %
17.05.2019 17:22 19,2 C 15,6 C 27,2 C 55 % 1005,0 hPa 0,0 l/m 20,8 km/h (4 Bft) O 101 2 min 0,000 mm 1,3 UV-I 395 W/m 9,9 C 15,0 C 27,4 km/h (4 Bft) 94,34 %
17.05.2019 17:24 19,1 C 15,6 C 26,7 C 55 % 1004,9 hPa 0,0 l/m 23,0 km/h (4 Bft) O 81 2 min 0,000 mm 1,3 UV-I 389 W/m 9,8 C 14,5 C 33,8 km/h (5 Bft) 97,37 %
17.05.2019 17:26 19,1 C 15,6 C 26,7 C 57 % 1004,9 hPa 0,0 l/m 19,0 km/h (3 Bft) O 84 2 min 0,000 mm 1,2 UV-I 383 W/m 10,4 C 15,2 C 25,7 km/h (4 Bft) 98,11 %
17.05.2019 17:28 19,1 C 15,6 C 27,2 C 57 % 1004,9 hPa 0,0 l/m 16,7 km/h (3 Bft) O-NO 64 2 min 0,000 mm 1,2 UV-I 377 W/m 10,4 C 15,7 C 22,5 km/h (4 Bft) 97,56 %
17.05.2019 17:30 19,2 C 15,6 C 27,2 C 56 % 1004,9 hPa 0,0 l/m 19,1 km/h (3 Bft) NO 43 2 min 0,000 mm 1,2 UV-I 374 W/m 10,2 C 15,4 C 25,7 km/h (4 Bft) 98,00 %
17.05.2019 17:32 19,1 C 15,6 C 26,7 C 56 % 1004,9 hPa 0,0 l/m 21,5 km/h (4 Bft) NO 41 2 min 0,000 mm 1,2 UV-I 371 W/m 10,1 C 14,8 C 35,4 km/h (5 Bft) 92,00 %
17.05.2019 17:34 19,1 C 15,6 C 27,2 C 56 % 1004,9 hPa 0,0 l/m 19,8 km/h (3 Bft) O-NO 67 2 min 0,000 mm 1,1 UV-I 365 W/m 10,1 C 15,1 C 29,0 km/h (5 Bft) 96,00 %
17.05.2019 17:36 19,1 C 15,6 C 26,7 C 55 % 1004,9 hPa 0,0 l/m 21,8 km/h (4 Bft) NO 55 2 min 0,000 mm 1,1 UV-I 360 W/m 9,8 C 14,7 C 29,0 km/h (5 Bft) 93,62 %
17.05.2019 17:38 19,1 C 15,6 C 26,7 C 56 % 1004,9 hPa 0,0 l/m 18,5 km/h (3 Bft) NO 51 2 min 0,000 mm 1,1 UV-I 355 W/m 10,1 C 15,3 C 24,1 km/h (4 Bft) 95,12 %
17.05.2019 17:40 19,1 C 15,6 C 26,1 C 56 % 1004,9 hPa 0,0 l/m 16,5 km/h (3 Bft) O-NO 69 2 min 0,000 mm 1,1 UV-I 352 W/m 10,1 C 15,8 C 22,5 km/h (4 Bft) 94,87 %
17.05.2019 17:42 19,1 C 15,6 C 26,7 C 57 % 1004,9 hPa 0,0 l/m 17,7 km/h (3 Bft) O 79 2 min 0,000 mm 1,0 UV-I 346 W/m 10,4 C 15,5 C 25,7 km/h (4 Bft) 94,83 %
17.05.2019 17:44 19,1 C 15,6 C 26,7 C 56 % 1004,8 hPa 0,0 l/m 19,0 km/h (3 Bft) O-NO 78 2 min 0,000 mm 1,0 UV-I 343 W/m 10,1 C 15,2 C 30,6 km/h (5 Bft) 97,62 %
17.05.2019 17:46 19,1 C 15,6 C 26,7 C 58 % 1004,8 hPa 0,0 l/m 20,2 km/h (4 Bft) O-NO 57 2 min 0,000 mm 1,0 UV-I 336 W/m 10,6 C 15,0 C 30,6 km/h (5 Bft) 94,34 %
17.05.2019 17:48 19,1 C 15,6 C 26,1 C 56 % 1004,8 hPa 0,0 l/m 20,0 km/h (4 Bft) O-NO 59 2 min 0,000 mm 0,9 UV-I 333 W/m 10,1 C 15,0 C 33,8 km/h (5 Bft) 94,74 %
17.05.2019 17:50 19,0 C 15,6 C 26,1 C 57 % 1004,8 hPa 0,0 l/m 20,3 km/h (4 Bft) NO 51 2 min 0,000 mm 0,9 UV-I 329 W/m 10,3 C 14,9 C 27,4 km/h (4 Bft) 96,23 %
17.05.2019 17:52 18,9 C 15,6 C 26,1 C 58 % 1004,8 hPa 0,0 l/m 20,5 km/h (4 Bft) NO 45 2 min 0,000 mm 0,9 UV-I 324 W/m 10,5 C 14,7 C 30,6 km/h (5 Bft) 95,45 %
17.05.2019 17:54 18,9 C 15,6 C 26,1 C 56 % 1004,8 hPa 0,0 l/m 19,7 km/h (3 Bft) O-NO 71 2 min 0,000 mm 0,9 UV-I 320 W/m 9,9 C 14,8 C 27,4 km/h (4 Bft) 96,23 %
17.05.2019 17:56 18,9 C 15,6 C 25,6 C 56 % 1004,8 hPa 0,0 l/m 18,0 km/h (3 Bft) N-NO 26 2 min 0,000 mm 0,9 UV-I 316 W/m 9,9 C 15,2 C 30,6 km/h (5 Bft) 93,62 %
17.05.2019 17:58 18,9 C 15,6 C 25,6 C 57 % 1004,7 hPa 0,0 l/m 19,7 km/h (3 Bft) O-NO 65 2 min 0,000 mm 0,8 UV-I 310 W/m 10,2 C 14,8 C 29,0 km/h (5 Bft) 95,74 %
17.05.2019 18:00 18,9 C 15,6 C 25,6 C 56 % 1004,8 hPa 0,0 l/m 19,5 km/h (3 Bft) O-NO 76 2 min 0,000 mm 0,8 UV-I 304 W/m 9,9 C 14,9 C 30,6 km/h (5 Bft) 89,47 %
17.05.2019 18:02 18,9 C 15,6 C 25,0 C 56 % 1004,8 hPa 0,0 l/m 18,1 km/h (3 Bft) O-NO 76 2 min 0,330 mm 0,8 UV-I 301 W/m 9,9 C 15,2 C 25,7 km/h (4 Bft) 92,00 %
17.05.2019 18:04 18,9 C 15,6 C 25,0 C 56 % 1004,7 hPa 0,0 l/m 16,9 km/h (3 Bft) O-NO 72 2 min 0,000 mm 0,8 UV-I 296 W/m 9,9 C 15,5 C 25,7 km/h (4 Bft) 96,00 %
17.05.2019 18:06 18,9 C 15,6 C 25,0 C 55 % 1004,7 hPa 0,0 l/m 22,8 km/h (4 Bft) O-NO 74 2 min 0,000 mm 0,7 UV-I 292 W/m 9,7 C 14,3 C 32,2 km/h (5 Bft) 95,12 %
17.05.2019 18:08 18,8 C 15,6 C 24,4 C 55 % 1004,7 hPa 0,0 l/m 20,4 km/h (4 Bft) O-NO 76 2 min 0,000 mm 0,7 UV-I 288 W/m 9,6 C 14,6 C 29,0 km/h (5 Bft) 95,24 %
17.05.2019 18:10 18,8 C 15,6 C 25,0 C 57 % 1004,6 hPa 0,0 l/m 16,5 km/h (3 Bft) O 90 2 min 0,000 mm 0,7 UV-I 284 W/m 10,1 C 15,4 C 22,5 km/h (4 Bft) 96,15 %
17.05.2019 18:12 18,8 C 15,6 C 25,0 C 55 % 1004,7 hPa 0,0 l/m 15,2 km/h (3 Bft) NO 42 2 min 0,000 mm 0,7 UV-I 278 W/m 9,6 C 15,7 C 27,4 km/h (4 Bft) 94,34 %
17.05.2019 18:14 18,8 C 15,6 C 25,0 C 55 % 1004,7 hPa 0,0 l/m 17,9 km/h (3 Bft) O-NO 64 2 min 0,000 mm 0,7 UV-I 272 W/m 9,6 C 15,1 C 24,1 km/h (4 Bft) 95,74 %
17.05.2019 18:16 18,8 C 15,6 C 24,4 C 55 % 1004,7 hPa 0,0 l/m 18,5 km/h (3 Bft) NO 47 2 min 0,000 mm 0,6 UV-I 268 W/m 9,6 C 15,0 C 27,4 km/h (4 Bft) 94,44 %
17.05.2019 18:18 18,7 C 15,6 C 24,4 C 56 % 1004,6 hPa 0,0 l/m 21,4 km/h (4 Bft) O-NO 65 2 min 0,000 mm 0,6 UV-I 264 W/m 9,7 C 14,3 C 27,4 km/h (4 Bft) 94,64 %
17.05.2019 18:20 18,7 C 15,6 C 24,4 C 57 % 1004,6 hPa 0,0 l/m 14,4 km/h (3 Bft) O-NO 67 2 min 0,000 mm 0,6 UV-I 259 W/m 10,0 C 15,8 C 22,5 km/h (4 Bft) 95,74 %
17.05.2019 18:22 18,8 C 15,6 C 24,4 C 56 % 1004,6 hPa 0,0 l/m 15,3 km/h (3 Bft) O 80 2 min 0,000 mm 0,6 UV-I 253 W/m 9,8 C 15,7 C 22,5 km/h (4 Bft) 95,45 %
17.05.2019 18:24 18,8 C 15,6 C 24,4 C 57 % 1004,6 hPa 0,0 l/m 15,8 km/h (3 Bft) NO 51 2 min 0,000 mm 0,6 UV-I 250 W/m 10,1 C 15,6 C 24,1 km/h (4 Bft) 95,45 %
17.05.2019 18:26 18,8 C 15,6 C 24,4 C 57 % 1004,6 hPa 0,0 l/m 12,5 km/h (3 Bft) NO 49 2 min 0,000 mm 0,5 UV-I 245 W/m 10,1 C 16,5 C 24,1 km/h (4 Bft) 95,74 %
17.05.2019 18:28 18,7 C 15,6 C 23,9 C 56 % 1004,6 hPa 0,0 l/m 15,7 km/h (3 Bft) O-NO 60 2 min 0,000 mm 0,5 UV-I 240 W/m 9,7 C 15,5 C 25,7 km/h (4 Bft) 98,11 %
17.05.2019 18:30 18,7 C 15,6 C 23,3 C 55 % 1004,5 hPa 0,0 l/m 20,4 km/h (4 Bft) O 80 2 min 0,000 mm 0,5 UV-I 235 W/m 9,5 C 14,4 C 27,4 km/h (4 Bft) 97,73 %
17.05.2019 18:32 18,7 C 15,6 C 23,3 C 55 % 1004,6 hPa 0,0 l/m 17,6 km/h (3 Bft) O-NO 62 2 min 0,000 mm 0,5 UV-I 231 W/m 9,5 C 15,0 C 25,7 km/h (4 Bft) 96,00 %
17.05.2019 18:34 18,6 C 15,6 C 22,8 C 54 % 1004,5 hPa 0,0 l/m 16,7 km/h (3 Bft) NO 54 2 min 0,000 mm 0,5 UV-I 227 W/m 9,1 C 15,1 C 24,1 km/h (4 Bft) 97,37 %
17.05.2019 18:36 18,6 C 15,6 C 22,8 C 55 % 1004,6 hPa 0,0 l/m 19,2 km/h (3 Bft) O 91 2 min 0,000 mm 0,5 UV-I 223 W/m 9,4 C 14,6 C 27,4 km/h (4 Bft) 100,00 %
17.05.2019 18:38 18,6 C 15,6 C 22,2 C 53 % 1004,5 hPa 0,0 l/m 19,1 km/h (3 Bft) O 98 2 min 0,000 mm 0,1 UV-I 219 W/m 8,8 C 14,6 C 27,4 km/h (4 Bft) 100,00 %
17.05.2019 18:40 18,5 C 15,6 C 22,2 C 54 % 1004,4 hPa 0,0 l/m 19,1 km/h (3 Bft) O-NO 67 2 min 0,000 mm 0,0 UV-I 213 W/m 9,0 C 14,5 C 25,7 km/h (4 Bft) 100,00 %
17.05.2019 18:42 18,4 C 15,6 C 22,2 C 56 % 1004,4 hPa 0,0 l/m 17,3 km/h (3 Bft) O-NO 71 2 min 0,000 mm 0,0 UV-I 209 W/m 9,5 C 14,7 C 25,7 km/h (4 Bft) 100,00 %
17.05.2019 18:44 18,4 C 15,6 C 21,7 C 56 % 1004,5 hPa 0,0 l/m 18,8 km/h (3 Bft) O 82 2 min 0,000 mm 0,0 UV-I 205 W/m 9,5 C 14,4 C 27,4 km/h (4 Bft) 98,00 %
17.05.2019 18:46 18,4 C 15,6 C 21,7 C 55 % 1004,5 hPa 0,0 l/m 19,5 km/h (3 Bft) N-NO 28 2 min 0,000 mm 0,0 UV-I 200 W/m 9,2 C 14,2 C 27,4 km/h (4 Bft) 100,00 %
17.05.2019 18:48 18,4 C 15,6 C 21,7 C 56 % 1004,5 hPa 0,0 l/m 17,6 km/h (3 Bft) NO 42 2 min 0,000 mm 0,0 UV-I 195 W/m 9,5 C 14,7 C 27,4 km/h (4 Bft) 100,00 %
17.05.2019 18:50 18,3 C 15,6 C 21,1 C 54 % 1004,5 hPa 0,0 l/m 17,7 km/h (3 Bft) NO 51 2 min 0,000 mm 0,0 UV-I 191 W/m 8,8 C 14,5 C 24,1 km/h (4 Bft) 98,31 %
17.05.2019 18:52 18,3 C 15,6 C 21,1 C 55 % 1004,4 hPa 0,0 l/m 19,7 km/h (3 Bft) O 79 2 min 0,000 mm 0,0 UV-I 187 W/m 9,1 C 14,1 C 24,1 km/h (4 Bft) 100,00 %
17.05.2019 18:54 18,3 C 15,6 C 21,1 C 57 % 1004,4 hPa 0,0 l/m 15,5 km/h (3 Bft) NO 56 2 min 0,000 mm 0,0 UV-I 184 W/m 9,6 C 15,1 C 22,5 km/h (4 Bft) 98,21 %
17.05.2019 18:56 18,3 C 15,6 C 20,6 C 55 % 1004,4 hPa 0,0 l/m 16,0 km/h (3 Bft) O 90 2 min 0,000 mm 0,0 UV-I 179 W/m 9,1 C 14,9 C 22,5 km/h (4 Bft) 100,00 %
17.05.2019 18:58 18,3 C 15,6 C 21,1 C 56 % 1004,5 hPa 0,0 l/m 10,3 km/h (2 Bft) O 80 2 min 0,000 mm 0,0 UV-I 175 W/m 9,4 C 16,7 C 16,1 km/h (3 Bft) 100,00 %
17.05.2019 19:00 18,3 C 15,6 C 20,6 C 55 % 1004,4 hPa 0,0 l/m 16,7 km/h (3 Bft) NO 53 2 min 0,000 mm 0,0 UV-I 170 W/m 9,1 C 14,8 C 29,0 km/h (5 Bft) 98,31 %
17.05.2019 19:02 18,3 C 15,6 C 20,6 C 56 % 1004,4 hPa 0,0 l/m 14,6 km/h (3 Bft) NO 46 2 min 0,229 mm 0,0 UV-I 166 W/m 9,4 C 15,3 C 20,9 km/h (4 Bft) 97,56 %
17.05.2019 19:04 18,2 C 15,6 C 20,6 C 56 % 1004,4 hPa 0,0 l/m 17,1 km/h (3 Bft) NO 35 2 min 0,000 mm 0,0 UV-I 162 W/m 9,3 C 14,5 C 22,5 km/h (4 Bft) 96,23 %
17.05.2019 19:06 18,1 C 15,6 C 20,0 C 57 % 1004,4 hPa 0,0 l/m 17,6 km/h (3 Bft) NO 53 2 min 0,000 mm 0,0 UV-I 159 W/m 9,4 C 14,3 C 24,1 km/h (4 Bft) 97,37 %
17.05.2019 19:08 18,0 C 15,6 C 19,4 C 55 % 1004,4 hPa 0,0 l/m 12,2 km/h (2 Bft) NO 44 2 min 0,000 mm 0,0 UV-I 153 W/m 8,8 C 15,7 C 20,9 km/h (4 Bft) 94,00 %
17.05.2019 19:10 18,1 C 15,6 C 19,4 C 57 % 1004,4 hPa 0,0 l/m 8,8 km/h (2 Bft) O-NO 59 2 min 0,000 mm 0,0 UV-I 150 W/m 9,4 C 17,0 C 12,9 km/h (3 Bft) 98,00 %
17.05.2019 19:12 18,1 C 15,6 C 19,4 C 58 % 1004,4 hPa 0,0 l/m 8,7 km/h (2 Bft) NO 50 2 min 0,000 mm 0,0 UV-I 137 W/m 9,7 C 17,1 C 14,5 km/h (3 Bft) 97,44 %
17.05.2019 19:14 17,9 C 15,6 C 19,4 C 57 % 1004,4 hPa 0,0 l/m 14,9 km/h (3 Bft) O-NO 76 2 min 0,000 mm 0,0 UV-I 138 W/m 9,3 C 14,7 C 20,9 km/h (4 Bft) 98,00 %
17.05.2019 19:16 17,9 C 15,6 C 18,9 C 57 % 1004,4 hPa 0,0 l/m 14,4 km/h (3 Bft) NO 53 2 min 0,000 mm 0,0 UV-I 132 W/m 9,3 C 14,9 C 19,3 km/h (3 Bft) 98,11 %
17.05.2019 19:18 17,9 C 15,6 C 18,9 C 56 % 1004,4 hPa 0,0 l/m 16,8 km/h (3 Bft) O-NO 71 0 min 0,000 mm 0,0 UV-I 106 W/m 9,0 C 14,2 C 24,1 km/h (4 Bft) 97,73 %
17.05.2019 19:20 17,8 C 15,6 C 18,3 C 57 % 1004,4 hPa 0,0 l/m 15,5 km/h (3 Bft) O-NO 71 0 min 0,000 mm 0,0 UV-I 94 W/m 9,2 C 14,4 C 20,9 km/h (4 Bft) 97,87 %
17.05.2019 19:22 17,7 C 15,6 C 17,8 C 57 % 1004,4 hPa 0,0 l/m 12,9 km/h (3 Bft) O-NO 62 0 min 0,000 mm 0,0 UV-I 90 W/m 9,1 C 15,1 C 20,9 km/h (4 Bft) 97,87 %
17.05.2019 19:24 17,6 C 15,6 C 17,8 C 57 % 1004,3 hPa 0,0 l/m 13,1 km/h (3 Bft) O-NO 74 2 min 0,000 mm 0,0 UV-I 101 W/m 9,0 C 14,9 C 17,7 km/h (3 Bft) 97,56 %
17.05.2019 19:26 17,6 C 15,6 C 17,2 C 58 % 1004,3 hPa 0,0 l/m 11,4 km/h (2 Bft) O-NO 63 2 min 0,000 mm 0,0 UV-I 102 W/m 9,2 C 15,5 C 17,7 km/h (3 Bft) 100,00 %
17.05.2019 19:28 17,5 C 15,6 C 17,2 C 57 % 1004,4 hPa 0,0 l/m 11,6 km/h (2 Bft) NO 45 2 min 0,000 mm 0,0 UV-I 96 W/m 8,9 C 15,3 C 19,3 km/h (3 Bft) 97,56 %
17.05.2019 19:30 17,5 C 15,6 C 17,2 C 57 % 1004,3 hPa 0,0 l/m 12,7 km/h (3 Bft) O 79 2 min 0,000 mm 0,0 UV-I 99 W/m 8,9 C 14,9 C 17,7 km/h (3 Bft) 100,00 %
17.05.2019 19:32 17,5 C 15,6 C 17,2 C 57 % 1004,4 hPa 0,0 l/m 14,1 km/h (3 Bft) O-NO 67 2 min 0,000 mm 0,0 UV-I 104 W/m 8,9 C 14,5 C 20,9 km/h (4 Bft) 100,00 %
17.05.2019 19:34 17,5 C 15,6 C 17,2 C 56 % 1004,4 hPa 0,0 l/m 16,6 km/h (3 Bft) NO 50 2 min 0,000 mm 0,0 UV-I 97 W/m 8,6 C 13,8 C 22,5 km/h (4 Bft) 100,00 %
17.05.2019 19:36 17,4 C 15,6 C 16,7 C 56 % 1004,4 hPa 0,0 l/m 12,9 km/h (3 Bft) O-NO 67 0 min 0,000 mm 0,0 UV-I 74 W/m 8,5 C 14,7 C 17,7 km/h (3 Bft) 100,00 %
17.05.2019 19:38 17,4 C 15,6 C 16,7 C 56 % 1004,3 hPa 0,0 l/m 13,8 km/h (3 Bft) O-NO 57 2 min 0,000 mm 0,0 UV-I 83 W/m 8,5 C 14,5 C 20,9 km/h (4 Bft) 98,51 %
17.05.2019 19:40 17,3 C 15,6 C 16,7 C 56 % 1004,3 hPa 0,0 l/m 14,9 km/h (3 Bft) O-NO 77 2 min 0,000 mm 0,0 UV-I 84 W/m 8,4 C 14,0 C 20,9 km/h (4 Bft) 100,00 %
17.05.2019 19:42 17,3 C 15,6 C 16,7 C 57 % 1004,3 hPa 0,0 l/m 13,8 km/h (3 Bft) O-NO 67 0 min 0,000 mm 0,0 UV-I 69 W/m 8,7 C 14,3 C 19,3 km/h (3 Bft) 100,00 %
17.05.2019 19:44 17,2 C 15,6 C 16,1 C 57 % 1004,3 hPa 0,0 l/m 10,9 km/h (2 Bft) O-NO 78 0 min 0,000 mm 0,0 UV-I 60 W/m 8,6 C 15,2 C 17,7 km/h (3 Bft) 100,00 %
17.05.2019 19:46 17,1 C 15,6 C 16,1 C 57 % 1004,3 hPa 0,0 l/m 12,3 km/h (3 Bft) O-NO 70 0 min 0,000 mm 0,0 UV-I 59 W/m 8,5 C 14,6 C 17,7 km/h (3 Bft) 96,55 %
17.05.2019 19:48 17,0 C 15,6 C 16,1 C 58 % 1004,3 hPa 0,0 l/m 11,3 km/h (2 Bft) O-NO 59 2 min 0,000 mm 0,0 UV-I 69 W/m 8,7 C 14,8 C 19,3 km/h (3 Bft) 98,46 %
17.05.2019 19:50 17,0 C 15,6 C 16,1 C 58 % 1004,3 hPa 0,0 l/m 12,7 km/h (3 Bft) NO 49 2 min 0,000 mm 0,0 UV-I 74 W/m 8,7 C 14,3 C 17,7 km/h (3 Bft) 97,87 %
17.05.2019 19:52 16,9 C 15,0 C 15,6 C 59 % 1004,3 hPa 0,0 l/m 15,1 km/h (3 Bft) NO 46 2 min 0,000 mm 0,0 UV-I 60 W/m 8,8 C 13,5 C 24,1 km/h (4 Bft) 97,73 %
17.05.2019 19:54 16,8 C 15,6 C 15,6 C 59 % 1004,3 hPa 0,0 l/m 13,3 km/h (3 Bft) O-NO 71 2 min 0,000 mm 0,0 UV-I 57 W/m 8,7 C 13,9 C 19,3 km/h (3 Bft) 94,34 %
17.05.2019 19:56 16,8 C 15,0 C 15,0 C 59 % 1004,3 hPa 0,0 l/m 12,0 km/h (2 Bft) O-NO 73 2 min 0,000 mm 0,0 UV-I 53 W/m 8,7 C 14,3 C 19,3 km/h (3 Bft) 97,87 %
17.05.2019 19:58 16,7 C 15,0 C 15,0 C 59 % 1004,3 hPa 0,0 l/m 14,6 km/h (3 Bft) NO 56 2 min 0,000 mm 0,0 UV-I 57 W/m 8,6 C 13,4 C 22,5 km/h (4 Bft) 97,37 %
17.05.2019 20:00 16,6 C 15,6 C 15,0 C 59 % 1004,3 hPa 0,0 l/m 10,6 km/h (2 Bft) N-NO 30 2 min 0,000 mm 0,0 UV-I 48 W/m 8,6 C 14,6 C 17,7 km/h (3 Bft) 98,11 %
17.05.2019 20:02 16,4 C 15,6 C 15,0 C 60 % 1004,4 hPa 0,0 l/m 11,6 km/h (2 Bft) O-NO 69 0 min 0,127 mm 0,0 UV-I 42 W/m 8,6 C 14,0 C 17,7 km/h (3 Bft) 98,00 %
17.05.2019 20:04 16,4 C 15,6 C 14,4 C 60 % 1004,3 hPa 0,0 l/m 13,3 km/h (3 Bft) O-NO 63 2 min 0,000 mm 0,0 UV-I 41 W/m 8,6 C 13,4 C 20,9 km/h (4 Bft) 97,62 %
17.05.2019 20:06 16,3 C 15,6 C 14,4 C 60 % 1004,3 hPa 0,0 l/m 12,0 km/h (2 Bft) NO 45 2 min 0,000 mm 0,0 UV-I 39 W/m 8,5 C 13,8 C 16,1 km/h (3 Bft) 95,74 %
17.05.2019 20:08 16,2 C 15,0 C 14,4 C 61 % 1004,3 hPa 0,0 l/m 11,7 km/h (2 Bft) O-NO 60 0 min 0,000 mm 0,0 UV-I 30 W/m 8,7 C 13,8 C 19,3 km/h (3 Bft) 95,45 %
17.05.2019 20:10 16,2 C 15,0 C 14,4 C 61 % 1004,3 hPa 0,0 l/m 11,6 km/h (2 Bft) NO 46 0 min 0,000 mm 0,0 UV-I 30 W/m 8,7 C 13,8 C 17,7 km/h (3 Bft) 96,23 %
17.05.2019 20:12 16,1 C 15,0 C 13,9 C 62 % 1004,4 hPa 0,0 l/m 11,0 km/h (2 Bft) O-NO 73 2 min 0,000 mm 0,0 UV-I 29 W/m 8,8 C 13,9 C 17,7 km/h (3 Bft) 95,12 %
17.05.2019 20:14 15,9 C 15,6 C 13,9 C 62 % 1004,3 hPa 0,0 l/m 10,4 km/h (2 Bft) O-NO 72 2 min 0,000 mm 0,0 UV-I 26 W/m 8,6 C 13,9 C 16,1 km/h (3 Bft) 95,74 %
17.05.2019 20:16 15,8 C 15,0 C 13,9 C 63 % 1004,3 hPa 0,0 l/m 11,2 km/h (2 Bft) O-NO 73 2 min 0,000 mm 0,0 UV-I 25 W/m 8,8 C 13,5 C 22,5 km/h (4 Bft) 98,00 %
17.05.2019 20:18 15,8 C 15,6 C 13,9 C 62 % 1004,3 hPa 0,0 l/m 15,8 km/h (3 Bft) O 80 2 min 0,000 mm 0,0 UV-I 22 W/m 8,5 C 11,9 C 22,5 km/h (4 Bft) 100,00 %
17.05.2019 20:20 15,8 C 15,0 C 13,3 C 62 % 1004,4 hPa 0,0 l/m 9,3 km/h (2 Bft) O 90 2 min 0,000 mm 0,0 UV-I 20 W/m 8,5 C 14,3 C 14,5 km/h (3 Bft) 93,62 %
17.05.2019 20:22 15,7 C 15,6 C 13,3 C 63 % 1004,4 hPa 0,0 l/m 12,0 km/h (2 Bft) O 85 2 min 0,000 mm 0,0 UV-I 20 W/m 8,7 C 13,1 C 19,3 km/h (3 Bft) 100,00 %
17.05.2019 20:24 15,7 C 15,6 C 13,3 C 63 % 1004,4 hPa 0,0 l/m 14,5 km/h (3 Bft) O-NO 65 2 min 0,000 mm 0,0 UV-I 15 W/m 8,7 C 12,2 C 19,3 km/h (3 Bft) 97,14 %
17.05.2019 20:26 15,7 C 15,0 C 13,3 C 63 % 1004,4 hPa 0,0 l/m 12,5 km/h (3 Bft) O-NO 65 2 min 0,000 mm 0,0 UV-I 14 W/m 8,7 C 12,9 C 20,9 km/h (4 Bft) 100,00 %
17.05.2019 20:28 15,6 C 15,0 C 13,3 C 64 % 1004,4 hPa 0,0 l/m 10,9 km/h (2 Bft) O-NO 58 0 min 0,000 mm 0,0 UV-I 12 W/m 8,8 C 13,4 C 20,9 km/h (4 Bft) 96,23 %
17.05.2019 20:30 15,4 C 15,0 C 13,3 C 64 % 1004,4 hPa 0,0 l/m 12,9 km/h (3 Bft) O-NO 64 0 min 0,000 mm 0,0 UV-I 11 W/m 8,6 C 12,4 C 17,7 km/h (3 Bft) 95,74 %
17.05.2019 20:32 15,4 C 15,0 C 12,8 C 64 % 1004,4 hPa 0,0 l/m 14,8 km/h (3 Bft) O-NO 65 0 min 0,000 mm 0,0 UV-I 10 W/m 8,6 C 11,7 C 22,5 km/h (4 Bft) 97,44 %
17.05.2019 20:34 15,4 C 15,0 C 12,8 C 64 % 1004,4 hPa 0,0 l/m 10,3 km/h (2 Bft) O 86 0 min 0,000 mm 0,0 UV-I 9 W/m 8,6 C 13,4 C 14,5 km/h (3 Bft) 98,11 %
17.05.2019 20:36 15,3 C 15,0 C 12,8 C 64 % 1004,5 hPa 0,0 l/m 11,1 km/h (2 Bft) O-NO 65 0 min 0,000 mm 0,0 UV-I 9 W/m 8,5 C 13,0 C 14,5 km/h (3 Bft) 97,87 %
17.05.2019 20:38 15,3 C 15,0 C 12,8 C 65 % 1004,5 hPa 0,0 l/m 11,1 km/h (2 Bft) O-NO 69 0 min 0,000 mm 0,0 UV-I 7 W/m 8,8 C 13,0 C 17,7 km/h (3 Bft) 97,56 %
17.05.2019 20:40 15,3 C 15,0 C 12,8 C 65 % 1004,5 hPa 0,0 l/m 10,5 km/h (2 Bft) O-NO 65 0 min 0,000 mm 0,0 UV-I 7 W/m 8,8 C 13,2 C 16,1 km/h (3 Bft) 98,11 %
17.05.2019 20:42 15,2 C 15,0 C 12,8 C 65 % 1004,4 hPa 0,0 l/m 11,9 km/h (2 Bft) O-NO 76 0 min 0,000 mm 0,0 UV-I 6 W/m 8,7 C 12,5 C 19,3 km/h (3 Bft) 97,37 %
17.05.2019 20:44 15,1 C 15,0 C 12,2 C 65 % 1004,5 hPa 0,0 l/m 11,1 km/h (2 Bft) O-NO 76 0 min 0,000 mm 0,0 UV-I 5 W/m 8,6 C 12,8 C 17,7 km/h (3 Bft) 92,45 %
17.05.2019 20:46 15,1 C 15,0 C 12,2 C 65 % 1004,5 hPa 0,0 l/m 10,0 km/h (2 Bft) O-NO 65 0 min 0,000 mm 0,0 UV-I 5 W/m 8,6 C 13,2 C 14,5 km/h (3 Bft) 97,56 %
17.05.2019 20:48 15,0 C 15,0 C 12,2 C 65 % 1004,5 hPa 0,0 l/m 9,7 km/h (2 Bft) O-NO 65 0 min 0,000 mm 0,0 UV-I 5 W/m 8,5 C 13,3 C 16,1 km/h (3 Bft) 98,00 %
17.05.2019 20:50 14,9 C 15,0 C 12,2 C 66 % 1004,6 hPa 0,0 l/m 7,4 km/h (2 Bft) O 82 0 min 0,000 mm 0,0 UV-I 5 W/m 8,6 C 14,3 C 12,9 km/h (3 Bft) 98,11 %
17.05.2019 20:52 14,9 C 15,0 C 12,2 C 66 % 1004,5 hPa 0,0 l/m 9,7 km/h (2 Bft) O-NO 78 0 min 0,000 mm 0,0 UV-I 5 W/m 8,6 C 13,1 C 14,5 km/h (3 Bft) 97,87 %
17.05.2019 20:54 14,8 C 15,0 C 12,2 C 67 % 1004,6 hPa 0,0 l/m 8,9 km/h (2 Bft) O-NO 73 0 min 0,000 mm 0,0 UV-I 5 W/m 8,7 C 13,4 C 12,9 km/h (3 Bft) 100,00 %
17.05.2019 20:56 14,7 C 15,0 C 11,7 C 67 % 1004,6 hPa 0,0 l/m 7,9 km/h (2 Bft) O-NO 74 0 min 0,000 mm 0,0 UV-I 3 W/m 8,6 C 13,8 C 12,9 km/h (3 Bft) 98,11 %
17.05.2019 20:58 14,5 C 15,0 C 11,7 C 68 % 1004,5 hPa 0,0 l/m 8,5 km/h (2 Bft) O-NO 71 0 min 0,000 mm 0,0 UV-I 0 W/m 8,7 C 13,3 C 11,3 km/h (2 Bft) 100,00 %
17.05.2019 21:00 14,4 C 15,0 C 11,7 C 68 % 1004,5 hPa 0,0 l/m 7,5 km/h (2 Bft) O 85 0 min 0,000 mm 0,0 UV-I 0 W/m 8,6 C 13,8 C 12,9 km/h (3 Bft) 100,00 %
17.05.2019 21:02 14,3 C 15,0 C 11,7 C 69 % 1004,5 hPa 0,0 l/m 10,2 km/h (2 Bft) O-NO 69 0 min 0,051 mm 0,0 UV-I 0 W/m 8,7 C 12,3 C 16,1 km/h (3 Bft) 100,00 %
17.05.2019 21:04 14,3 C 15,0 C 11,7 C 69 % 1004,6 hPa 0,0 l/m 8,1 km/h (2 Bft) O-SO 108 0 min 0,000 mm 0,0 UV-I 0 W/m 8,7 C 13,3 C 14,5 km/h (3 Bft) 100,00 %
17.05.2019 21:06 14,3 C 15,0 C 11,1 C 69 % 1004,6 hPa 0,0 l/m 9,9 km/h (2 Bft) O 80 0 min 0,000 mm 0,0 UV-I 0 W/m 8,7 C 12,4 C 16,1 km/h (3 Bft) 100,00 %
17.05.2019 21:08 14,2 C 15,0 C 11,1 C 70 % 1004,6 hPa 0,0 l/m 10,8 km/h (2 Bft) O 91 0 min 0,000 mm 0,0 UV-I 0 W/m 8,8 C 11,9 C 16,1 km/h (3 Bft) 100,00 %
17.05.2019 21:10 14,2 C 15,0 C 11,7 C 70 % 1004,7 hPa 0,0 l/m 11,2 km/h (2 Bft) O-NO 63 0 min 0,000 mm 0,0 UV-I 0 W/m 8,8 C 11,7 C 14,5 km/h (3 Bft) 100,00 %
17.05.2019 21:12 14,1 C 15,0 C 11,7 C 70 % 1004,7 hPa 0,0 l/m 10,8 km/h (2 Bft) O-NO 72 0 min 0,000 mm 0,0 UV-I 0 W/m 8,7 C 11,8 C 14,5 km/h (3 Bft) 100,00 %
17.05.2019 21:14 14,1 C 15,0 C 11,7 C 71 % 1004,7 hPa 0,0 l/m 9,8 km/h (2 Bft) O-NO 62 0 min 0,000 mm 0,0 UV-I 0 W/m 8,9 C 12,2 C 14,5 km/h (3 Bft) 100,00 %
17.05.2019 21:16 14,0 C 15,0 C 11,7 C 71 % 1004,7 hPa 0,0 l/m 9,6 km/h (2 Bft) O-NO 73 0 min 0,000 mm 0,0 UV-I 0 W/m 8,8 C 12,2 C 14,5 km/h (3 Bft) 100,00 %
17.05.2019 21:18 14,0 C 15,0 C 11,1 C 71 % 1004,7 hPa 0,0 l/m 10,6 km/h (2 Bft) O 83 0 min 0,000 mm 0,0 UV-I 0 W/m 8,8 C 11,7 C 17,7 km/h (3 Bft) 100,00 %
17.05.2019 21:20 14,0 C 15,0 C 11,7 C 71 % 1004,8 hPa 0,0 l/m 13,1 km/h (3 Bft) O 86 0 min 0,000 mm 0,0 UV-I 0 W/m 8,8 C 10,7 C 19,3 km/h (3 Bft) 100,00 %
17.05.2019 21:22 14,0 C 15,0 C 11,7 C 71 % 1004,8 hPa 0,0 l/m 12,8 km/h (3 Bft) O-NO 67 0 min 0,000 mm 0,0 UV-I 0 W/m 8,8 C 10,8 C 20,9 km/h (4 Bft) 100,00 %
17.05.2019 21:24 14,0 C 15,0 C 11,7 C 71 % 1004,8 hPa 0,0 l/m 14,0 km/h (3 Bft) O 82 0 min 0,000 mm 0,0 UV-I 0 W/m 8,8 C 10,3 C 19,3 km/h (3 Bft) 95,74 %
17.05.2019 21:26 13,9 C 15,0 C 11,7 C 71 % 1004,8 hPa 0,0 l/m 15,3 km/h (3 Bft) O 83 0 min 0,000 mm 0,0 UV-I 0 W/m 8,7 C 9,8 C 20,9 km/h (4 Bft) 100,00 %
17.05.2019 21:28 13,9 C 15,0 C 11,7 C 71 % 1004,8 hPa 0,0 l/m 15,9 km/h (3 Bft) O-NO 72 0 min 0,000 mm 0,0 UV-I 0 W/m 8,7 C 9,6 C 24,1 km/h (4 Bft) 100,00 %
17.05.2019 21:30 14,0 C 15,0 C 11,7 C 71 % 1004,7 hPa 0,0 l/m 16,6 km/h (3 Bft) O-NO 65 0 min 0,000 mm 0,0 UV-I 0 W/m 8,8 C 9,4 C 20,9 km/h (4 Bft) 100,00 %
17.05.2019 21:32 14,0 C 15,0 C 12,2 C 71 % 1004,8 hPa 0,0 l/m 16,1 km/h (3 Bft) O 90 0 min 0,000 mm 0,0 UV-I 0 W/m 8,8 C 9,6 C 25,7 km/h (4 Bft) 100,00 %
17.05.2019 21:34 14,1 C 15,0 C 12,2 C 71 % 1004,8 hPa 0,0 l/m 19,2 km/h (3 Bft) O-NO 69 0 min 0,000 mm 0,0 UV-I 0 W/m 8,9 C 8,8 C 27,4 km/h (4 Bft) 100,00 %
17.05.2019 21:36 14,1 C 15,0 C 12,2 C 71 % 1004,8 hPa 0,0 l/m 18,8 km/h (3 Bft) O-NO 76 0 min 0,000 mm 0,0 UV-I 0 W/m 8,9 C 8,9 C 25,7 km/h (4 Bft) 98,00 %
17.05.2019 21:38 14,1 C 15,0 C 12,2 C 71 % 1004,8 hPa 0,0 l/m 17,5 km/h (3 Bft) O-NO 67 0 min 0,000 mm 0,0 UV-I 0 W/m 8,9 C 9,3 C 24,1 km/h (4 Bft) 100,00 %
17.05.2019 21:40 14,1 C 15,0 C 12,2 C 71 % 1004,8 hPa 0,0 l/m 18,1 km/h (3 Bft) O-NO 71 0 min 0,000 mm 0,0 UV-I 0 W/m 8,9 C 9,1 C 22,5 km/h (4 Bft) 100,00 %
17.05.2019 21:42 14,0 C 15,0 C 12,2 C 71 % 1004,8 hPa 0,0 l/m 18,9 km/h (3 Bft) O-NO 71 0 min 0,000 mm 0,0 UV-I 0 W/m 8,8 C 8,8 C 24,1 km/h (4 Bft) 97,87 %
17.05.2019 21:44 13,9 C 15,0 C 12,2 C 71 % 1004,8 hPa 0,0 l/m 19,3 km/h (3 Bft) O 82 0 min 0,000 mm 0,0 UV-I 0 W/m 8,7 C 8,5 C 25,7 km/h (4 Bft) 94,74 %
17.05.2019 21:46 13,9 C 15,0 C 12,2 C 71 % 1004,9 hPa 0,0 l/m 20,7 km/h (4 Bft) O 86 0 min 0,000 mm 0,0 UV-I 0 W/m 8,7 C 8,1 C 25,7 km/h (4 Bft) 96,43 %
17.05.2019 21:48 13,9 C 15,0 C 12,2 C 71 % 1004,8 hPa 0,0 l/m 15,8 km/h (3 Bft) O-NO 76 0 min 0,000 mm 0,0 UV-I 0 W/m 8,7 C 9,6 C 20,9 km/h (4 Bft) 97,56 %
17.05.2019 21:50 13,8 C 15,0 C 11,7 C 72 % 1004,9 hPa 0,0 l/m 16,8 km/h (3 Bft) O-NO 66 0 min 0,000 mm 0,0 UV-I 0 W/m 8,8 C 9,1 C 22,5 km/h (4 Bft) 96,00 %
17.05.2019 21:52 13,7 C 15,0 C 11,7 C 72 % 1004,9 hPa 0,0 l/m 16,3 km/h (3 Bft) O 92 0 min 0,000 mm 0,0 UV-I 0 W/m 8,7 C 9,2 C 22,5 km/h (4 Bft) 97,73 %
17.05.2019 21:54 13,6 C 15,0 C 11,7 C 73 % 1004,9 hPa 0,0 l/m 17,3 km/h (3 Bft) O 84 0 min 0,000 mm 0,0 UV-I 0 W/m 8,9 C 8,7 C 24,1 km/h (4 Bft) 92,86 %
17.05.2019 21:56 13,6 C 15,0 C 11,7 C 73 % 1004,9 hPa 0,0 l/m 15,7 km/h (3 Bft) O-NO 76 0 min 0,000 mm 0,0 UV-I 0 W/m 8,9 C 9,3 C 22,5 km/h (4 Bft) 91,49 %
17.05.2019 21:58 13,5 C 15,0 C 11,7 C 73 % 1004,9 hPa 0,0 l/m 15,2 km/h (3 Bft) O-NO 76 0 min 0,000 mm 0,0 UV-I 0 W/m 8,8 C 9,3 C 19,3 km/h (3 Bft) 91,67 %
17.05.2019 22:00 13,4 C 15,0 C 11,7 C 74 % 1004,9 hPa 0,0 l/m 14,7 km/h (3 Bft) O-NO 67 0 min 0,000 mm 0,0 UV-I 0 W/m 8,9 C 9,4 C 22,5 km/h (4 Bft) 92,73 %
17.05.2019 22:02 13,4 C 15,0 C 11,7 C 74 % 1005,0 hPa 0,0 l/m 16,4 km/h (3 Bft) O 79 0 min 0,050 mm 0,0 UV-I 0 W/m 8,9 C 8,8 C 22,5 km/h (4 Bft) 92,31 %
17.05.2019 22:04 13,3 C 15,0 C 11,7 C 74 % 1004,9 hPa 0,0 l/m 17,0 km/h (3 Bft) O-NO 78 0 min 0,000 mm 0,0 UV-I 0 W/m 8,8 C 8,5 C 24,1 km/h (4 Bft) 96,43 %
17.05.2019 22:06 13,3 C 15,0 C 11,7 C 74 % 1005,0 hPa 0,0 l/m 13,2 km/h (3 Bft) O-NO 63 0 min 0,000 mm 0,0 UV-I 0 W/m 8,8 C 9,8 C 20,9 km/h (4 Bft) 90,91 %
17.05.2019 22:08 13,2 C 15,0 C 11,7 C 74 % 1004,9 hPa 0,0 l/m 18,8 km/h (3 Bft) NO 45 0 min 0,000 mm 0,0 UV-I 0 W/m 8,7 C 7,8 C 25,7 km/h (4 Bft) 94,34 %
17.05.2019 22:10 13,2 C 15,0 C 11,7 C 75 % 1005,0 hPa 0,0 l/m 18,2 km/h (3 Bft) O-NO 69 0 min 0,000 mm 0,0 UV-I 0 W/m 8,9 C 7,9 C 25,7 km/h (4 Bft) 92,68 %
17.05.2019 22:12 13,3 C 15,0 C 11,7 C 75 % 1005,0 hPa 0,0 l/m 20,2 km/h (4 Bft) O-NO 76 0 min 0,000 mm 0,0 UV-I 0 W/m 9,0 C 7,5 C 29,0 km/h (5 Bft) 92,68 %
17.05.2019 22:14 13,2 C 15,0 C 11,7 C 75 % 1005,0 hPa 0,0 l/m 22,2 km/h (4 Bft) O 90 0 min 0,000 mm 0,0 UV-I 0 W/m 8,9 C 6,8 C 30,6 km/h (5 Bft) 90,91 %
17.05.2019 22:16 13,2 C 15,0 C 11,7 C 75 % 1004,9 hPa 0,0 l/m 17,2 km/h (3 Bft) O 84 0 min 0,000 mm 0,0 UV-I 0 W/m 8,9 C 8,3 C 25,7 km/h (4 Bft) 93,18 %
17.05.2019 22:19 13,1 C 15,0 C 11,1 C 75 % 1004,9 hPa 0,0 l/m 17,4 km/h (3 Bft) O-NO 66 0 min 0,000 mm 0,0 UV-I 0 W/m 8,8 C 8,1 C 24,1 km/h (4 Bft) 98,53 %
17.05.2019 22:20 13,1 C 15,0 C 11,1 C 75 % 1004,9 hPa 0,0 l/m 18,6 km/h (3 Bft) O-NO 59 0 min 0,000 mm 0,0 UV-I 0 W/m 8,8 C 7,7 C 24,1 km/h (4 Bft) 95,65 %
17.05.2019 22:22 12,9 C 15,0 C 11,1 C 76 % 1004,9 hPa 0,0 l/m 16,6 km/h (3 Bft) O-NO 66 0 min 0,000 mm 0,0 UV-I 0 W/m 8,8 C 8,1 C 24,1 km/h (4 Bft) 97,87 %
17.05.2019 22:24 12,9 C 15,0 C 11,1 C 76 % 1004,9 hPa 0,0 l/m 18,6 km/h (3 Bft) O-NO 61 0 min 0,000 mm 0,0 UV-I 0 W/m 8,8 C 7,4 C 25,7 km/h (4 Bft) 97,73 %
17.05.2019 22:26 12,8 C 15,0 C 11,1 C 76 % 1004,9 hPa 0,0 l/m 18,1 km/h (3 Bft) O 80 0 min 0,000 mm 0,0 UV-I 0 W/m 8,7 C 7,5 C 24,1 km/h (4 Bft) 96,00 %
17.05.2019 22:28 12,8 C 15,0 C 11,1 C 77 % 1004,9 hPa 0,0 l/m 19,1 km/h (3 Bft) O 97 0 min 0,000 mm 0,0 UV-I 0 W/m 8,9 C 7,2 C 27,4 km/h (4 Bft) 97,73 %
17.05.2019 22:30 12,7 C 15,0 C 11,1 C 77 % 1004,9 hPa 0,0 l/m 17,8 km/h (3 Bft) O-SO 103 0 min 0,000 mm 0,0 UV-I 0 W/m 8,8 C 7,4 C 27,4 km/h (4 Bft) 96,00 %
17.05.2019 22:32 12,6 C 15,0 C 11,1 C 77 % 1004,8 hPa 0,0 l/m 18,4 km/h (3 Bft) O-NO 64 0 min 0,000 mm 0,0 UV-I 0 W/m 8,7 C 7,1 C 25,7 km/h (4 Bft) 97,87 %
17.05.2019 22:34 12,6 C 15,0 C 10,6 C 77 % 1004,9 hPa 0,0 l/m 16,3 km/h (3 Bft) O-NO 74 0 min 0,000 mm 0,0 UV-I 0 W/m 8,7 C 7,8 C 20,9 km/h (4 Bft) 98,00 %
17.05.2019 22:36 12,4 C 15,0 C 10,6 C 78 % 1004,9 hPa 0,0 l/m 16,8 km/h (3 Bft) O 90 0 min 0,000 mm 0,0 UV-I 0 W/m 8,7 C 7,4 C 22,5 km/h (4 Bft) 93,33 %
17.05.2019 22:38 12,4 C 15,0 C 10,6 C 78 % 1004,9 hPa 0,0 l/m 15,6 km/h (3 Bft) O 84 0 min 0,000 mm 0,0 UV-I 0 W/m 8,7 C 7,8 C 24,1 km/h (4 Bft) 98,11 %
17.05.2019 22:40 12,4 C 15,0 C 10,6 C 78 % 1004,8 hPa 0,0 l/m 17,9 km/h (3 Bft) O 82 0 min 0,000 mm 0,0 UV-I 0 W/m 8,7 C 7,0 C 24,1 km/h (4 Bft) 95,45 %
17.05.2019 22:42 12,3 C 15,0 C 10,6 C 78 % 1005,0 hPa 0,0 l/m 16,9 km/h (3 Bft) O-NO 76 0 min 0,000 mm 0,0 UV-I 0 W/m 8,6 C 7,2 C 22,5 km/h (4 Bft) 97,37 %
17.05.2019 22:44 12,3 C 15,0 C 10,6 C 79 % 1005,0 hPa 0,0 l/m 17,1 km/h (3 Bft) O 88 0 min 0,000 mm 0,0 UV-I 0 W/m 8,8 C 7,2 C 24,1 km/h (4 Bft) 98,00 %
17.05.2019 22:46 12,3 C 15,0 C 10,6 C 79 % 1005,0 hPa 0,0 l/m 15,7 km/h (3 Bft) O 90 0 min 0,000 mm 0,0 UV-I 0 W/m 8,8 C 7,7 C 22,5 km/h (4 Bft) 98,00 %
17.05.2019 22:48 12,2 C 15,0 C 10,6 C 79 % 1005,0 hPa 0,0 l/m 14,2 km/h (3 Bft) O 88 0 min 0,000 mm 0,0 UV-I 0 W/m 8,7 C 8,1 C 20,9 km/h (4 Bft) 95,74 %
17.05.2019 22:50 12,1 C 15,0 C 10,6 C 79 % 1004,9 hPa 0,0 l/m 15,4 km/h (3 Bft) O-NO 69 0 min 0,000 mm 0,0 UV-I 0 W/m 8,6 C 7,5 C 22,5 km/h (4 Bft) 96,00 %
17.05.2019 22:52 12,1 C 15,0 C 10,0 C 79 % 1004,9 hPa 0,0 l/m 13,9 km/h (3 Bft) O-NO 77 0 min 0,000 mm 0,0 UV-I 0 W/m 8,6 C 8,1 C 22,5 km/h (4 Bft) 97,37 %
17.05.2019 22:54 12,1 C 15,0 C 10,0 C 79 % 1004,9 hPa 0,0 l/m 15,6 km/h (3 Bft) O 88 0 min 0,000 mm 0,0 UV-I 0 W/m 8,6 C 7,5 C 20,9 km/h (4 Bft) 97,87 %
17.05.2019 22:56 12,0 C 15,0 C 10,0 C 80 % 1004,9 hPa 0,0 l/m 17,2 km/h (3 Bft) O-NO 78 0 min 0,000 mm 0,0 UV-I 0 W/m 8,7 C 6,8 C 22,5 km/h (4 Bft) 98,00 %
17.05.2019 22:58 11,9 C 15,0 C 10,0 C 80 % 1005,0 hPa 0,0 l/m 14,6 km/h (3 Bft) O 82 0 min 0,000 mm 0,0 UV-I 0 W/m 8,6 C 7,6 C 19,3 km/h (3 Bft) 97,87 %
17.05.2019 23:00 11,8 C 15,0 C 10,0 C 80 % 1005,0 hPa 0,0 l/m 17,7 km/h (3 Bft) O 90 0 min 0,000 mm 0,0 UV-I 0 W/m 8,5 C 6,3 C 27,4 km/h (4 Bft) 96,30 %
17.05.2019 23:02 11,8 C 15,0 C 10,0 C 80 % 1004,9 hPa 0,0 l/m 14,6 km/h (3 Bft) O 90 0 min 0,051 mm 0,0 UV-I 0 W/m 8,5 C 7,5 C 22,5 km/h (4 Bft) 98,57 %
17.05.2019 23:04 11,8 C 15,0 C 10,0 C 81 % 1004,9 hPa 0,0 l/m 13,7 km/h (3 Bft) O-NO 65 0 min 0,000 mm 0,0 UV-I 0 W/m 8,6 C 7,8 C 17,7 km/h (3 Bft) 98,00 %
17.05.2019 23:06 11,7 C 15,0 C 10,0 C 81 % 1004,9 hPa 0,0 l/m 15,6 km/h (3 Bft) O-NO 65 0 min 0,000 mm 0,0 UV-I 0 W/m 8,5 C 7,0 C 24,1 km/h (4 Bft) 100,00 %
17.05.2019 23:08 11,7 C 15,0 C 10,0 C 81 % 1004,9 hPa 0,0 l/m 15,5 km/h (3 Bft) O-NO 71 0 min 0,000 mm 0,0 UV-I 0 W/m 8,5 C 7,0 C 20,9 km/h (4 Bft) 100,00 %
17.05.2019 23:10 11,7 C 15,0 C 10,0 C 81 % 1005,1 hPa 0,0 l/m 14,5 km/h (3 Bft) O 86 0 min 0,000 mm 0,0 UV-I 0 W/m 8,5 C 7,4 C 19,3 km/h (3 Bft) 100,00 %
17.05.2019 23:12 11,7 C 15,0 C 9,4 C 81 % 1005,1 hPa 0,0 l/m 12,6 km/h (3 Bft) O-NO 77 0 min 0,000 mm 0,0 UV-I 0 W/m 8,5 C 8,2 C 17,7 km/h (3 Bft) 96,43 %
17.05.2019 23:14 11,6 C 15,0 C 9,4 C 81 % 1005,1 hPa 0,0 l/m 15,6 km/h (3 Bft) O-NO 57 0 min 0,000 mm 0,0 UV-I 0 W/m 8,5 C 6,8 C 20,9 km/h (4 Bft) 100,00 %
17.05.2019 23:16 11,6 C 15,0 C 9,4 C 81 % 1005,0 hPa 0,0 l/m 16,5 km/h (3 Bft) O 99 0 min 0,000 mm 0,0 UV-I 0 W/m 8,5 C 6,5 C 20,9 km/h (4 Bft) 96,43 %
17.05.2019 23:18 11,5 C 15,0 C 9,4 C 82 % 1005,0 hPa 0,0 l/m 16,7 km/h (3 Bft) O 98 0 min 0,000 mm 0,0 UV-I 0 W/m 8,5 C 6,3 C 24,1 km/h (4 Bft) 97,37 %
17.05.2019 23:20 11,4 C 15,0 C 9,4 C 82 % 1005,1 hPa 0,0 l/m 14,1 km/h (3 Bft) O 89 0 min 0,000 mm 0,0 UV-I 0 W/m 8,4 C 7,2 C 22,5 km/h (4 Bft) 97,87 %
17.05.2019 23:22 11,4 C 15,0 C 9,4 C 82 % 1005,0 hPa 0,0 l/m 15,5 km/h (3 Bft) O 92 0 min 0,000 mm 0,0 UV-I 0 W/m 8,4 C 6,6 C 20,9 km/h (4 Bft) 98,11 %
17.05.2019 23:24 11,4 C 15,0 C 9,4 C 82 % 1005,0 hPa 0,0 l/m 15,2 km/h (3 Bft) O-NO 68 0 min 0,000 mm 0,0 UV-I 0 W/m 8,4 C 6,8 C 20,9 km/h (4 Bft) 98,00 %
17.05.2019 23:26 11,3 C 15,0 C 9,4 C 82 % 1005,1 hPa 0,0 l/m 14,9 km/h (3 Bft) O-NO 75 0 min 0,000 mm 0,0 UV-I 0 W/m 8,3 C 6,7 C 20,9 km/h (4 Bft) 97,56 %
17.05.2019 23:29 11,3 C 15,0 C 9,4 C 82 % 1005,0 hPa 0,0 l/m 13,9 km/h (3 Bft) O-SO 103 0 min 0,000 mm 0,0 UV-I 0 W/m 8,3 C 7,2 C 20,9 km/h (4 Bft) 97,40 %
17.05.2019 23:30 11,2 C 15,0 C 9,4 C 83 % 1005,0 hPa 0,0 l/m 14,4 km/h (3 Bft) O-NO 76 0 min 0,000 mm 0,0 UV-I 0 W/m 8,4 C 6,8 C 19,3 km/h (3 Bft) 100,00 %
17.05.2019 23:32 11,2 C 15,0 C 9,4 C 83 % 1005,1 hPa 0,0 l/m 14,3 km/h (3 Bft) O 80 0 min 0,000 mm 0,0 UV-I 0 W/m 8,4 C 6,9 C 19,3 km/h (3 Bft) 95,74 %
17.05.2019 23:34 11,2 C 15,0 C 9,4 C 83 % 1005,0 hPa 0,0 l/m 15,2 km/h (3 Bft) O 86 0 min 0,000 mm 0,0 UV-I 0 W/m 8,4 C 6,5 C 22,5 km/h (4 Bft) 95,74 %
17.05.2019 23:36 11,2 C 15,0 C 9,4 C 83 % 1005,0 hPa 0,0 l/m 13,9 km/h (3 Bft) O-NO 73 0 min 0,000 mm 0,0 UV-I 0 W/m 8,4 C 7,0 C 19,3 km/h (3 Bft) 98,11 %
17.05.2019 23:38 11,1 C 15,0 C 9,4 C 83 % 1005,0 hPa 0,0 l/m 15,3 km/h (3 Bft) O-NO 68 0 min 0,000 mm 0,0 UV-I 0 W/m 8,3 C 6,3 C 22,5 km/h (4 Bft) 97,56 %
17.05.2019 23:40 11,1 C 15,0 C 9,4 C 83 % 1005,0 hPa 0,0 l/m 11,5 km/h (2 Bft) O-NO 67 0 min 0,000 mm 0,0 UV-I 0 W/m 8,3 C 8,0 C 16,1 km/h (3 Bft) 98,00 %
17.05.2019 23:42 11,1 C 15,0 C 9,4 C 83 % 1005,0 hPa 0,0 l/m 13,1 km/h (3 Bft) O-NO 71 0 min 0,000 mm 0,0 UV-I 0 W/m 8,3 C 7,3 C 17,7 km/h (3 Bft) 97,87 %
17.05.2019 23:44 11,0 C 15,0 C 9,4 C 83 % 1005,0 hPa 0,0 l/m 15,2 km/h (3 Bft) O 86 0 min 0,000 mm 0,0 UV-I 0 W/m 8,2 C 6,3 C 20,9 km/h (4 Bft) 97,56 %
17.05.2019 23:46 10,9 C 15,0 C 9,4 C 84 % 1005,1 hPa 0,0 l/m 14,3 km/h (3 Bft) O-NO 78 0 min 0,000 mm 0,0 UV-I 0 W/m 8,3 C 6,5 C 17,7 km/h (3 Bft) 98,00 %
17.05.2019 23:48 10,9 C 15,0 C 9,4 C 84 % 1005,1 hPa 0,0 l/m 12,4 km/h (3 Bft) NO 54 0 min 0,000 mm 0,0 UV-I 0 W/m 8,3 C 7,4 C 17,7 km/h (3 Bft) 95,12 %
17.05.2019 23:50 10,9 C 15,0 C 8,9 C 84 % 1005,1 hPa 0,0 l/m 14,8 km/h (3 Bft) O-NO 72 0 min 0,000 mm 0,0 UV-I 0 W/m 8,3 C 6,3 C 19,3 km/h (3 Bft) 97,37 %
17.05.2019 23:52 10,9 C 15,0 C 9,4 C 84 % 1005,1 hPa 0,0 l/m 15,2 km/h (3 Bft) O 89 0 min 0,000 mm 0,0 UV-I 0 W/m 8,3 C 6,1 C 22,5 km/h (4 Bft) 98,46 %
17.05.2019 23:54 10,9 C 15,0 C 9,4 C 84 % 1005,1 hPa 0,0 l/m 13,8 km/h (3 Bft) O-NO 78 0 min 0,000 mm 0,0 UV-I 0 W/m 8,3 C 6,7 C 20,9 km/h (4 Bft) 97,87 %
17.05.2019 23:56 10,9 C 15,0 C 9,4 C 84 % 1005,1 hPa 0,0 l/m 13,0 km/h (3 Bft) O-NO 60 0 min 0,000 mm 0,0 UV-I 0 W/m 8,3 C 7,1 C 19,3 km/h (3 Bft) 96,00 %
17.05.2019 23:58 10,8 C 15,0 C 8,9 C 84 % 1005,1 hPa 0,0 l/m 13,6 km/h (3 Bft) O-NO 69 0 min 0,000 mm 0,0 UV-I 0 W/m 8,2 C 6,7 C 20,9 km/h (4 Bft) 100,00 %
_ Min-Zeit 05:40 00:36 04:31 18:38 19:24 - 04:32 - - - - - - 04:48 07:18 04:32 05:22
Minimum _ 6,1 C 12,8 C 2,8 C 53 % 1004,3 hPa - 2,2 km/h (1 Bft) - - - - - - 5,3 C -1,3 C 3,2 km/h (1 Bft) 89,47 %
_ Max-Zeit 16:26 16:56 13:10 06:22 00:00 00:00 09:32 - - 14:21 14:02 12:36 12:14 14:52 19:12 16:14 00:38
Maximum _ 19,5 C 15,6 C 35,6 C 96 % 1011,3 hPa 0,0 l/m 24,9 km/h
O-NO (4 Bft)
- - 3 min 0,508 mm 4,4 UV-I 810 W/m 12,1 C 17,1 C 37,0 km/h
O (5 Bft)
100,00 %
Durchschnitt _ 12,8 C 13,9 C 17,4 C 76 % 1007,4 hPa #0,0 l/m 13,8 km/h (3 Bft) O-NO - #11:44 h #4,521 mm 2,7 UV-I 418 W/m 8,4 C 9,6 C 20,0 km/h (4 Bft) 97,45 %